[[{"header":{"parameterUnit":"m.s-1","parameterCategory":1,"la1":30.6,"la2":29.2853,"lo1":-89.7004,"lo2":-87.6739,"dy":0.0162,"dx":0.0183,"nx":112,"ny":82,"refTime":"2024-04-17T06:00:00:Z","depth":0,"parameterNumber":2,"parameterNumberName":"U-component_of_WINDS"},"data":[0.0,0.0,0.0,0.0,0.0,0.0,0.0,0.0,0.0,0.0,0.0,0.0,0.0,0.0,0.0,0.0,0.0,0.0,0.0,0.0,0.0,0.0,0.0,0.0,0.0,0.0,0.0,0.0,0.0,0.0,0.0,0.0,0.0,0.0,0.0,0.0,0.0,0.0,0.0,0.0,0.0,0.0,0.0,0.0,0.0,0.0,0.0,0.0,0.0,0.0,0.0,0.0,0.0,0.0,0.0,0.0,0.0,0.0,0.0,0.0,0.0,0.0,0.0,0.0,0.0,0.0,0.0,0.0,0.0,0.0,0.0,0.0,0.0,0.0,0.0,0.0,0.0,0.0,0.0,0.0,0.0,0.0,0.0,0.0,0.0,0.0,0.0,0.0,0.0,0.0,5.0938,5.1072,5.1092,5.1034,5.0899,5.0899,5.0822,5.0709,0.0,0.0,0.0,0.0,0.0,0.0,0.0,0.0,0.0,0.0,0.0,0.0,0.0,0.0,0.0,0.0,0.0,0.0,0.0,0.0,0.0,0.0,0.0,0.0,0.0,0.0,0.0,0.0,0.0,0.0,0.0,0.0,0.0,0.0,0.0,0.0,0.0,0.0,0.0,0.0,0.0,0.0,0.0,0.0,0.0,0.0,0.0,0.0,0.0,0.0,0.0,0.0,0.0,0.0,0.0,0.0,0.0,0.0,0.0,0.0,0.0,0.0,0.0,0.0,0.0,0.0,0.0,0.0,0.0,0.0,0.0,0.0,0.0,0.0,0.0,0.0,0.0,0.0,0.0,0.0,0.0,0.0,0.0,0.0,0.0,0.0,0.0,0.0,0.0,0.0,0.0,0.0,0.0,0.0,0.0,0.0,0.0,0.0,0.0,0.0,0.0,0.0,0.0,0.0,5.2005,5.2738,5.2815,5.2527,5.1774,5.1717,5.1431,5.0748,0.0,0.0,0.0,0.0,0.0,0.0,0.0,0.0,0.0,0.0,0.0,0.0,0.0,0.0,0.0,0.0,0.0,0.0,0.0,0.0,0.0,0.0,0.0,0.0,0.0,0.0,0.0,0.0,0.0,0.0,0.0,0.0,0.0,0.0,0.0,0.0,0.0,0.0,0.0,0.0,0.0,0.0,0.0,0.0,0.0,0.0,0.0,0.0,0.0,0.0,0.0,0.0,0.0,0.0,0.0,0.0,0.0,0.0,0.0,0.0,0.0,0.0,0.0,0.0,0.0,0.0,0.0,0.0,0.0,0.0,0.0,0.0,0.0,0.0,0.0,0.0,0.0,0.0,0.0,0.0,0.0,0.0,0.0,0.0,0.0,0.0,0.0,0.0,0.0,0.0,0.0,0.0,0.0,0.0,0.0,0.0,0.0,0.0,0.0,0.0,0.0,0.0,0.0,5.2373,5.2755,5.3162,5.32,5.3044,5.264,5.2601,5.245,5.2087,5.1606,0.0,0.0,0.0,0.0,0.0,0.0,0.0,0.0,0.0,0.0,0.0,0.0,0.0,0.0,0.0,0.0,0.0,0.0,0.0,0.0,0.0,0.0,0.0,0.0,0.0,0.0,0.0,0.0,0.0,0.0,0.0,0.0,0.0,0.0,0.0,0.0,0.0,0.0,0.0,0.0,0.0,0.0,0.0,0.0,0.0,0.0,0.0,0.0,0.0,0.0,0.0,0.0,0.0,0.0,0.0,0.0,0.0,0.0,0.0,0.0,0.0,0.0,0.0,0.0,0.0,0.0,0.0,0.0,0.0,0.0,0.0,0.0,0.0,0.0,0.0,0.0,0.0,0.0,0.0,0.0,0.0,0.0,0.0,0.0,0.0,0.0,0.0,0.0,0.0,0.0,0.0,0.0,0.0,0.0,0.0,0.0,0.0,0.0,0.0,0.0,0.0,0.0,5.3508,5.3585,5.3777,5.3796,5.37,5.3527,5.3508,5.3412,5.3219,5.2582,0.0,0.0,0.0,0.0,0.0,0.0,0.0,0.0,0.0,0.0,0.0,0.0,0.0,0.0,0.0,0.0,0.0,0.0,0.0,0.0,0.0,0.0,0.0,0.0,0.0,0.0,0.0,0.0,0.0,0.0,0.0,0.0,0.0,0.0,0.0,0.0,0.0,0.0,0.0,0.0,0.0,0.0,0.0,0.0,0.0,0.0,0.0,0.0,0.0,0.0,0.0,0.0,0.0,0.0,0.0,0.0,0.0,0.0,0.0,0.0,0.0,0.0,0.0,0.0,0.0,0.0,0.0,0.0,0.0,0.0,0.0,0.0,0.0,0.0,0.0,0.0,0.0,0.0,0.0,0.0,0.0,0.0,0.0,0.0,0.0,0.0,0.0,0.0,0.0,0.0,0.0,0.0,0.0,0.0,0.0,0.0,0.0,0.0,0.0,0.0,0.0,0.0,5.4417,5.4705,5.5436,5.5513,5.5225,5.4472,5.4417,5.4068,5.3258,5.3142,0.0,0.0,0.0,0.0,0.0,0.0,0.0,0.0,0.0,0.0,0.0,0.0,0.0,0.0,0.0,0.0,0.0,0.0,0.0,0.0,0.0,0.0,0.0,0.0,0.0,0.0,0.0,0.0,0.0,0.0,0.0,0.0,0.0,0.0,0.0,0.0,0.0,0.0,0.0,0.0,0.0,0.0,0.0,0.0,0.0,0.0,0.0,0.0,0.0,0.0,0.0,0.0,0.0,0.0,0.0,0.0,0.0,0.0,0.0,0.0,0.0,0.0,0.0,0.0,0.0,0.0,0.0,0.0,0.0,0.0,0.0,0.0,0.0,0.0,0.0,0.0,0.0,0.0,0.0,0.0,0.0,0.0,0.0,0.0,0.0,0.0,0.0,0.0,0.0,0.0,0.0,0.0,0.0,0.0,0.0,0.0,0.0,0.0,0.0,0.0,0.0,0.0,5.5244,5.5359,0.0,5.5706,5.5571,5.5263,5.5244,5.5109,5.478,0.0,0.0,0.0,0.0,0.0,0.0,0.0,0.0,0.0,0.0,0.0,0.0,0.0,0.0,0.0,0.0,0.0,0.0,0.0,0.0,0.0,0.0,0.0,0.0,0.0,0.0,0.0,0.0,0.0,0.0,0.0,0.0,0.0,0.0,0.0,0.0,0.0,0.0,0.0,0.0,0.0,0.0,0.0,0.0,0.0,0.0,0.0,0.0,0.0,0.0,0.0,0.0,0.0,0.0,0.0,0.0,0.0,0.0,0.0,0.0,0.0,0.0,0.0,0.0,0.0,0.0,0.0,0.0,0.0,0.0,0.0,0.0,0.0,0.0,0.0,0.0,0.0,0.0,0.0,0.0,0.0,0.0,0.0,0.0,0.0,0.0,0.0,0.0,0.0,0.0,0.0,0.0,0.0,0.0,0.0,0.0,0.0,0.0,0.0,0.0,0.0,0.0,5.5629,5.5706,5.5706,0.0,5.5706,5.5706,5.5706,5.5706,5.5706,5.5706,0.0,0.0,0.0,0.0,0.0,0.0,0.0,0.0,0.0,0.0,0.0,0.0,0.0,0.0,0.0,0.0,0.0,0.0,0.0,0.0,0.0,0.0,0.0,0.0,0.0,0.0,0.0,0.0,0.0,0.0,0.0,0.0,0.0,0.0,0.0,0.0,0.0,0.0,0.0,0.0,0.0,0.0,0.0,0.0,0.0,0.0,0.0,0.0,0.0,0.0,0.0,0.0,0.0,0.0,0.0,0.0,0.0,0.0,0.0,0.0,0.0,0.0,0.0,0.0,0.0,0.0,0.0,0.0,0.0,0.0,0.0,0.0,0.0,0.0,0.0,0.0,0.0,0.0,0.0,0.0,0.0,0.0,0.0,0.0,0.0,0.0,0.0,0.0,0.0,0.0,0.0,0.0,0.0,0.0,0.0,0.0,0.0,0.0,0.0,0.0,0.0,0.0,5.5706,5.5706,5.5706,5.5706,5.5706,5.5706,5.5706,5.5706,5.5706,0.0,0.0,0.0,0.0,0.0,0.0,0.0,0.0,0.0,0.0,0.0,0.0,0.0,0.0,0.0,0.0,0.0,0.0,0.0,0.0,0.0,0.0,0.0,0.0,0.0,0.0,0.0,0.0,0.0,0.0,0.0,0.0,0.0,0.0,0.0,0.0,0.0,0.0,0.0,0.0,0.0,0.0,0.0,0.0,0.0,0.0,0.0,0.0,0.0,0.0,0.0,0.0,0.0,0.0,0.0,0.0,0.0,0.0,0.0,0.0,0.0,0.0,0.0,0.0,0.0,0.0,0.0,0.0,0.0,0.0,0.0,0.0,0.0,0.0,0.0,0.0,0.0,0.0,0.0,0.0,0.0,0.0,0.0,0.0,0.0,0.0,0.0,0.0,0.0,0.0,0.0,0.0,0.0,0.0,0.0,0.0,0.0,0.0,0.0,0.0,0.0,0.0,0.0,5.5706,5.5706,5.5706,5.5706,5.5706,5.5706,5.5706,5.5706,5.5706,5.5706,0.0,0.0,0.0,0.0,0.0,0.0,0.0,0.0,0.0,0.0,0.0,0.0,0.0,0.0,0.0,0.0,0.0,0.0,0.0,0.0,0.0,0.0,0.0,0.0,0.0,0.0,0.0,0.0,0.0,0.0,0.0,0.0,0.0,0.0,0.0,0.0,0.0,0.0,0.0,0.0,0.0,0.0,0.0,0.0,0.0,0.0,0.0,0.0,0.0,0.0,0.0,0.0,0.0,0.0,0.0,0.0,0.0,0.0,0.0,0.0,0.0,0.0,0.0,0.0,0.0,0.0,0.0,0.0,0.0,0.0,0.0,0.0,0.0,0.0,0.0,0.0,0.0,0.0,0.0,0.0,0.0,0.0,0.0,0.0,0.0,0.0,0.0,0.0,0.0,0.0,0.0,0.0,0.0,0.0,0.0,0.0,0.0,0.0,0.0,0.0,0.0,0.0,5.5706,5.5706,5.5706,5.5706,5.5706,5.5706,5.5706,5.5706,5.5706,5.5706,0.0,0.0,0.0,0.0,0.0,0.0,0.0,0.0,0.0,0.0,0.0,0.0,0.0,0.0,0.0,0.0,0.0,0.0,0.0,0.0,0.0,0.0,0.0,0.0,0.0,0.0,0.0,0.0,0.0,0.0,0.0,0.0,0.0,0.0,0.0,0.0,0.0,0.0,0.0,0.0,0.0,0.0,0.0,0.0,0.0,0.0,0.0,0.0,0.0,0.0,0.0,0.0,0.0,0.0,0.0,0.0,0.0,0.0,0.0,0.0,0.0,0.0,0.0,0.0,0.0,0.0,0.0,0.0,0.0,0.0,0.0,0.0,0.0,0.0,0.0,0.0,0.0,0.0,0.0,0.0,0.0,0.0,0.0,0.0,0.0,0.0,0.0,0.0,0.0,0.0,0.0,0.0,0.0,0.0,0.0,0.0,0.0,0.0,0.0,0.0,0.0,0.0,5.5937,5.5937,5.5937,5.5937,5.5937,5.5937,5.5937,5.586,5.5824,5.5824,0.0,0.0,0.0,0.0,0.0,0.0,0.0,0.0,0.0,0.0,0.0,0.0,0.0,0.0,0.0,0.0,0.0,0.0,0.0,0.0,0.0,0.0,0.0,0.0,0.0,0.0,0.0,0.0,0.0,0.0,0.0,0.0,0.0,0.0,0.0,0.0,0.0,0.0,0.0,0.0,0.0,0.0,0.0,0.0,0.0,0.0,0.0,0.0,0.0,0.0,0.0,0.0,0.0,0.0,0.0,0.0,0.0,0.0,0.0,0.0,5.0603,0.0,0.0,0.0,0.0,0.0,0.0,0.0,0.0,0.0,0.0,0.0,0.0,0.0,0.0,0.0,0.0,0.0,0.0,0.0,0.0,0.0,0.0,0.0,0.0,0.0,0.0,0.0,0.0,0.0,0.0,0.0,0.0,0.0,0.0,0.0,0.0,0.0,0.0,0.0,0.0,0.0,5.7665,5.7742,5.7742,5.7742,5.7742,5.7742,5.7742,5.711,5.6711,5.6711,5.6074,0.0,0.0,0.0,0.0,0.0,0.0,0.0,0.0,0.0,0.0,0.0,0.0,0.0,0.0,0.0,0.0,0.0,0.0,0.0,0.0,0.0,0.0,0.0,0.0,0.0,0.0,0.0,0.0,0.0,0.0,0.0,0.0,0.0,0.0,0.0,0.0,0.0,0.0,0.0,0.0,0.0,0.0,0.0,0.0,0.0,0.0,0.0,0.0,0.0,0.0,0.0,0.0,0.0,0.0,0.0,0.0,0.0,0.0,0.0,0.0,5.1132,0.0,0.0,0.0,0.0,0.0,0.0,0.0,0.0,0.0,0.0,0.0,0.0,0.0,0.0,0.0,0.0,0.0,0.0,0.0,0.0,0.0,0.0,0.0,0.0,0.0,0.0,0.0,0.0,0.0,0.0,0.0,0.0,0.0,0.0,0.0,0.0,0.0,0.0,0.0,0.0,5.8239,5.8297,5.8297,5.8297,5.8297,5.8297,5.8297,5.7877,5.761,5.761,5.6805,0.0,0.0,0.0,0.0,0.0,0.0,0.0,0.0,0.0,0.0,0.0,0.0,0.0,0.0,0.0,0.0,0.0,0.0,0.0,0.0,0.0,0.0,0.0,0.0,0.0,0.0,0.0,0.0,0.0,0.0,0.0,0.0,0.0,0.0,0.0,0.0,0.0,0.0,0.0,0.0,0.0,0.0,0.0,0.0,0.0,0.0,0.0,0.0,0.0,0.0,0.0,0.0,0.0,5.08,5.115,5.18,5.184,5.2054,5.237,5.2112,5.1977,5.1976,5.2752,0.0,0.0,0.0,0.0,0.0,0.0,0.0,0.0,0.0,0.0,0.0,0.0,0.0,0.0,0.0,0.0,0.0,0.0,0.0,0.0,0.0,0.0,0.0,0.0,5.5001,5.5326,5.4706,0.0,0.0,0.0,0.0,0.0,0.0,0.0,0.0,0.0,0.0,0.0,5.8706,5.8714,5.8705,5.8705,5.8717,5.8725,5.8725,5.8599,5.8508,5.8508,5.7706,5.7151,0.0,0.0,0.0,0.0,0.0,0.0,0.0,0.0,0.0,0.0,0.0,0.0,0.0,0.0,0.0,0.0,0.0,0.0,0.0,0.0,0.0,0.0,0.0,0.0,0.0,0.0,0.0,0.0,0.0,0.0,0.0,0.0,4.9375,4.9375,0.0,0.0,0.0,0.0,0.0,0.0,0.0,0.0,0.0,0.0,0.0,0.0,0.0,5.0392,5.036,5.0817,5.1116,5.1218,5.1218,5.1283,5.1391,5.1609,5.194,5.2346,5.298,0.0,5.275,5.2877,0.0,0.0,0.0,0.0,0.0,0.0,0.0,0.0,0.0,0.0,0.0,0.0,0.0,0.0,0.0,0.0,0.0,0.0,0.0,0.0,0.0,0.0,5.5345,5.5276,5.5337,5.5398,0.0,5.5312,5.5387,5.5566,5.6162,0.0,0.0,0.0,0.0,0.0,0.0,0.0,6.0281,6.0322,6.03,6.03,6.0359,6.038,6.038,5.9733,5.9338,5.9338,5.8585,5.7783,5.7038,5.6885,0.0,0.0,0.0,0.0,0.0,0.0,0.0,0.0,0.0,0.0,0.0,0.0,0.0,0.0,0.0,0.0,0.0,0.0,0.0,0.0,0.0,0.0,0.0,0.0,0.0,0.0,0.0,0.0,0.0,4.9678,4.9577,4.9577,4.9712,4.987,0.0,0.0,0.0,0.0,0.0,0.0,0.0,0.0,0.0,5.0419,5.0771,5.0868,5.0671,5.0897,5.1258,5.1701,5.2152,5.2609,5.307,5.3632,5.4209,5.4786,5.5148,5.5451,5.5626,5.4491,5.4058,5.4113,0.0,0.0,0.0,0.0,5.4468,5.4443,5.4443,5.4431,5.4411,5.4411,0.0,0.0,0.0,0.0,0.0,0.0,0.0,0.0,0.0,0.0,5.5448,5.5403,5.575,5.6072,5.6129,5.6512,5.6715,0.0,5.6936,5.7551,5.7623,0.0,0.0,0.0,0.0,6.0223,6.065,6.0667,6.068,6.0714,6.0747,6.0765,6.0765,6.0391,6.0173,6.0173,5.9344,5.8704,5.8364,5.7906,5.7288,0.0,0.0,0.0,0.0,0.0,0.0,0.0,0.0,0.0,0.0,0.0,0.0,0.0,0.0,0.0,0.0,0.0,0.0,0.0,0.0,0.0,0.0,0.0,0.0,0.0,0.0,0.0,0.0,4.9607,4.9509,4.9427,4.949,4.9646,0.0,0.0,0.0,0.0,0.0,0.0,5.068,5.0694,5.0852,5.1157,5.1565,5.1661,5.1426,5.1825,5.2325,5.2941,5.3537,5.4124,5.4735,5.5328,5.5957,5.6556,5.6556,5.6935,5.7477,5.5967,5.5346,5.5348,5.5174,5.511,5.5153,5.5413,5.5492,5.5477,5.5477,5.5465,5.547,5.547,5.5514,5.5548,5.5548,0.0,0.0,0.0,0.0,5.587,5.6013,5.6074,5.6056,5.6046,5.6495,5.6951,5.7003,5.7656,5.799,0.0,5.7752,5.8387,5.8433,0.0,0.0,0.0,0.0,6.0601,6.0677,6.0639,6.0635,6.0682,6.0735,6.0753,6.0753,6.0725,6.071,6.0697,6.0044,5.9574,5.9418,5.8822,5.8141,5.7341,0.0,0.0,0.0,0.0,0.0,0.0,0.0,0.0,0.0,0.0,0.0,0.0,0.0,0.0,0.0,0.0,0.0,0.0,0.0,0.0,0.0,0.0,0.0,0.0,0.0,0.0,0.0,0.0,0.0,4.8416,4.8663,0.0,0.0,0.0,0.0,5.0462,5.117,5.1496,5.1277,5.1259,5.1125,5.0824,5.2309,5.3107,5.3086,5.4607,5.5383,5.542,5.5456,5.5493,5.5548,5.5585,5.5784,5.6126,5.6126,5.6369,5.676,5.6587,5.654,5.6524,5.5695,5.5426,5.5483,5.5498,5.5462,5.5408,5.5408,5.5406,5.5409,5.5409,5.5415,5.5411,5.5411,5.5456,0.0,0.0,5.6741,5.6918,5.7663,5.7877,5.7861,5.7788,5.781,5.7832,5.7836,5.8523,5.8894,0.0,5.8548,5.9063,5.9143,0.0,6.0479,6.0615,6.0559,6.0532,6.0597,6.0495,6.0417,6.0417,6.0535,6.061,6.061,6.0729,6.0777,6.0697,6.0653,6.0266,5.9437,5.9363,5.8986,5.8258,5.742,0.0,0.0,0.0,0.0,0.0,0.0,0.0,0.0,0.0,0.0,0.0,0.0,0.0,0.0,0.0,0.0,0.0,0.0,0.0,0.0,0.0,0.0,0.0,0.0,0.0,0.0,0.0,0.0,4.8928,4.9318,0.0,4.9865,5.0566,5.1005,5.1003,5.1069,5.1525,5.2461,5.2512,5.2948,5.3859,5.4441,5.4735,5.4735,5.5831,5.6363,5.6376,5.7422,5.7917,5.7936,5.8455,5.8896,5.9253,5.9253,5.9472,5.9802,5.9261,5.7969,5.6281,5.5972,5.5876,5.5942,5.6478,5.6648,5.6655,5.6917,5.7008,5.7014,5.706,5.707,5.7079,5.712,5.712,5.7165,5.7487,5.7532,5.757,5.7853,5.7945,5.7939,5.7912,5.8307,5.8666,5.8666,5.9362,5.988,5.9593,5.9798,6.0009,6.0039,6.0255,6.0468,6.0565,6.0495,6.0458,6.0529,6.0495,6.0479,6.0525,6.0571,6.0601,6.0601,6.0645,6.0648,6.0581,6.0617,6.0489,6.0118,6.0184,5.9855,5.9028,5.8741,5.8072,0.0,0.0,0.0,0.0,0.0,0.0,0.0,0.0,0.0,0.0,0.0,0.0,0.0,0.0,0.0,0.0,0.0,0.0,0.0,0.0,0.0,0.0,0.0,0.0,0.0,0.0,4.9241,4.9392,4.9919,5.0356,5.0579,5.1408,5.1942,5.1938,5.2245,5.2876,5.3953,5.4008,5.462,5.5965,5.6277,5.6534,5.6804,5.7605,5.8009,5.8027,5.9104,5.96,5.9618,6.0156,6.0554,6.0803,6.0803,6.0951,6.1158,6.0626,5.9268,5.749,5.6924,5.6789,5.6939,5.7206,5.73,5.7335,5.7617,5.7782,5.7915,5.7943,5.7975,5.7966,5.8011,5.7995,5.8013,5.8297,5.834,5.8364,5.8673,5.8749,5.8749,5.8749,5.9147,5.9545,5.9545,5.9991,6.0396,6.0396,6.0434,6.0465,6.0465,6.0427,6.042,6.0489,6.0441,6.042,6.0492,6.0479,6.0485,6.0529,6.0552,6.0568,6.0568,6.061,6.0601,6.0505,6.0562,6.0571,6.0502,6.0617,6.0417,5.9843,5.9614,5.8657,5.6964,0.0,0.0,0.0,0.0,0.0,0.0,0.0,0.0,0.0,0.0,0.0,0.0,0.0,0.0,0.0,0.0,0.0,0.0,0.0,0.0,0.0,0.0,0.0,4.8934,4.9528,4.9931,4.9673,5.0367,5.087,5.087,5.2338,5.3269,5.3269,5.473,5.5658,5.5677,5.5695,5.6075,5.689,5.7666,5.8455,5.9227,6.0046,6.0432,6.0432,6.045,6.0468,6.0468,6.0468,6.0468,6.0468,6.0468,6.0468,6.0468,6.0468,6.0468,6.0313,5.8636,5.8228,5.8462,5.7691,5.7435,5.7451,5.7413,5.768,5.8004,5.7982,5.7982,5.7982,5.7982,5.7982,5.8135,5.8911,5.914,5.9331,6.0182,6.0396,6.0396,6.0396,6.0396,6.0396,6.0396,6.0396,6.0396,6.0396,6.0396,6.0396,6.0396,6.0396,6.042,6.0489,6.0441,0.0,6.0489,6.0438,6.0396,6.0396,6.0458,6.0495,6.0495,6.0629,6.0629,6.0505,6.0562,6.0568,6.0502,6.0565,6.0636,6.0691,5.99,5.8667,5.6989,0.0,0.0,0.0,0.0,0.0,0.0,0.0,0.0,0.0,0.0,0.0,0.0,0.0,0.0,0.0,0.0,0.0,0.0,0.0,0.0,0.0,5.0176,5.0308,4.9489,5.0069,5.0559,5.0487,5.1696,5.2535,5.2535,5.3995,5.4937,5.4937,5.5886,5.673,5.7305,5.7881,5.8572,5.9385,5.9624,5.9844,6.0064,6.0878,6.1269,6.1288,6.1863,6.2132,6.2132,6.2132,6.2132,6.2132,6.2132,6.2132,6.2132,6.2132,6.2132,6.1973,6.0347,5.9771,5.9888,5.9955,6.037,6.0831,6.0206,6.0247,6.0485,5.9896,5.9708,5.9708,5.9708,5.9708,5.9765,5.9972,6.0049,6.0106,6.0339,6.0396,6.0396,6.0396,6.0396,6.0396,6.0396,6.0396,6.0396,6.0396,6.0396,6.0396,6.0396,6.0396,6.0403,6.042,6.041,0.0,6.0424,6.041,6.0396,6.0396,6.0413,6.0427,6.0427,6.0512,6.0522,6.0431,6.0535,6.0549,6.0431,6.0539,6.0636,6.0691,5.981,5.9132,0.0,0.0,0.0,0.0,0.0,0.0,0.0,0.0,0.0,0.0,0.0,0.0,0.0,0.0,0.0,0.0,0.0,0.0,0.0,0.0,0.0,0.0,5.0883,5.1261,5.1137,5.1518,5.1806,5.1806,5.3225,5.421,5.421,5.5666,5.6607,5.6607,5.7666,5.8505,5.8988,5.9459,6.0064,6.0878,6.0896,6.1062,6.1398,6.1863,6.2108,6.2108,6.2572,6.2793,6.2793,6.2793,6.2793,6.2793,6.2793,6.2793,6.2793,6.2793,6.2793,0.0,0.0,0.0,0.0,0.0,6.1419,6.1908,6.1239,6.1398,6.1823,6.1351,6.1312,6.1443,6.1443,6.1443,6.1367,6.1004,6.0908,6.0832,6.0492,6.0396,6.0396,6.0396,6.0396,6.0396,6.0396,6.0396,6.0396,6.0396,6.0396,0.0,6.0396,6.0396,6.0396,6.0396,6.0396,6.0396,6.0396,6.0396,6.0396,6.0396,6.0396,6.0396,6.0396,6.0462,0.0,0.0,0.0,6.0525,6.0444,6.0515,0.0,0.0,0.0,5.9696,5.9313,0.0,0.0,0.0,5.5865,5.5706,0.0,0.0,0.0,0.0,0.0,0.0,0.0,0.0,0.0,0.0,0.0,0.0,0.0,0.0,0.0,0.0,5.1688,5.2509,5.3232,5.3489,5.3563,5.3471,5.4895,5.5879,5.5879,5.7323,5.8272,5.8272,5.9685,6.0542,6.0542,0.0,0.0,0.0,0.0,6.2089,6.2793,6.2793,6.2793,6.2793,6.2793,6.2793,6.2793,6.2793,6.2793,6.2793,6.2793,6.2793,6.2793,6.2793,6.2793,6.2738,6.2016,6.1945,6.2186,6.1467,6.1451,6.176,6.1294,0.0,0.0,6.2249,6.2467,6.2761,6.2822,6.2833,6.2687,6.1941,6.1745,6.1573,6.0874,6.0683,6.0683,6.0683,6.0683,6.0683,6.0683,6.0683,6.0683,6.0683,6.0683,6.0683,6.0683,6.053,6.0396,6.0396,6.0396,6.0396,6.0396,6.0396,6.0396,6.0396,0.0,0.0,6.0396,6.0455,6.0465,6.0399,6.0455,6.0489,6.0489,6.0489,6.0492,6.0502,6.0601,6.0239,5.9354,5.9386,5.8621,5.7165,5.6264,5.5797,0.0,0.0,0.0,0.0,0.0,0.0,0.0,0.0,0.0,0.0,0.0,0.0,0.0,0.0,0.0,5.1762,5.2991,5.3995,5.4142,5.5293,5.5862,5.5212,5.6552,5.7543,5.7543,5.8988,5.9936,5.9936,6.0829,6.138,6.138,6.1973,6.2407,6.2554,6.2579,6.2646,6.2793,6.2793,6.2793,6.2793,0.0,0.0,6.2793,6.2793,6.2793,6.2793,6.2793,6.2793,6.2793,6.2793,6.2793,6.2774,6.2627,6.2616,6.2677,6.2512,6.2748,6.3025,6.224,6.2331,6.2673,6.1953,6.1794,6.1919,6.2307,6.2422,0.0,6.2604,6.2659,6.2601,6.2468,6.241,6.241,6.241,6.241,6.241,6.241,6.241,6.241,6.241,6.241,6.241,6.241,6.129,6.0396,6.0396,6.0396,6.0396,6.0396,6.0396,6.0396,6.0396,6.0396,6.0396,6.0396,6.041,6.041,6.0396,6.041,6.0417,6.0417,6.0417,6.0444,6.0499,6.0475,6.0426,6.0329,5.9642,5.9187,5.888,5.7371,5.6327,0.0,0.0,0.0,0.0,0.0,0.0,0.0,0.0,0.0,0.0,0.0,5.1394,5.1394,0.0,5.3193,5.3193,5.4203,5.5286,5.6088,5.6895,5.7244,5.6846,5.7868,5.8762,5.9171,6.0291,6.1006,6.1006,6.1759,6.2193,6.2193,6.2572,6.2793,6.2793,6.2793,6.2793,6.2793,6.2793,6.2793,6.2793,6.2793,6.2793,6.2811,6.3258,6.3203,6.2829,6.3258,6.3203,6.2793,6.2793,6.2793,6.2793,6.2793,6.2793,6.2793,6.2793,6.2947,6.3096,6.2648,6.281,6.3139,6.2689,6.2684,6.2881,6.3121,6.32,6.3166,6.2962,6.29,6.2848,6.265,6.2599,6.2646,6.2848,6.2903,6.2903,6.2903,6.2903,6.2903,6.2903,6.2903,6.2903,6.2903,6.2204,6.1497,6.108,6.1004,6.1004,6.1004,6.1382,6.165,6.165,6.1252,6.1004,6.1004,6.0625,6.0396,6.0396,6.0396,6.0396,6.0396,6.0396,6.0413,6.0448,6.0448,6.0465,6.0502,6.0124,5.9731,5.9325,5.8533,5.7491,0.0,0.0,0.0,0.0,0.0,0.0,0.0,0.0,5.1041,5.1041,5.1665,5.2275,5.2441,5.3524,5.4454,5.4601,5.5433,5.6521,5.7819,5.8272,5.8516,5.8676,5.9275,5.9912,6.056,6.1355,6.1832,6.1832,6.2432,6.2793,6.2793,6.2793,6.2793,6.2793,6.2793,6.2884,6.305,6.305,6.3123,6.3288,6.3288,6.3288,6.3306,6.4016,6.3943,6.3325,6.4035,6.3925,6.327,6.3129,6.305,6.3037,6.2866,6.2793,6.2793,6.2793,6.2793,6.2793,6.2793,6.3056,6.3354,6.3354,6.3576,6.3869,6.3958,6.3983,6.3869,6.3396,6.327,6.3215,6.2979,6.2901,6.2971,6.3302,6.3385,6.3385,6.3385,6.3385,6.3385,6.3385,6.3385,6.3385,6.3385,6.3251,6.2869,6.1971,6.1856,6.1856,6.1856,6.2468,6.2903,6.2903,6.2277,6.1784,6.1612,6.1004,6.0568,6.0415,6.0396,6.0396,6.0396,6.0396,6.0396,6.0396,6.0455,6.0458,6.0417,6.0529,6.022,5.9559,5.9442,5.8627,5.0325,5.0522,5.054,5.0632,5.0674,5.0692,0.0,0.0,5.1872,5.1872,5.2509,5.3269,5.3995,5.4271,5.4638,5.5346,5.6736,5.7782,5.7966,5.9226,6.0401,6.1104,6.1288,6.138,6.1453,6.2193,6.2664,6.2664,6.2756,6.2793,6.2793,6.2793,6.2793,6.2793,6.2793,6.3166,6.3949,6.3949,6.431,6.5013,6.5013,6.5013,6.5013,6.5129,6.5105,6.5031,6.5129,6.5105,6.4958,6.4255,6.3949,6.3876,6.3092,6.2793,6.2793,6.2793,6.2793,6.2793,6.2793,6.283,6.2886,6.2886,6.2904,6.302,6.3445,6.3561,6.3718,6.4393,6.4589,6.4658,6.4969,6.5054,6.5062,6.5119,6.5127,6.5127,6.5127,6.5127,6.5127,6.5127,6.5127,6.5127,6.5127,6.4538,6.3755,6.2888,6.2751,6.2751,6.2751,6.2846,6.2903,6.2903,6.2808,6.2449,6.1665,6.1516,6.1157,6.0453,6.0396,6.0396,6.0396,6.0396,6.0396,6.0396,6.0406,6.0434,6.0489,6.0505,6.0485,6.0447,5.9733,5.8951,5.071,5.0797,5.0907,0.0,5.1505,5.1615,5.21,5.2467,5.2834,5.3303,5.366,5.4142,5.4955,5.5482,5.6069,0.0,5.796,5.9037,5.9966,6.0664,6.1392,6.2193,6.2303,6.2303,6.2303,6.2591,6.2793,6.2793,6.2793,6.2793,6.2793,6.2793,6.3037,6.3539,6.3558,6.3961,6.4787,6.4806,6.4964,6.5307,6.5307,6.5307,6.5325,6.5772,6.5999,6.598,6.5497,6.5307,6.527,6.4946,6.4806,6.4714,6.3888,6.3558,6.3503,6.2994,6.2793,6.2793,6.2793,6.2793,6.2793,6.2793,6.2793,6.2836,6.3026,6.3092,6.3163,6.352,6.3631,6.3785,6.4464,6.4639,6.4773,6.5283,6.5394,6.5394,6.5394,6.5394,6.5394,6.5394,6.5394,6.5394,6.5394,6.5131,6.4764,6.4416,6.3962,6.366,6.366,6.4076,6.4191,6.3717,6.366,6.3105,6.1726,6.1593,6.1252,6.0453,6.0396,6.0396,6.0396,6.0396,6.0396,6.0396,6.0396,6.041,6.0441,6.0479,6.0515,6.0526,6.0249,5.995,5.1458,5.1458,0.0,5.2197,5.2325,5.2472,5.3073,5.3379,5.3697,5.4289,5.4583,5.4974,5.5781,5.6583,5.7385,5.8198,5.9184,6.0266,6.1435,6.1802,6.2144,6.2738,6.2793,6.2793,6.2793,6.2793,6.2793,6.2793,6.2793,6.2793,6.2793,6.3037,6.3447,6.4084,6.4316,6.4824,6.5625,6.5625,6.5735,6.5955,6.5955,6.5955,6.5974,6.6568,6.6831,6.6794,6.6219,6.5955,6.5944,6.5717,6.5625,6.5552,6.4751,6.4298,6.4023,6.3392,6.3019,6.2793,6.2793,6.2793,6.2793,6.2793,6.2793,6.2793,6.2793,6.2793,6.2824,6.2953,6.2996,6.3163,6.3916,6.4091,6.4264,6.4896,6.5037,6.5037,6.5037,6.5037,6.5037,6.5037,6.5037,6.5037,6.5037,6.5037,6.5037,6.5037,6.4546,6.4257,6.4501,6.5035,6.5188,6.4599,6.4523,6.3931,6.2437,6.2108,6.1612,6.0775,6.0511,6.0396,6.0396,6.0396,6.0396,6.0396,6.0396,6.0396,6.0396,6.0448,6.0472,6.0475,6.0542,6.0604,5.3122,5.3122,5.3122,5.3159,5.3159,5.3177,5.3196,5.3807,5.4363,5.4399,5.5029,5.58,5.6614,5.7422,5.8235,5.9031,6.0487,6.1545,6.1582,6.2267,6.2774,6.2793,6.2793,6.2793,0.0,6.2793,6.2793,6.2793,6.2793,6.2793,6.2793,6.3594,6.4059,6.4103,6.4854,6.5643,6.6457,6.6457,6.6868,6.7627,6.7627,6.7627,6.7627,6.7645,6.7664,6.7664,6.7645,6.7627,6.7572,6.6788,6.6457,6.6384,6.5588,6.4787,6.4103,6.4059,6.3521,6.2793,6.2793,6.2793,6.2793,6.2793,6.2793,6.2793,6.2793,6.2793,6.288,6.3361,6.3479,6.3572,6.3994,6.4091,6.4115,6.4121,6.4131,6.4131,6.4131,6.4131,6.4131,6.4131,6.4131,6.4131,6.4131,6.4131,6.4131,6.4131,6.4113,6.4403,6.5253,6.5375,6.5394,6.5375,6.5356,6.5035,6.4179,6.335,6.2483,6.1612,6.0832,6.0396,6.0396,6.0396,6.0396,6.0396,6.0396,6.0396,6.0396,6.0399,6.0399,6.0399,6.0472,6.0505,5.3196,5.3196,5.3196,5.3196,5.3605,5.4008,5.4008,5.4625,5.5359,5.588,5.6638,5.7446,5.8242,5.9049,5.9869,6.0658,6.1251,6.1802,6.2322,6.2627,6.2793,6.2793,6.2793,0.0,0.0,0.0,0.0,6.2793,6.2793,6.305,6.3631,6.3931,6.4592,6.5656,6.5962,6.6476,6.7297,6.729,6.7425,6.77,6.77,6.77,6.77,6.77,6.77,6.77,6.77,6.77,6.7682,6.7407,6.729,6.7217,6.6402,6.5925,6.5565,6.4482,6.3913,6.3576,6.2994,6.2793,6.2793,6.2793,6.2793,6.2793,6.2793,6.2793,6.283,6.2996,6.3044,6.3146,6.3594,6.3696,6.3771,6.4045,6.4091,6.4091,6.4091,6.4091,6.4091,6.4091,6.4091,6.4091,6.4091,6.4091,6.4091,6.4091,6.4091,6.4215,6.4492,6.4543,6.4543,6.4543,6.4543,6.4208,6.3409,6.3308,6.2701,6.1299,6.1205,6.0966,6.0415,6.0396,6.0396,6.0396,6.0396,6.0396,6.0396,6.0396,6.0396,6.0396,6.042,6.0458,5.3196,5.3416,5.3623,5.3623,5.4234,5.4827,5.4827,5.5451,5.618,5.6682,5.7679,5.8596,5.9098,6.0095,6.1006,6.1526,6.1832,6.2218,6.2738,6.2793,6.2793,6.2793,6.2793,6.2793,0.0,0.0,0.0,6.2793,6.3092,6.3503,6.4059,6.4653,6.5436,6.6476,6.6776,6.718,6.77,6.77,6.77,6.77,6.77,6.77,6.77,6.77,6.77,6.77,6.77,6.77,6.77,6.77,6.77,6.7645,6.7125,6.6758,6.6366,6.5344,6.4592,6.3986,6.3092,6.2793,6.2793,6.2793,6.2793,6.2793,6.2793,6.2793,6.2793,6.2793,6.2793,6.2873,6.3163,6.3251,6.3326,6.3576,6.3647,6.3647,6.3647,6.3647,6.3647,6.3647,6.3647,6.3647,6.3647,6.3647,6.3647,6.3647,6.3647,6.3747,6.4051,6.4091,6.4091,6.4091,6.4091,6.388,6.3368,6.329,6.2756,6.1543,6.141,6.102,6.0212,6.032,6.0324,6.0196,6.032,6.0396,6.0396,6.0396,6.0396,6.0396,6.0396,6.042,5.3251,5.3825,5.4418,5.4454,5.5065,5.5658,5.5658,5.6271,5.6871,5.6871,5.8132,5.9264,0.0,0.0,6.1655,6.1655,6.2303,6.2793,6.2793,6.2793,6.2793,0.0,0.0,0.0,0.0,0.0,0.0,6.2866,6.3631,6.4115,6.4158,6.5656,6.6512,6.6549,6.729,6.77,6.77,6.77,6.77,6.77,6.77,6.77,6.77,6.77,6.77,6.77,6.77,6.77,6.77,6.77,6.77,6.77,6.77,6.7235,6.6549,6.6512,6.551,6.4041,6.3166,6.2848,6.2793,6.2793,6.2793,6.2793,6.2793,6.2793,6.2793,6.2793,6.2793,6.2793,6.2793,6.2793,6.2793,6.2793,6.2793,6.2793,6.2793,6.2793,6.2793,6.2793,6.2793,6.2793,6.2793,6.2793,6.2793,6.2793,6.2793,6.3097,6.3937,6.4026,6.4026,6.4026,6.4026,6.4026,6.4026,6.3366,6.2748,6.2326,6.1494,6.0678,5.9857,6.0152,6.0178,5.9818,6.0162,6.0382,6.0396,6.0396,6.0396,6.0396,6.0396,6.0396,5.3935,5.4234,5.4546,5.5139,5.5904,5.6486,5.6486,5.7116,5.7685,5.7685,5.8963,6.0095,6.0095,6.1398,6.2487,6.2487,6.2664,0.0,6.2793,6.2793,0.0,6.2793,0.0,6.2793,6.2793,6.2793,0.0,0.0,6.3968,6.4353,6.4964,6.5944,6.6776,6.7388,6.759,6.77,6.77,6.77,6.77,6.77,6.77,6.77,6.77,6.77,6.77,6.77,6.77,6.77,6.77,6.77,6.77,6.77,6.77,6.7572,6.7315,6.6721,6.587,6.4873,6.4053,6.3331,6.2793,6.2793,6.2793,6.2793,6.2793,6.2793,6.2793,6.2793,6.2793,6.2793,6.2793,6.2793,6.2793,6.2793,6.2793,6.2793,6.2793,6.2793,6.2793,6.2793,6.2793,6.2793,6.2793,6.2793,6.2793,6.2793,6.2793,6.2874,6.3103,6.3133,6.3133,6.3133,6.3133,6.3133,6.3133,6.3258,6.3035,6.2262,6.1786,6.114,6.0288,5.977,5.9593,5.9791,5.9898,6.0102,6.0396,6.0396,6.0396,6.0396,6.0396,6.0396,5.4289,5.4913,5.5556,5.6014,5.673,5.733,5.733,5.7685,5.8002,5.8002,5.9,5.9985,6.034,6.1422,6.2395,0.0,0.0,0.0,6.2793,6.2793,6.2793,0.0,6.2793,0.0,6.2793,6.2793,6.3166,0.0,6.4427,6.4971,6.5772,6.6586,6.7235,6.77,6.77,6.77,6.77,6.77,6.77,6.77,6.77,6.77,6.77,6.77,6.77,6.77,0.0,6.77,6.77,6.77,6.77,6.77,6.77,6.77,6.7645,6.718,6.6292,6.524,6.4787,6.3827,6.2793,6.2793,6.2793,6.2793,6.2793,6.2793,6.2793,6.2793,6.2793,6.2793,6.2793,6.2793,6.2793,6.2793,6.2793,6.2793,6.2793,6.2793,6.2793,6.2793,6.2793,6.2793,6.2793,6.2793,6.2793,6.2793,6.2793,6.2793,6.2793,6.2793,6.2793,6.2793,6.2793,6.2793,6.2793,6.3032,6.2911,6.2235,6.1698,6.1027,6.0162,5.952,5.9215,5.9274,5.9454,5.9733,6.0136,6.0136,6.0226,6.0396,6.0396,6.0396,5.4528,5.566,5.6835,5.6926,5.7477,5.8002,5.8002,5.8002,5.8002,5.8002,5.8651,5.9453,6.0248,6.1062,6.1851,6.2664,0.0,6.2793,6.2793,6.2793,6.2793,6.2793,6.2793,6.2793,6.2793,6.2793,6.3203,6.4188,6.4909,6.5643,6.6457,6.7253,6.77,6.77,6.77,6.77,6.77,6.77,6.77,6.77,6.77,6.77,6.77,6.77,6.77,6.77,6.77,6.77,6.77,6.77,6.77,6.77,6.77,6.77,6.77,6.77,6.6678,6.5307,6.5307,6.4206,6.2793,6.2793,6.2793,6.2793,6.2793,6.2793,6.2793,6.2793,6.2793,6.2793,6.2793,6.2793,6.2793,6.2793,6.2793,6.2793,6.2793,6.2793,6.2793,6.2793,6.2793,6.2793,6.2793,6.2793,6.2793,6.2793,6.2793,6.2793,6.2793,6.2793,6.2793,6.2793,6.2793,6.2793,6.2793,6.2793,6.264,6.2295,6.1413,6.0609,5.9904,5.9336,5.8891,5.8607,5.8935,5.9329,5.9721,5.977,5.9988,6.032,6.0378,6.0396,5.5212,5.6088,5.6963,5.7629,5.7905,5.8002,5.8002,5.8002,0.0,5.8002,5.8651,5.9453,6.0248,6.1062,6.1851,6.2664,6.2793,6.2793,6.2793,6.2793,6.2793,0.0,6.2793,6.2793,6.2793,6.2793,0.0,0.0,6.5215,6.5643,6.6457,6.7253,6.77,6.77,6.77,6.77,6.77,6.77,6.77,6.77,6.77,6.77,6.77,6.77,6.77,6.77,6.77,0.0,6.77,6.77,6.77,6.77,6.77,6.77,6.77,6.77,6.6678,6.5307,6.5307,6.4206,6.2793,6.2793,6.2793,6.2793,6.2793,6.2793,6.2793,6.2793,6.2793,6.2793,6.2793,6.2793,6.2793,6.2793,6.2793,6.2793,6.2793,6.2793,6.2793,6.2793,6.2793,6.2793,6.2793,6.2793,6.2793,6.2793,6.2793,6.2793,6.2793,6.2793,6.2793,6.2793,6.2793,6.2793,6.2793,6.2793,6.2769,6.2696,6.1311,6.0434,6.0299,5.8956,5.8326,5.8592,5.8674,5.8896,5.9293,5.9646,5.9846,5.991,6.0259,6.0396,5.6014,5.6804,5.7519,5.7905,5.8002,5.8002,5.8002,5.8002,5.8002,5.8002,5.8309,5.8817,5.9636,6.0432,6.1245,6.2034,6.2536,6.2793,6.2793,6.2793,6.2793,6.2793,6.2793,6.2793,6.2793,6.3203,6.3973,6.5215,6.5698,6.6274,6.707,6.7499,6.77,6.77,6.77,6.77,6.77,6.77,6.77,6.77,6.77,6.77,6.77,6.77,6.77,6.77,6.77,6.77,6.77,6.77,6.77,6.77,6.77,6.77,6.77,6.77,6.6678,6.5307,6.5307,6.4206,6.2793,6.2793,6.2793,6.2793,6.2793,6.2793,6.2793,6.2793,6.2793,6.2793,6.2793,6.2793,6.2793,6.2793,6.2793,6.2793,6.2793,6.2793,6.2793,6.2793,6.2793,6.2793,6.2793,6.2793,6.2793,6.2793,6.2793,6.2793,6.2793,6.2793,6.2793,6.2793,6.2793,6.2793,6.2793,6.2793,6.2793,6.2793,6.1294,6.0395,6.0395,5.8859,5.8092,5.829,5.8295,5.8479,5.8881,5.9084,5.9283,5.9494,5.9692,5.989,5.6578,5.7385,5.8002,5.8002,5.8002,5.8002,5.8002,5.8002,5.8002,5.8002,5.8002,5.8253,5.9043,5.9857,6.0652,6.1471,6.2285,6.2793,6.2793,6.2793,6.2793,6.2793,6.2793,6.2793,6.2793,6.3594,0.0,6.524,6.6219,6.7033,6.7664,6.77,6.77,6.77,6.77,6.77,6.77,6.77,6.77,6.77,6.77,6.77,6.77,6.77,6.77,6.77,6.77,6.77,6.77,6.77,6.77,6.77,6.77,6.77,6.77,6.77,6.6678,6.5307,6.5307,6.4206,6.2793,6.2793,6.2793,6.2793,6.2793,6.2793,6.2793,6.2793,6.2793,6.2793,6.2793,6.2793,6.2793,6.2793,6.2793,6.2793,6.2793,6.2793,6.2793,6.2793,6.2793,6.2793,6.2793,6.2793,6.2793,6.2793,6.2793,6.2793,6.2793,6.2793,6.2793,6.2793,6.2793,6.2793,6.2793,6.2793,6.2793,6.2793,6.1294,6.0395,6.0395,5.8859,5.8002,5.8002,5.8002,5.8153,5.8469,5.8569,5.8752,5.9065,5.915,5.9374,5.6578,5.7385,5.8002,5.8002,5.8002,5.8002,5.8002,5.8002,5.8002,5.8002,5.8002,5.8253,5.9043,5.9857,6.0652,6.1471,6.2285,6.2793,6.2793,6.2793,6.2793,6.2793,6.2793,6.2793,6.2793,6.3594,6.4427,6.524,6.6721,6.7627,6.77,6.77,6.77,6.77,6.77,6.77,6.77,6.77,6.77,6.77,6.77,6.77,6.77,6.77,6.77,6.77,6.77,6.77,0.0,6.77,6.77,6.77,6.77,6.77,6.77,6.77,6.6678,6.5307,6.5307,6.4206,6.2793,6.2793,6.2793,6.2793,6.2793,6.2793,6.2793,6.2793,6.2793,6.2793,6.2793,6.2793,6.2793,6.2793,6.2793,6.2793,6.2793,6.2793,6.2793,6.2793,6.2793,6.2793,6.2793,6.2793,6.2793,6.2793,6.2793,6.2793,6.2793,6.2793,6.2793,6.2793,6.2793,6.2793,6.2793,6.2793,6.2793,6.2793,6.1294,6.0395,6.0395,5.8859,5.8002,5.8002,5.8002,5.802,5.8053,5.8415,5.8618,5.8664,5.9022,5.9229,5.7299,5.7758,5.8002,5.8002,5.8002,5.8002,5.8002,5.8002,5.8002,5.8002,5.8002,5.8253,5.9043,5.9857,6.0652,6.1471,6.2285,6.2793,6.2793,6.2793,6.2793,6.2793,6.2793,6.2793,6.2793,6.4028,6.5356,6.6641,6.7345,6.77,6.77,6.77,6.77,6.77,6.77,6.77,6.77,6.77,6.77,6.77,6.77,6.77,6.77,6.77,6.77,6.77,6.77,6.77,0.0,6.77,6.77,6.77,6.77,6.77,6.7645,6.7161,6.6274,6.524,6.4751,6.3808,6.2793,6.2793,6.2793,6.2793,6.2793,6.2793,6.2793,6.2793,6.2793,6.2793,6.2793,6.2793,6.2793,6.2793,6.2793,6.2793,6.2793,6.2793,6.2793,6.2793,6.2793,6.2793,6.2793,6.2793,6.2793,6.2793,6.2793,6.2793,6.2793,6.2793,6.2793,6.2793,6.2793,6.2793,6.2793,6.2793,6.2793,6.2793,6.1294,6.0395,6.0395,5.8859,5.8002,5.8002,5.8002,5.8002,5.8002,5.8159,5.8235,5.824,5.8402,5.8615,5.7776,5.8002,5.8002,5.8002,5.8002,5.8002,5.8002,5.8002,5.8002,5.8002,5.8002,5.8253,5.9043,5.9857,6.0652,6.1471,6.2285,6.2793,6.2793,6.2793,6.2793,6.2793,6.2793,6.2793,6.2793,6.4316,6.598,6.759,6.77,6.77,6.77,6.77,6.77,6.77,6.77,6.77,6.77,6.77,6.77,6.77,6.77,6.77,6.77,6.77,6.77,6.77,6.77,6.77,0.0,6.77,6.77,6.77,6.77,6.7554,6.7272,6.6721,6.5833,6.4854,6.4298,6.3521,6.2793,6.2793,6.2793,6.2793,6.2793,6.2793,6.2793,6.2793,6.2793,6.2793,6.2793,6.2793,6.2793,6.2793,6.2793,6.2793,6.2793,6.2793,6.2793,6.2793,6.2793,6.2793,6.2793,6.2793,6.2793,6.2793,6.2793,6.2793,6.2793,6.2793,6.2793,6.2793,6.2793,6.2793,6.2793,6.2793,6.2793,6.2793,6.1294,6.0395,6.0395,5.8859,5.8002,5.8002,5.8002,5.8002,5.8002,5.8002,5.8002,5.8002,5.8002,5.8225,5.7776,5.8002,5.8002,5.8002,5.8002,5.8002,5.8002,5.8002,5.8002,5.8002,5.8002,5.8253,5.9043,5.9857,6.0652,6.1471,6.2285,6.2793,6.2793,6.2793,6.2793,6.2793,6.2793,6.2793,6.2793,6.4316,6.598,6.759,6.77,0.0,6.77,6.77,6.77,6.77,6.77,6.77,6.77,6.77,6.77,6.77,6.77,6.77,6.77,6.77,6.77,6.77,6.77,6.77,0.0,6.77,6.77,6.77,6.77,6.7217,6.6512,6.6494,6.5491,6.4103,6.4103,6.3521,6.2793,6.2793,6.2793,6.2793,6.2793,6.2793,6.2793,6.2793,6.2793,6.2793,6.2793,6.2793,6.2793,6.2793,6.2793,6.2793,6.2793,6.2793,6.2793,6.2793,6.2793,6.2793,6.2793,6.2793,6.2793,6.2793,6.2793,6.2793,6.2793,6.2793,6.2793,6.2793,6.2793,6.2793,6.2793,6.2793,6.2793,6.2793,6.1294,6.0395,6.0395,5.8859,5.8002,5.8002,5.8002,5.8002,5.8002,5.8002,5.8002,5.8002,5.8002,5.8225,5.7923,5.8002,5.8002,5.8002,5.8002,5.8002,5.8002,5.8002,5.8002,5.8002,5.8002,5.8419,5.9771,6.023,6.0835,6.2193,6.2627,6.2793,6.2793,6.2793,6.2793,6.2793,6.2793,6.3251,6.4407,6.4995,6.598,6.759,6.77,6.77,6.77,6.77,6.77,6.77,6.77,6.77,6.77,6.77,6.77,6.77,6.77,6.77,6.77,6.77,6.77,6.77,6.77,6.77,6.77,6.77,6.77,6.7645,6.7088,6.6721,6.6366,6.5271,6.4543,6.4004,6.3429,6.3037,6.2793,6.2793,6.2793,6.2793,6.2793,6.2793,6.2793,6.2793,6.2793,6.2793,6.2793,6.2793,6.2793,6.2793,6.2793,6.2793,6.2793,6.2793,6.2793,6.2793,6.2793,6.2793,6.2793,6.2793,6.2793,6.2793,6.2793,6.2793,6.2793,6.2793,6.2793,6.2793,6.2793,6.2793,6.2793,6.2793,6.2793,6.2793,6.1808,6.097,6.0413,5.9385,5.856,5.8002,5.8002,5.8002,5.8002,5.8002,5.8002,5.8002,5.8002,5.8064,5.8002,5.8002,5.8002,5.8002,5.8002,5.8002,5.8002,5.8002,5.8002,5.8002,5.8002,5.8492,6.0101,6.0395,6.0927,6.2536,6.2793,6.2793,6.2793,6.2793,6.2793,6.2793,6.2793,6.3453,0.0,6.5307,6.598,6.759,6.77,6.77,6.77,6.77,6.77,6.77,6.77,6.77,6.77,6.77,6.77,6.77,6.77,6.77,6.77,6.77,6.77,6.77,6.77,6.77,0.0,6.77,6.7517,6.7198,6.6696,6.6127,6.5473,6.4463,6.3894,6.3539,6.2994,6.2793,6.2793,6.2793,6.2793,6.2793,6.2793,6.2793,6.2793,6.2793,6.2793,6.2793,6.2793,6.2793,6.2793,6.2793,6.2793,6.2793,6.2793,6.2793,6.2793,6.2793,6.2793,6.2793,6.2793,6.2793,6.2793,6.2793,6.2793,6.2793,6.2793,6.2793,6.2793,6.2793,6.2793,6.2793,6.2793,6.2793,6.2793,6.2793,6.2034,6.1251,6.0432,5.9636,5.8811,5.8015,5.8002,5.8002,5.8002,5.8002,5.8002,5.8002,5.8002,5.8002,0.0,5.8002,5.8002,5.8002,5.8002,5.8002,5.8002,5.8002,0.0,5.8002,5.8002,5.8492,6.0101,6.0395,6.0927,6.2536,6.2793,6.2793,6.2793,6.2793,0.0,0.0,6.2793,6.3435,6.5056,6.527,6.5944,6.7499,6.7664,6.77,6.77,6.77,6.77,6.77,6.77,6.77,6.77,6.77,6.77,6.77,6.77,6.77,6.77,6.77,6.77,0.0,6.77,6.7664,6.7609,6.7609,6.7143,6.6402,6.6347,6.5418,6.4096,6.4023,6.3503,6.2793,6.2793,6.2793,6.2793,6.2793,6.2793,6.2793,6.2793,6.2793,6.2793,6.2793,6.2793,6.2793,6.2793,6.2793,6.2793,6.2793,6.2793,6.2793,6.2793,6.2793,6.2793,6.2793,6.2793,6.2793,6.2793,6.2793,6.2793,6.2793,6.2793,6.2793,6.2793,6.2793,6.2793,6.2793,6.2793,6.2793,6.2793,6.2793,6.2793,6.2793,6.2108,6.1318,6.0523,5.971,5.8902,5.8107,5.8039,5.8002,5.8002,5.8002,5.8002,5.8002,5.8002,5.8002,5.8002,0.0,5.8002,5.8002,5.8002,5.8002,0.0,5.8002,0.0,0.0,0.0,5.8492,6.0101,6.0395,6.0927,6.2536,6.2793,6.2793,6.2793,6.2793,0.0,6.2793,6.2793,6.3215,6.428,6.4946,6.5717,6.6721,6.7352,6.77,6.77,6.77,6.77,6.77,6.77,6.77,6.77,6.77,6.77,6.77,6.77,6.77,6.77,6.77,6.77,6.77,6.77,6.7352,6.6776,6.6776,6.6311,6.5515,6.4904,6.4433,6.4023,6.3349,6.2982,6.2793,6.2793,6.2793,6.2793,6.2793,6.2793,6.2793,6.2793,6.2793,6.2793,6.2793,6.2793,6.2793,6.2793,6.2793,6.2793,6.2793,6.2793,6.2793,6.2793,6.2793,6.2793,6.2793,6.2793,6.2793,6.2793,6.2793,6.2793,6.2793,6.2793,6.2793,6.2793,6.2793,6.2793,6.2793,6.2793,6.2793,6.2793,6.2793,6.2793,6.2793,6.2627,6.2157,6.1361,6.0542,5.9734,5.8939,5.8309,5.8002,5.8002,5.8002,5.8002,5.8002,5.8002,5.8002,5.8002,5.8002,5.8002,5.8002,5.8002,5.8002,5.8002,0.0,0.0,0.0,0.0,5.8492,6.0101,6.0395,6.0927,6.2536,6.2793,0.0,0.0,6.2793,6.2793,6.2793,6.2793,6.3148,0.0,6.4824,6.5625,6.6439,6.7253,6.77,6.77,6.77,6.77,6.77,6.77,6.77,6.77,6.77,6.77,6.77,6.77,6.77,6.77,6.7315,6.7143,6.7125,6.6751,6.6347,6.5955,6.5955,6.5485,6.4714,6.4261,6.3858,6.3447,6.2976,6.2793,6.2793,6.2793,6.2793,6.2793,6.2793,6.2793,6.2793,6.2793,6.2793,6.2793,6.2793,6.2793,6.2793,6.2793,6.2793,6.2793,6.2793,6.2793,6.2793,6.2793,6.2793,6.2793,6.2793,6.2793,6.2793,6.2793,6.2793,6.2793,6.2793,6.2793,6.2793,6.2793,6.2793,6.2793,6.2793,6.2793,6.2793,6.2793,6.2793,6.2793,6.2793,6.2793,6.245,6.1637,6.0823,5.9844,5.867,5.8217,5.8002,5.8002,5.8002,5.8002,5.8002,5.8002,5.8002,5.8002,5.8002,5.8002,5.8002,5.8002,5.8002,5.8002,0.0,0.0,0.0,0.0,0.0,6.0101,6.0395,0.0,0.0,0.0,0.0,6.2793,6.2793,6.2793,6.2793,6.2793,0.0,6.3839,6.464,6.5441,6.6256,6.707,6.7572,6.77,6.77,6.77,6.77,6.759,6.7517,6.7517,6.7645,6.7645,6.7517,6.7517,6.7455,6.7308,6.6629,6.6329,6.6274,0.0,0.0,6.5111,6.5111,6.464,6.3894,6.3894,6.3447,6.2793,6.2793,6.2793,6.2793,6.2793,6.2793,6.2793,6.2793,6.2793,6.2793,6.2793,6.2793,6.2793,6.2793,6.2793,6.2793,6.2793,6.2793,6.2793,6.2793,6.2793,6.2793,6.2793,6.2793,6.2793,6.2793,6.2793,6.2793,6.2793,6.2793,6.2793,6.2793,6.2793,6.2793,6.2793,6.2793,6.2793,6.2793,6.2793,6.2793,6.2793,6.2793,6.2793,6.2793,6.2793,6.2377,6.1453,6.0768,5.9642,5.8039,5.8002,5.8002,5.8002,5.8002,5.8002,5.8002,5.8002,5.8002,5.8002,5.8002,5.8002,5.8002,5.8002,5.8002,5.8002,5.8002,0.0,0.0,0.0,0.0,0.0,6.0395,6.0927,0.0,0.0,6.2793,0.0,0.0,6.2793,6.2793,0.0,6.2848,6.2994,6.3778,6.4622,6.5423,6.6237,6.6978,6.7664,6.77,6.77,6.77,6.7033,6.6678,6.6678,6.7363,6.7363,6.6678,6.6678,6.6329,6.5662,6.5533,6.5478,6.5478,0.0,6.4909,6.428,6.428,6.3778,6.2994,6.2994,6.2921,6.2793,6.2793,6.2793,6.2793,6.2793,6.2793,6.2793,6.2793,6.2793,6.2793,6.2793,6.2793,6.2793,6.2793,6.2793,6.2793,6.2793,6.2793,6.2793,6.2793,6.2793,6.2793,6.2793,6.2793,6.2793,6.2793,6.2793,6.2793,6.2793,6.2793,6.2793,6.2793,6.2793,6.2793,6.2793,6.2793,6.2793,6.2793,6.2793,6.2793,6.2793,6.2793,6.2793,6.2793,6.2793,6.2132,6.0658,6.0468,5.9642,5.8039,5.8002,5.8002,5.8002,5.8002,5.8002,5.8002,5.8002,5.8002,5.8002,5.8002,5.8002,5.8002,5.8002,5.8002,5.8002,0.0,0.0,0.0,0.0,0.0,0.0,0.0,6.1422,6.2609,0.0,6.2793,6.2793,6.2793,6.2793,0.0,0.0,6.2793,6.2793,6.3594,6.4243,6.4622,6.5393,6.601,6.6384,6.6402,6.6402,6.6402,6.5969,6.5747,6.5747,6.6113,6.6153,6.5845,6.5845,6.5662,6.5295,6.4861,6.4659,6.4622,0.0,6.3728,6.3392,6.3392,6.3166,6.2793,6.2793,6.2793,6.2793,6.2793,6.2793,6.2793,6.2793,6.2793,6.2793,6.2793,6.2793,6.2793,6.2793,6.2793,6.2793,6.2793,6.2793,6.2793,6.2793,6.2793,6.2793,6.2793,6.2793,6.2793,6.2793,6.2793,6.2793,6.2793,6.2793,6.2793,6.2793,6.2793,6.2793,6.2793,6.2793,6.2793,6.2793,6.2793,6.2793,6.2793,6.2793,6.2793,6.2793,6.2793,6.2793,6.2793,6.2793,6.2267,6.1098,6.0633,5.9844,5.867,5.8217,5.8002,5.8002,5.8002,5.8002,5.8002,5.8002,5.8002,5.8002,5.8002,5.8002,5.8002,5.8002,5.8002,5.8002,0.0,0.0,0.0,0.0,0.0,0.0,6.1337,0.0,6.2701,6.2793,6.2793,6.2793,6.2793,6.2793,6.2793,6.2768,6.278,6.2805,6.3379,6.3844,6.4078,6.4677,6.5093,6.5288,6.5262,6.5249,6.5249,6.4923,6.4741,6.4741,6.4558,6.4624,6.4949,6.5,6.4909,6.4683,6.4071,6.3802,6.3766,6.3092,6.2793,6.2793,6.2793,6.2793,6.2793,6.2793,6.2793,6.2793,6.2793,6.2793,6.2793,6.2793,6.2793,6.2793,6.2793,6.2793,6.2793,6.2793,6.2793,6.2793,6.2793,6.2793,6.2793,6.2793,6.2793,6.2793,6.2793,6.2793,6.2793,6.2793,6.2793,6.2793,6.2793,6.2793,6.2793,6.2793,6.2793,6.2793,6.2793,6.2793,6.2793,6.2793,6.2793,6.2793,6.2793,6.2793,6.2793,6.2793,6.2793,6.2793,6.2793,6.2793,6.245,6.1637,6.0823,6.0028,5.9227,5.8413,5.8002,5.8002,5.8002,5.8002,5.8002,5.8002,5.8047,5.8002,5.8002,5.8002,5.8002,5.8002,0.0,5.8002,5.7891,0.0,5.8934,0.0,0.0,0.0,6.2175,6.2738,6.2793,6.2793,6.2793,6.2793,0.0,6.2793,6.2793,6.2692,6.2667,6.2798,6.2741,6.3094,6.4035,6.4151,6.4512,6.5258,6.5184,6.5118,6.5118,6.4211,6.3711,6.3711,6.2968,6.3034,6.3902,6.4106,6.3759,6.2976,6.2921,6.2884,6.2884,6.2829,6.2793,6.2793,6.2793,6.2793,6.2793,6.2793,6.2793,6.2793,6.2793,6.2793,6.2793,6.2793,6.2793,6.2793,6.2793,6.2793,6.2793,6.2793,6.2793,6.2793,6.2793,6.2793,6.2793,6.2793,6.2793,6.2793,6.2793,6.2793,6.2793,6.2793,6.2793,6.2793,6.2793,6.2793,6.2793,6.2793,6.2793,6.2793,6.2793,6.2793,6.2793,6.2793,6.2793,6.2793,6.2793,6.2793,6.2793,6.2793,6.2793,6.2793,6.2793,6.2793,6.245,6.1637,6.0823,6.0028,5.9227,5.8413,5.8002,5.8002,5.8002,5.8002,5.8002,5.8002,5.8209,5.8002,5.8002,5.8002,5.8002,5.8002,0.0,0.0,5.791,5.8135,5.8919,5.9504,0.0,0.0,0.0,6.2793,6.2793,6.2793,6.2793,6.2793,6.2793,6.2793,6.2793,6.2679,6.2622,6.2673,6.2552,6.2634,6.3003,6.3111,6.3264,6.3484,6.3535,6.3504,6.3424,6.2975,6.2727,6.2727,6.2429,6.2495,6.2936,6.3092,6.3035,6.2793,6.2793,6.2793,6.2793,6.2793,6.2793,6.2793,6.2793,6.2793,6.2793,6.2793,6.2793,6.2793,6.2793,6.2793,6.2793,6.2793,6.2793,6.2793,6.2793,6.2793,6.2793,6.2793,6.2793,6.2793,6.2793,6.2793,6.2793,6.2793,6.2793,6.2793,6.2793,6.2793,6.2793,6.2793,6.2793,6.2793,6.2793,6.2793,6.2793,6.2793,6.2793,6.2793,6.2793,6.2793,6.2793,6.2793,6.2793,6.2793,6.2793,6.2793,6.2793,6.2793,6.2793,6.2793,6.2793,6.2793,6.2664,6.2358,6.1092,6.0266,5.9948,5.8651,5.8002,5.8002,5.8002,5.8002,5.8002,5.8002,5.8081,5.8002,5.8002,5.7991,5.795,0.0,0.0,5.7774,5.8034,5.8526,5.9297,6.0353,0.0,0.0,0.0,0.0,0.0,6.2793,6.2793,6.2793,6.2793,6.2774,6.2736,6.2616,6.2533,6.2533,6.2428,6.2356,6.2395,6.2499,6.2506,6.2402,6.246,6.2429,6.2343,6.2203,6.2148,6.2148,6.2148,6.2203,6.2343,6.2423,6.259,6.2793,6.2793,6.2793,6.2793,6.2793,6.2793,6.2793,6.2793,6.2793,6.2793,6.2793,6.2793,6.2793,6.2793,6.2793,6.2793,6.2793,6.2793,6.2793,6.2793,6.2793,6.2793,6.2793,6.2793,6.2793,6.2793,6.2793,6.2793,6.2793,6.2793,6.2793,6.2793,6.2793,6.2793,6.2793,6.2793,6.2793,6.2793,6.2793,6.2793,6.2793,6.2793,6.2793,6.2793,6.2793,6.2793,6.2793,6.2793,6.2793,6.2793,6.2793,6.2793,6.2793,6.2793,6.2793,6.2793,6.2793,6.2793,6.2793,6.1257,6.0395,6.0395,5.8822,5.8002,5.8002,5.8002,5.8002,5.8002,5.8002,5.8064,5.8002,5.8002,5.7968,0.0,0.0,0.0,5.7661,5.8336,5.9261,6.0224,0.0,6.2749,6.2629,6.2705,0.0,6.2793,6.2793,6.2793,6.2793,6.2793,6.2743,6.2616,6.2468,6.2402,6.2402,6.2277,6.2257,6.2382,6.2395,6.2395,6.2395,6.2277,6.2203,6.2203,6.2073,6.2003,6.2003,6.2003,6.2067,6.2203,6.2203,6.2403,6.2793,6.2793,6.2793,6.2793,6.2793,6.2793,6.2793,6.2793,6.2793,6.2793,6.2793,6.2793,6.2793,6.2793,6.2793,6.2793,6.2793,6.2793,6.2793,6.2793,6.2793,6.2793,6.2793,6.2793,6.2793,6.2793,6.2793,6.2793,6.2793,6.2793,6.2793,6.2793,6.2793,6.2793,6.2793,6.2793,6.2793,6.2793,6.2793,6.2793,6.2793,6.2793,6.2793,6.2793,6.2793,6.2793,6.2793,6.2793,6.2793,6.2793,6.2793,6.2793,6.2793,6.2793,6.2793,6.2793,6.2793,6.2793,6.2793,6.1257,6.0413,6.0395,5.8822,5.8002,5.8002,5.8002,5.8002,5.8002,5.8002,5.8225,5.8002,5.7939,0.0,5.7804,0.0,0.0,0.0,5.8865,0.0,0.0,6.1997,6.2679,6.273,6.2698,0.0,6.2774,6.2717,6.266,6.266,6.266,6.261,6.248,6.2343,6.2263,6.2263,6.2148,6.2073,6.2114,6.2203,6.221,6.2121,6.2163,6.2156,6.206,6.2012,6.2003,6.2003,6.2003,6.2067,6.2203,6.2203,6.2357,6.266,6.266,6.2711,6.2793,6.2793,6.2793,6.2793,6.2793,6.2793,6.2793,6.2793,6.2793,6.2793,6.2793,6.2793,6.2793,6.2793,6.2793,6.2793,6.2793,6.2793,6.2793,6.2793,6.2793,6.2793,6.2793,6.2793,6.2793,6.2793,6.2793,6.2793,6.2793,6.2793,6.2793,6.2793,6.2793,6.2793,6.2793,6.2793,6.2793,6.2793,6.2793,6.2793,6.2793,6.2793,6.2793,6.2793,6.2793,6.2793,6.2793,6.2793,6.2793,6.2793,6.2793,6.2793,6.2793,6.2793,6.2793,6.2793,6.1796,6.097,6.0413,5.9385,5.8578,5.8002,5.8002,5.8002,5.8002,5.8002,5.8225,5.8002,5.7891,0.0,5.7798,5.7756,5.8025,5.9201,0.0,0.0,0.0,6.2275,6.261,6.2647,6.259,0.0,6.2698,6.2603,6.2539,6.2597,6.2552,6.2462,6.2343,6.225,6.2183,6.2134,6.2046,6.2003,6.2003,6.2073,6.2094,6.1992,6.208,6.2087,6.1992,6.2003,6.2003,6.2003,6.2003,6.2033,6.2128,6.2128,6.2237,6.2442,6.2558,6.2673,6.2793,6.2793,6.2793,6.2793,6.2793,6.2793,6.2786,6.2736,6.2717,6.2717,6.2717,6.2717,6.2724,6.2774,6.2793,6.2793,6.2793,6.2793,6.2793,6.2793,6.2793,6.2793,6.2793,6.2793,6.2793,6.2793,6.2793,6.2793,6.2793,6.2793,6.2793,6.2793,6.2793,6.2793,6.2793,6.2793,6.2793,6.2793,6.2793,6.2793,6.2793,6.2793,6.2793,6.2793,6.2793,6.2793,6.2793,6.2793,6.2793,6.2793,6.2793,6.2793,6.2793,6.2793,6.2793,6.2793,6.2034,6.138,6.0896,6.0095,5.9441,5.8951,5.8951,5.8951,5.8957,5.9146,5.9355,5.7985,5.7874,5.7774,5.7774,5.7801,0.0,5.9816,6.0964,6.1807,6.2327,0.0,6.2539,6.2428,6.2402,6.2447,6.2565,6.2468,6.2447,6.2552,6.2455,6.2336,6.2203,6.2183,6.2123,6.2005,6.2003,6.2003,6.2003,6.2003,6.2003,6.2003,6.2003,6.2003,6.2003,6.2003,6.2003,6.2003,6.2003,6.2003,6.2003,6.2003,6.2073,6.221,6.2468,6.266,6.2793,6.2798,6.2774,6.2774,6.278,6.2755,6.2743,6.2641,6.2603,6.2603,6.2616,6.2622,6.2641,6.2749,6.2793,6.2793,6.2793,6.2793,6.2793,6.2793,6.2793,6.2793,6.2793,6.2793,6.2793,6.2793,6.2793,6.2793,6.2793,6.2793,6.2793,6.2793,6.2793,6.2793,6.2793,6.2793,6.2793,6.2793,6.2793,6.2793,6.2793,6.2793,6.2793,6.2793,6.2793,6.2793,6.2793,6.2793,6.2793,6.2793,6.2793,6.2793,6.2793,6.2793,6.2793,6.2793,6.2108,6.1673,6.16,6.0878,6.0468,6.0395,6.0395,6.0419,6.0478,6.0907,6.1135,5.7862,5.7745,0.0,5.7649,5.858,5.9589,5.9961,6.1184,6.2287,6.2509,6.2506,6.2434,6.2408,6.2402,6.2408,6.2441,6.2421,6.2376,6.2303,6.2263,6.219,6.206,6.2039,6.2026,6.1992,6.2003,6.2003,6.2003,6.2003,6.2003,6.2003,6.2003,6.2003,6.2003,6.2003,6.2003,6.2003,6.2003,6.2003,6.2003,6.2003,6.2073,6.221,6.2376,6.2565,6.2786,6.2686,6.2648,6.2635,6.2538,6.2493,6.2499,6.2571,6.2603,6.2616,6.2717,6.2749,6.2755,6.2798,6.2793,6.2793,6.2793,6.2793,6.2793,6.2793,6.2793,6.2793,6.2793,6.2793,6.2793,6.2793,6.2793,6.2793,6.2793,6.2793,6.2793,6.2793,6.2793,6.2793,6.2793,6.2793,6.2793,6.2793,6.2793,6.2793,6.2793,6.2793,6.2793,6.2793,6.2793,6.2793,6.2793,6.2793,6.2793,6.2793,6.2793,6.2793,6.2793,6.2793,6.2793,6.2793,6.2627,6.223,6.1618,6.1435,6.1025,6.0395,6.0395,6.0589,6.0957,6.1043,6.1436,5.7845,5.7703,5.7662,5.7916,0.0,6.0004,6.0393,6.1424,6.2329,6.239,6.2344,6.2303,6.2303,6.2243,6.2223,6.2296,6.2243,6.2215,6.2203,6.2136,6.208,6.2017,6.2003,6.2003,6.2003,6.2003,6.2003,6.2003,6.2003,6.2003,6.2003,6.2003,6.2003,6.2003,6.2003,6.2003,6.2003,6.2003,6.2003,6.2003,6.2003,6.2073,6.221,6.2343,6.248,6.259,6.2526,6.2494,6.2494,6.2434,6.2402,6.2402,6.2415,6.2442,6.2507,6.2571,6.2641,6.2711,6.2786,6.2793,6.2793,6.2793,6.2793,6.2793,6.2793,6.2793,6.2793,6.2793,6.2793,6.2793,6.2793,6.2793,6.2793,6.2793,6.2793,6.2793,6.2793,6.2793,6.2793,6.2793,6.2793,6.2793,6.2793,6.2793,6.2793,6.2793,6.2793,6.2793,6.2793,6.2793,6.2793,6.2793,6.2793,6.2793,6.2793,6.2793,6.2793,6.2793,6.2793,6.2793,6.2793,6.2793,6.2591,6.2181,6.2175,6.1973,6.1551,6.1773,6.201,6.2268,6.2681,6.3107,5.7845,5.7788,5.7905,5.8309,5.9205,6.0173,6.0847,6.1609,6.217,6.2203,6.2203,6.2197,6.217,6.21,6.206,6.2143,6.21,6.2067,6.215,6.2073,6.2003,6.2003,6.2003,6.2003,6.2003,6.2003,6.2003,6.2003,6.2003,6.2003,6.2003,6.2003,6.2003,6.2003,6.2003,6.2003,6.2003,6.2003,6.2003,6.2003,6.2003,6.2053,6.217,6.2277,6.2356,6.2402,6.2376,6.2362,6.2362,6.2336,6.2323,6.2323,6.2257,6.2303,6.2408,6.2454,6.2533,6.2654,6.2755,6.2793,6.2793,6.2793,6.2793,6.2793,6.2793,6.2793,6.2793,6.2793,6.2793,6.2793,6.2793,6.2793,6.2793,6.2793,6.2793,6.2793,6.2793,6.2793,6.2793,6.2793,6.2793,6.2793,6.2793,6.2793,6.2793,6.2793,6.2793,6.2793,6.2793,6.2793,6.2793,6.2793,6.2793,6.2793,6.2793,6.2793,6.2793,6.2793,6.2793,6.2793,6.2793,6.2793,6.2793,6.2793,6.2793,6.2836,6.2917,6.3315,6.3585,6.3747,6.4469,6.4842,5.7845,5.8208,5.8609,5.8429,5.9634,6.0875,6.0974,6.1522,6.206,6.2177,6.2203,6.2163,6.2046,6.2114,6.2136,6.2039,6.2114,6.2136,6.2033,6.2017,6.2003,6.2003,6.2003,6.2003,6.2003,6.2003,6.2003,6.2003,6.2003,6.2003,6.2003,6.2003,6.2003,6.2003,6.2003,6.2003,6.2003,6.2003,6.2003,6.2003,6.2003,6.2017,6.2037,6.2057,6.2188,6.2389,6.2277,6.223,6.2223,6.21,6.2046,6.2073,6.2283,6.2382,6.2428,6.2654,6.2749,6.2786,6.2786,6.2793,6.2793,6.2793,6.2793,6.2793,6.2793,6.2793,6.2793,6.2793,6.2793,6.2793,6.2793,6.2793,6.2793,6.2793,6.2793,6.2793,6.2793,6.2793,6.2793,6.2793,6.2793,6.2793,6.2793,6.2793,6.2793,6.2793,6.2793,6.2793,6.2793,6.2793,6.2793,6.2793,6.2793,6.2793,6.2793,6.2793,6.2793,6.2793,6.2793,6.2793,6.2793,6.2793,6.2793,6.2793,6.2793,6.3008,6.3418,6.3468,6.3896,6.4636,6.4758,6.4993,5.8969,5.9181,5.9413,5.9679,6.0318,6.1017,6.1459,6.1786,6.2023,6.208,6.2094,6.2073,6.2017,6.2046,6.2073,6.2017,6.2046,6.2067,6.2017,6.2003,6.2003,6.2003,6.2003,6.2003,6.2003,6.2003,6.2003,6.2003,6.2003,6.2003,6.2003,6.2003,6.2003,6.2003,6.2003,6.2003,6.2003,6.2003,6.2003,6.2003,6.2003,6.2003,6.2003,6.2003,6.206,6.2175,6.2114,6.2094,6.2087,6.2012,6.2039,6.2116,6.2237,6.2389,6.2526,6.2641,6.273,6.2793,6.2793,6.2793,6.2793,6.2793,6.2793,6.2793,6.2793,6.2793,6.2793,6.2793,6.2793,6.2793,6.2793,6.2793,6.2793,6.2793,6.2793,6.2793,6.2793,6.2793,6.2793,6.2793,6.2793,6.2793,6.2793,6.2793,6.2793,6.2793,6.2793,6.2793,6.2793,6.2793,6.2793,6.2793,6.2793,6.2793,6.2793,6.2793,6.2793,6.2793,6.2793,6.2793,6.2793,6.2793,6.2793,6.2793,6.3056,6.3297,6.3502,6.3987,6.4431,6.4811,6.5031,6.524,5.9869,6.0047,6.026,6.068,6.0942,6.1267,6.1865,6.2003,6.2003,6.2003,6.2003,6.2003,6.2003,6.2003,6.2003,6.2003,6.2003,6.2003,6.2003,6.2003,6.2003,6.2003,6.2003,6.2003,6.2003,6.2003,6.2003,6.2003,6.2003,6.2003,6.2003,6.2003,6.2003,6.2003,6.2003,6.2003,6.2003,6.2003,6.2003,6.2003,6.2003,6.2003,6.2003,6.2003,6.2003,6.2003,6.2003,6.2003,6.2003,6.2003,6.208,6.221,6.2237,6.239,6.261,6.2641,6.2711,6.2793,6.2793,6.2793,6.2793,6.2793,6.2793,6.2793,6.2793,6.2793,6.2793,6.2793,6.2793,6.2793,6.2793,6.2793,6.2793,6.2793,6.2793,6.2793,6.2793,6.2793,6.2793,6.2793,6.2793,6.2793,6.2793,6.2793,6.2793,6.2793,6.2793,6.2793,6.2793,6.2793,6.2793,6.2793,6.2793,6.2793,6.2793,6.2793,6.2793,6.2793,6.2793,6.2793,6.2793,6.2793,6.2855,6.2978,6.3428,6.366,6.3642,6.4412,6.4855,6.4953,6.5263,6.5394,5.9875,6.044,6.108,6.0852,6.1376,6.1949,6.1985,6.2003,6.2003,6.2003,6.2003,6.2003,6.2003,6.2003,6.2003,6.2003,6.2003,6.2003,6.2003,6.2003,6.2003,6.2003,6.2003,6.2003,6.2003,6.2003,6.2003,6.2003,6.2003,6.2003,6.2003,6.2003,6.2003,6.2003,6.2003,6.2003,6.2003,6.2003,6.2003,6.2003,6.2003,6.2003,6.2003,6.2003,6.2003,6.2003,6.2003,6.2003,6.2003,6.2003,6.208,6.2217,6.2343,6.2486,6.2622,6.2736,6.2786,6.2793,6.2793,6.2793,6.2793,6.2793,6.2793,6.2793,6.2793,6.2793,6.2793,6.2793,6.2793,6.2793,6.2793,6.2793,6.2793,6.2793,6.2793,6.2793,6.2793,6.2793,6.2793,6.2793,6.2793,6.2793,6.2793,6.2793,6.2793,6.2793,6.2793,6.2793,6.2793,6.2793,6.2793,6.2793,6.2793,6.2793,6.2793,6.2793,6.2793,6.2793,6.2793,6.2793,6.2793,6.2793,6.3014,6.3451,6.3853,6.408,6.408,6.4567,6.5002,6.5372,6.5387,6.5394,6.1373,6.1707,6.1919,6.1734,6.1849,6.2003,6.2003,6.2003,6.2003,6.2003,6.2003,6.2003,6.2003,6.2003,6.2003,6.2003,6.2003,6.2003,6.2003,6.2003,6.2003,6.2003,6.2003,6.2003,6.2003,6.2003,6.2003,6.2003,6.2003,6.2003,6.2003,6.2003,6.2003,6.2003,6.2003,6.2003,6.2003,6.2003,6.2003,6.2003,6.2003,6.2003,6.2003,6.2003,6.2003,6.2003,6.2003,6.2003,6.2003,6.2003,6.208,6.221,6.2257,6.2338,6.2486,6.2532,6.259,6.2673,6.2673,6.2724,6.2793,6.2793,6.2793,6.2793,6.2793,6.2793,6.2793,6.2793,6.2793,6.2793,6.2793,6.2793,6.2793,6.2793,6.2793,6.2793,6.2793,6.2793,6.2793,6.2793,6.2793,6.2793,6.2793,6.2793,6.2793,6.2793,6.2793,6.2793,6.2793,6.2793,6.2793,6.2793,6.2793,6.2793,6.2793,6.2793,6.2793,6.2793,6.2793,6.2793,6.2793,6.2793,6.3014,6.349,6.389,6.4249,6.4557,6.4974,6.5263,6.5394,6.5394,6.5425,6.2164,0.0,6.2356,6.2177,6.2067,6.2003,6.2003,6.2003,6.2003,6.2003,6.2003,6.2003,6.2003,6.2003,6.2003,6.2003,6.2003,6.2003,6.2003,6.2003,6.2003,6.2003,6.2003,6.2003,6.2003,6.2003,6.2003,6.2003,6.2003,6.2003,6.2003,6.2003,6.2003,6.2003,6.2003,6.2003,6.2003,6.2003,6.2003,6.2003,6.2003,6.2003,6.2003,6.2003,6.2003,6.2003,6.2003,6.2003,6.2003,6.2003,6.208,6.2203,6.2203,6.2283,6.2408,6.2454,6.252,6.261,6.2654,6.2724,6.2793,6.2793,6.2793,6.2793,6.2793,6.2793,6.2793,6.2793,6.2793,6.2793,6.2793,6.2793,6.2793,6.2793,6.2793,6.2793,6.2793,6.2793,6.2793,6.2793,6.2793,6.2793,6.2793,6.2793,6.2793,6.2793,6.2793,6.2793,6.2793,6.2793,6.2793,6.2793,6.2793,6.2793,6.2793,6.2793,6.2793,6.2793,6.2793,6.2793,6.2793,6.2793,6.3074,6.3685,6.3963,6.4407,6.5006,6.5271,6.5394,6.5394,6.5394,6.5454,0.0,0.0,0.0,6.2067,6.1992,6.2003,6.2003,6.2003,6.2003,6.2003,6.2003,6.2003,6.2003,6.2003,6.2003,6.2003,6.2003,6.2003,6.2003,6.2003,6.1985,6.1964,6.1964,6.1957,6.1937,6.1937,6.1937,6.1937,6.1957,6.1964,6.1964,6.1996,6.2003,6.2003,6.2003,6.2003,6.2003,6.2003,6.2003,6.2003,6.2003,6.2003,6.2003,6.2003,6.2003,6.2003,6.2003,6.2003,6.2003,6.2003,6.208,6.2197,6.2203,6.2283,6.2408,6.2539,6.2603,6.2622,6.2743,6.2805,6.2793,6.2793,6.2793,6.2793,6.2793,6.2793,6.2793,6.2793,6.2793,6.2793,6.2793,6.2793,6.2793,6.2793,6.2793,6.2793,6.2793,6.2793,6.2793,6.2793,6.2793,6.2793,6.2793,6.2793,6.2793,6.2793,6.2793,6.2793,6.2793,6.2793,6.2793,6.2793,6.2793,6.2793,6.2793,6.2793,6.2793,6.2793,6.2793,6.2793,6.2793,6.2805,6.3227,6.4071,6.4101,6.4529,6.5394,6.5394,6.5394,6.5394,6.5398,6.5484,6.2163,0.0,0.0,0.0,0.0,0.0,6.2003,6.2003,6.2003,6.2003,6.2003,6.2003,6.2003,6.2003,6.2003,6.2003,6.2003,6.2003,6.2003,6.2003,6.1815,6.1326,6.1275,6.1093,6.0593,6.0547,6.0547,6.0547,6.1001,6.1275,6.1275,6.1745,6.2003,6.2003,6.2003,6.2003,6.2003,6.2003,6.2003,6.2003,6.2003,6.2003,6.2003,6.2003,6.2003,6.2003,6.2003,6.2003,6.2003,6.2003,6.2012,6.206,6.2163,6.223,6.2277,6.2415,6.2513,6.261,6.2648,6.2717,6.2793,6.2793,6.2793,6.2793,6.2793,6.2793,6.2793,6.2793,6.2793,6.2793,6.2793,6.2793,6.2793,6.2793,6.2793,6.2793,6.2793,6.2793,6.2793,6.2793,6.2793,6.2793,6.2793,6.2793,6.2793,6.2793,6.2793,6.2793,6.2793,6.2793,6.2793,6.2793,6.2793,6.2793,6.2793,6.2793,6.2793,6.2793,6.2793,6.2793,6.2793,6.3128,6.3561,6.41,6.4436,6.4862,6.5394,6.5394,6.5394,6.5398,6.551,6.5562,0.0,0.0,0.0,0.0,0.0,0.0,6.165,6.1583,6.1583,6.1583,6.1358,6.1257,6.1533,6.1351,6.1176,6.1176,6.1176,6.1264,6.154,6.1822,6.165,6.0699,6.0837,6.0747,6.0071,5.999,5.999,5.999,6.0623,6.1119,6.1401,6.1794,6.2003,6.2003,6.2003,6.2003,6.2003,6.2003,6.2003,6.2003,6.2003,6.2003,6.2003,6.2003,6.2003,6.2003,6.2003,6.2003,6.1992,6.206,6.2046,6.2005,6.2143,6.2203,6.223,6.2403,6.2533,6.261,6.2667,6.273,6.2793,6.2793,6.2793,6.2793,6.2793,6.2793,6.2793,6.2793,6.2793,6.2793,6.2793,6.2793,6.2793,6.2793,6.2793,6.2793,6.2793,6.2793,6.2793,6.2793,6.2793,6.2793,6.2793,6.2793,6.2793,6.2793,6.2793,6.2793,6.2793,6.2793,6.2793,6.2793,6.2793,6.2793,6.2793,6.2793,6.2793,6.2793,6.2793,6.2793,6.2793,6.3251,6.3698,6.4081,6.4567,6.5006,6.5394,6.5394,6.5394,6.5398,6.553,6.5597,0.0,0.0,0.0,0.0,0.0,0.0,6.1246,6.1104,6.1104,6.1104,6.0638,6.039,6.1001,6.0623,6.0211,6.0211,6.0166,6.029,6.0812,6.1401,6.1307,6.003,6.04,6.0501,5.9822,5.9775,5.9775,5.9775,6.046,6.1188,6.185,6.1957,6.2003,6.2003,6.2003,6.2003,6.2003,6.2003,6.2003,6.2003,6.2003,6.2003,6.2003,6.2003,6.2003,6.2003,6.2003,6.2017,6.2026,6.2143,6.2123,6.2033,6.2183,6.2232,6.2283,6.2533,6.2629,6.2641,6.2755,6.2793,6.2793,6.2793,6.2793,6.2793,6.2793,6.2793,6.2793,6.2793,6.2793,6.2793,6.2793,6.2793,6.2793,6.2793,6.2793,6.2793,6.2793,6.2793,6.2793,6.2793,6.2793,6.2793,6.2793,6.2793,6.2793,6.2793,6.2793,6.2793,6.2793,6.2793,6.2793,6.2793,6.2793,6.2793,6.2793,6.2793,6.2793,6.2793,6.2793,6.2818,6.288,6.3314,6.3755,6.4175,6.4631,6.5044,6.5394,6.5394,6.5398,6.5409,6.5537,6.5604,0.0,0.0,0.0,0.0,0.0,0.0,6.1829,6.1801,6.1801,6.1801,6.1692,6.165,6.1787,6.1692,6.1615,6.1615,6.1159,6.0669,6.0243,6.0315,6.0078,5.9221,5.923,5.9054,5.836,5.8315,5.8315,5.8315,5.948,6.0493,6.1155,6.1699,6.2003,6.2003,6.2003,6.2003,6.2003,6.2003,6.2003,6.2003,6.2003,6.2003,6.2003,6.2003,6.2003,6.2003,6.2003,6.206,6.2163,6.219,6.2183,6.2183,6.2423,6.2526,6.2546,6.2698,6.2755,6.2755,6.2786,6.2793,6.2793,6.2793,6.2793,6.2793,6.2793,6.2793,6.2793,6.2793,6.2793,6.2793,6.2793,6.2793,6.2793,6.2793,6.2793,6.2793,6.2793,6.2793,6.2793,6.2793,6.2793,6.2793,6.2793,6.2793,6.2793,6.2793,6.2793,6.2793,6.2793,6.2793,6.2793,6.2793,6.2793,6.2793,6.2793,6.2793,6.2793,6.2793,6.2793,6.2972,6.3355,6.3766,6.4195,6.4644,6.5068,6.5314,6.5394,6.5394,6.5432,6.5476,6.5562,6.5651,0.0,0.0,0.0,6.2003,0.0,0.0,0.0,6.1505,6.1505,6.1505,6.1242,6.1107,6.143,6.1224,6.0994,6.0994,6.0421,5.9845,5.9495,5.9774,5.9603,5.8537,5.8694,5.8642,5.7972,5.7891,5.8037,5.8361,5.9054,5.9756,6.046,6.0822,6.1159,6.1498,6.1505,6.1664,6.2003,6.2003,6.2003,6.2003,6.2003,6.2003,6.2003,6.2003,6.2003,6.1992,6.2073,6.2148,6.2217,6.2338,6.2397,6.241,6.2552,6.2603,6.2622,6.2749,6.2793,6.2793,6.2793,6.2793,6.2793,6.2793,6.2793,6.2793,6.2793,6.2793,6.2793,6.2793,6.2793,6.2793,6.2793,6.2793,6.2793,6.2793,6.2793,6.2793,6.2793,6.2793,6.2793,6.2793,6.2793,6.2793,6.2793,6.2793,6.2793,6.2793,6.2793,6.2793,6.2793,6.2793,6.2793,6.2793,6.2793,6.2793,6.2793,6.2793,6.2793,6.2793,6.2793,6.3014,6.3479,6.3885,6.4426,6.51,6.5295,6.5394,6.5394,6.5436,6.5477,6.5501,6.5646,6.5737,0.0,0.0,0.0,0.0,0.0,6.185,0.0,0.0,0.0,6.1184,6.0752,6.0554,6.1089,6.0744,6.0393,6.0393,5.978,5.9304,5.9304,5.9717,5.9471,5.8081,5.8387,5.8485,5.7954,5.8019,5.8254,5.8668,5.8951,5.9305,5.9765,5.9918,6.0305,6.0976,6.1008,6.1311,6.1985,6.2003,6.2003,6.2003,6.2003,6.2003,6.2003,6.2003,6.2005,6.2039,6.215,6.2237,6.2285,6.2513,6.2622,6.2641,6.2641,6.2641,6.2654,6.2755,6.2793,6.2793,6.2793,6.2793,6.2793,6.2793,6.2793,6.2793,6.2793,6.2793,6.2793,6.2793,6.2793,6.2793,6.2793,6.2793,6.2793,6.2793,6.2793,6.2793,6.2793,6.2793,6.2793,6.2793,6.2793,6.2793,6.2793,6.2793,6.2793,6.2793,6.2793,6.2793,6.2793,6.2793,6.2793,6.2793,6.2793,6.2793,6.2793,6.2793,6.2793,6.2793,6.2793,6.3044,6.3594,6.409,6.4675,6.5383,6.5394,6.5402,6.5421,6.5479,6.5519,6.5523,6.5714,6.5819,0.0,0.0,0.0,0.0,6.2003,0.0,0.0,0.0,6.1888,6.1888,0.0,6.1794,6.1882,0.0,0.0,6.1773,6.1202,6.0749,6.0749,6.0321,5.9471,5.8081,5.7972,5.7974,5.7909,5.844,5.8572,5.8055,5.9181,5.9636,5.9062,5.9634,6.0305,6.0976,6.1008,6.1311,6.1985,6.2003,6.2003,6.2003,6.2003,6.2003,6.2003,6.2003,6.206,6.2177,6.2197,6.2331,6.2558,6.2597,6.2673,6.2786,6.2786,6.2786,6.2774,6.2786,6.2793,6.2793,6.2793,6.2793,6.2793,6.2793,6.2793,6.2793,6.2793,6.2793,6.2793,6.2793,6.2793,6.2793,6.2793,6.2793,6.2793,6.2793,6.2793,6.2793,6.2793,6.2793,6.2793,6.2793,6.2793,6.2793,6.2793,6.2793,6.2793,6.2793,6.2793,6.2793,6.2793,6.2793,6.2793,6.2793,6.2793,6.2793,6.2793,6.2793,6.2793,6.2793,6.2793,6.3162,6.4004,6.4813,6.5298,6.5394,6.5394,6.5432,6.5487,6.5555,6.5587,6.559,6.5734,6.5826,0.0,0.0,0.0,0.0,0.0,0.0,6.1909,0.0,6.2003,0.0,0.0,0.0,0.0,0.0,0.0,0.0,6.143,6.1008,6.1008,6.0414,5.9774,5.9197,5.9122,5.8952,5.8511,5.8729,5.8607,5.7954,5.8806,5.9062,5.8369,5.8607,5.9087,5.9763,6.0194,6.0737,6.1415,6.1808,6.2003,6.2003,6.2003,6.2003,6.1992,6.208,6.2143,6.221,6.2357,6.2494,6.261,6.2686,6.2743,6.2793,6.2793,6.2793,6.2793,6.2793,6.2793,6.2793,6.2793,6.2793,6.2793,6.2793,6.2793,6.2793,6.2793,6.2793,6.2793,6.2793,6.2793,6.2793,6.2793,6.2793,6.2793,6.2793,6.2793,6.2793,6.2793,6.2793,6.2793,6.2793,6.2793,6.2793,6.2793,6.2793,6.2793,6.2793,6.2793,6.2793,6.2793,6.2395,6.2285,6.2756,6.2377,6.2285,6.2756,6.2793,6.2793,6.2793,6.326,6.3838,6.4478,6.5085,6.5394,6.5394,6.5443,6.5465,6.5498,6.5653,6.5724,6.5727,6.5801,6.5872,6.1405,0.0,0.0,0.0,0.0,0.0,0.0,0.0,0.0,0.0,0.0,0.0,0.0,0.0,0.0,0.0,0.0,6.1001,6.1008,6.0737,6.0416,6.0038,5.999,5.979,5.9247,5.9371,5.9104,5.8244,5.8806,5.8815,5.7945,5.8065,5.8396,5.8883,5.9788,6.0516,6.1001,6.1664,6.2003,6.2003,6.2033,6.2053,6.206,6.219,6.2265,6.2311,6.252,6.2622,6.2667,6.2755,6.2793,6.2793,6.2793,6.2793,6.2793,6.2793,6.2793,6.2793,6.2793,6.2793,6.2793,6.2793,6.2793,6.2793,6.2793,6.2793,6.2793,6.2793,6.2793,6.2793,6.2793,6.2793,6.2793,6.2793,6.2793,6.2793,6.2793,6.2793,6.2793,6.2793,6.2793,6.2793,6.2793,6.2793,6.2793,6.2793,6.2609,6.2469,6.2469,6.1777,6.1575,6.2395,6.1942,6.1924,6.2738,6.2793,6.2855,6.2984,6.3683,6.4307,6.4775,6.5185,6.5394,6.5394,6.5477,6.5509,6.5527,6.5714,6.5803,6.5823,6.5875,6.59,0.0,0.0,0.0,6.0857,0.0,0.0,0.0,0.0,6.2003,0.0,0.0,0.0,0.0,0.0,0.0,0.0,0.0,0.0,0.0,6.154,6.1455,6.0149,5.999,5.9982,5.9958,6.0557,6.0369,5.8968,5.9544,5.9356,5.7972,5.8528,5.8875,5.89,6.0231,6.0986,6.1008,6.1664,6.2003,6.2003,6.2123,6.2197,6.2203,6.2336,6.2455,6.2597,6.2603,6.2673,6.2786,6.2793,6.2793,6.2793,6.2793,6.2793,6.2793,6.2793,6.2793,6.2793,6.2793,6.2793,6.2793,6.2793,6.2793,6.2793,6.2793,6.2793,6.2793,6.2793,6.2793,6.2793,6.2793,6.2793,6.2793,6.2793,6.2793,6.2793,6.2793,6.2793,6.2793,6.2793,6.2793,6.2793,6.2793,6.2793,6.2793,6.2793,6.2144,6.1637,6.1637,6.0933,6.075,6.1545,6.1618,6.1924,6.2738,6.2793,6.2996,6.3445,6.3864,6.4307,6.4775,6.5185,6.5394,6.5394,6.5477,6.553,6.5594,6.5734,6.583,6.5897,6.59,6.59,0.0,0.0,5.9446,6.0164,0.0,0.0,0.0,0.0,0.0,0.0,0.0,0.0,0.0,0.0,0.0,0.0,0.0,0.0,0.0,6.0531,6.0679,6.0664,6.0268,5.999,5.999,6.0205,5.9942,5.8968,5.9129,5.8866,5.7945,5.8127,5.8244,5.8244,5.9594,6.0328,6.0328,6.1448,6.2039,6.2123,6.2094,6.2103,6.2203,6.225,6.2296,6.2338,6.2526,6.2629,6.2673,6.2755,6.2793,6.2793,6.2793,6.2793,6.2793,6.2793,6.2793,6.2793,6.2793,6.2793,6.2793,6.2793,6.2793,6.2793,6.2793,6.2793,6.2793,6.2793,6.2793,6.2793,6.2793,6.2793,6.2793,6.2793,6.2793,6.2793,6.2793,6.2793,6.2793,6.2793,6.2377,6.2016,6.2016,6.1551,6.1386,6.1924,6.1765,6.1416,6.0878,6.056,6.0713,6.1508,6.16,6.1924,6.2738,6.3086,6.3432,6.3864,6.4321,6.4757,6.5177,6.5337,6.5421,6.5477,6.553,6.5624,6.5734,6.583,6.5878,6.59,6.59,6.59,5.9239,5.8909,0.0,5.9421,5.9247,0.0,5.983,0.0,0.0,0.0,0.0,0.0,0.0,0.0,0.0,0.0,0.0,0.0,0.0,5.9774,5.9774,6.0204,6.0093,6.0085,6.0328,6.0133,5.9683,5.896,5.89,5.8616,5.7936,5.8136,5.8146,5.7909,5.9273,5.987,5.9602,6.0964,6.1688,6.1775,6.198,6.2128,6.221,6.231,6.2338,6.2351,6.2578,6.2673,6.2679,6.2755,6.2793,6.2793,6.2793,6.2793,6.2793,6.2793,6.2793,6.2793,6.2793,6.2793,6.2793,6.2793,6.2793,6.2793,6.2793,6.2793,6.2793,6.2793,6.2793,6.2793,6.2793,6.2793,6.2793,6.2793,6.2793,6.2793,6.2793,6.2572,6.2377,6.2377,6.1722,6.1172,6.1172,6.075,6.0578,6.1098,6.0933,6.0566,6.0046,5.9967,6.0285,6.108,6.1435,6.1985,6.2971,6.3332,6.3734,6.4307,6.4626,6.4989,6.5383,6.5425,6.5466,6.5498,6.5613,6.5705,6.5793,6.5865,6.59,6.59,6.59,6.59]},{"header":{"parameterUnit":"m.s-1","parameterCategory":1,"la1":30.6,"la2":29.2853,"lo1":-89.7004,"lo2":-87.6739,"dy":0.0162,"dx":0.0183,"nx":112,"ny":82,"refTime":"2024-04-17T06:00:00:Z","depth":0,"parameterNumber":3,"parameterNumberName":"V-component_of_WINDS"},"data":[0.0,0.0,0.0,0.0,0.0,0.0,0.0,0.0,0.0,0.0,0.0,0.0,0.0,0.0,0.0,0.0,0.0,0.0,0.0,0.0,0.0,0.0,0.0,0.0,0.0,0.0,0.0,0.0,0.0,0.0,0.0,0.0,0.0,0.0,0.0,0.0,0.0,0.0,0.0,0.0,0.0,0.0,0.0,0.0,0.0,0.0,0.0,0.0,0.0,0.0,0.0,0.0,0.0,0.0,0.0,0.0,0.0,0.0,0.0,0.0,0.0,0.0,0.0,0.0,0.0,0.0,0.0,0.0,0.0,0.0,0.0,0.0,0.0,0.0,0.0,0.0,0.0,0.0,0.0,0.0,0.0,0.0,0.0,0.0,0.0,0.0,0.0,0.0,0.0,0.0,0.8953,0.8977,0.898,0.897,0.8946,0.8946,0.8933,0.8899,0.0,0.0,0.0,0.0,0.0,0.0,0.0,0.0,0.0,0.0,0.0,0.0,0.0,0.0,0.0,0.0,0.0,0.0,0.0,0.0,0.0,0.0,0.0,0.0,0.0,0.0,0.0,0.0,0.0,0.0,0.0,0.0,0.0,0.0,0.0,0.0,0.0,0.0,0.0,0.0,0.0,0.0,0.0,0.0,0.0,0.0,0.0,0.0,0.0,0.0,0.0,0.0,0.0,0.0,0.0,0.0,0.0,0.0,0.0,0.0,0.0,0.0,0.0,0.0,0.0,0.0,0.0,0.0,0.0,0.0,0.0,0.0,0.0,0.0,0.0,0.0,0.0,0.0,0.0,0.0,0.0,0.0,0.0,0.0,0.0,0.0,0.0,0.0,0.0,0.0,0.0,0.0,0.0,0.0,0.0,0.0,0.0,0.0,0.0,0.0,0.0,0.0,0.0,0.0,0.9199,0.9314,0.9328,0.9277,0.9158,0.9148,0.9083,0.8905,0.0,0.0,0.0,0.0,0.0,0.0,0.0,0.0,0.0,0.0,0.0,0.0,0.0,0.0,0.0,0.0,0.0,0.0,0.0,0.0,0.0,0.0,0.0,0.0,0.0,0.0,0.0,0.0,0.0,0.0,0.0,0.0,0.0,0.0,0.0,0.0,0.0,0.0,0.0,0.0,0.0,0.0,0.0,0.0,0.0,0.0,0.0,0.0,0.0,0.0,0.0,0.0,0.0,0.0,0.0,0.0,0.0,0.0,0.0,0.0,0.0,0.0,0.0,0.0,0.0,0.0,0.0,0.0,0.0,0.0,0.0,0.0,0.0,0.0,0.0,0.0,0.0,0.0,0.0,0.0,0.0,0.0,0.0,0.0,0.0,0.0,0.0,0.0,0.0,0.0,0.0,0.0,0.0,0.0,0.0,0.0,0.0,0.0,0.0,0.0,0.0,0.0,0.0,0.9249,0.9332,0.9389,0.9396,0.9383,0.9311,0.9305,0.9263,0.9184,0.91,0.0,0.0,0.0,0.0,0.0,0.0,0.0,0.0,0.0,0.0,0.0,0.0,0.0,0.0,0.0,0.0,0.0,0.0,0.0,0.0,0.0,0.0,0.0,0.0,0.0,0.0,0.0,0.0,0.0,0.0,0.0,0.0,0.0,0.0,0.0,0.0,0.0,0.0,0.0,0.0,0.0,0.0,0.0,0.0,0.0,0.0,0.0,0.0,0.0,0.0,0.0,0.0,0.0,0.0,0.0,0.0,0.0,0.0,0.0,0.0,0.0,0.0,0.0,0.0,0.0,0.0,0.0,0.0,0.0,0.0,0.0,0.0,0.0,0.0,0.0,0.0,0.0,0.0,0.0,0.0,0.0,0.0,0.0,0.0,0.0,0.0,0.0,0.0,0.0,0.0,0.0,0.0,0.0,0.0,0.0,0.0,0.0,0.0,0.0,0.0,0.0,0.0,0.945,0.9463,0.9497,0.9501,0.9484,0.9453,0.945,0.9433,0.9399,0.9301,0.0,0.0,0.0,0.0,0.0,0.0,0.0,0.0,0.0,0.0,0.0,0.0,0.0,0.0,0.0,0.0,0.0,0.0,0.0,0.0,0.0,0.0,0.0,0.0,0.0,0.0,0.0,0.0,0.0,0.0,0.0,0.0,0.0,0.0,0.0,0.0,0.0,0.0,0.0,0.0,0.0,0.0,0.0,0.0,0.0,0.0,0.0,0.0,0.0,0.0,0.0,0.0,0.0,0.0,0.0,0.0,0.0,0.0,0.0,0.0,0.0,0.0,0.0,0.0,0.0,0.0,0.0,0.0,0.0,0.0,0.0,0.0,0.0,0.0,0.0,0.0,0.0,0.0,0.0,0.0,0.0,0.0,0.0,0.0,0.0,0.0,0.0,0.0,0.0,0.0,0.0,0.0,0.0,0.0,0.0,0.0,0.0,0.0,0.0,0.0,0.0,0.0,0.958,0.9631,0.9759,0.9773,0.9722,0.9605,0.958,0.9534,0.9406,0.9385,0.0,0.0,0.0,0.0,0.0,0.0,0.0,0.0,0.0,0.0,0.0,0.0,0.0,0.0,0.0,0.0,0.0,0.0,0.0,0.0,0.0,0.0,0.0,0.0,0.0,0.0,0.0,0.0,0.0,0.0,0.0,0.0,0.0,0.0,0.0,0.0,0.0,0.0,0.0,0.0,0.0,0.0,0.0,0.0,0.0,0.0,0.0,0.0,0.0,0.0,0.0,0.0,0.0,0.0,0.0,0.0,0.0,0.0,0.0,0.0,0.0,0.0,0.0,0.0,0.0,0.0,0.0,0.0,0.0,0.0,0.0,0.0,0.0,0.0,0.0,0.0,0.0,0.0,0.0,0.0,0.0,0.0,0.0,0.0,0.0,0.0,0.0,0.0,0.0,0.0,0.0,0.0,0.0,0.0,0.0,0.0,0.0,0.0,0.0,0.0,0.0,0.0,0.9725,0.9746,0.0,0.9807,0.9783,0.9729,0.9725,0.9702,0.9659,0.0,0.0,0.0,0.0,0.0,0.0,0.0,0.0,0.0,0.0,0.0,0.0,0.0,0.0,0.0,0.0,0.0,0.0,0.0,0.0,0.0,0.0,0.0,0.0,0.0,0.0,0.0,0.0,0.0,0.0,0.0,0.0,0.0,0.0,0.0,0.0,0.0,0.0,0.0,0.0,0.0,0.0,0.0,0.0,0.0,0.0,0.0,0.0,0.0,0.0,0.0,0.0,0.0,0.0,0.0,0.0,0.0,0.0,0.0,0.0,0.0,0.0,0.0,0.0,0.0,0.0,0.0,0.0,0.0,0.0,0.0,0.0,0.0,0.0,0.0,0.0,0.0,0.0,0.0,0.0,0.0,0.0,0.0,0.0,0.0,0.0,0.0,0.0,0.0,0.0,0.0,0.0,0.0,0.0,0.0,0.0,0.0,0.0,0.0,0.0,0.0,0.0,0.9793,0.9807,0.9807,0.0,0.9807,0.9807,0.9807,0.9807,0.9807,0.9807,0.0,0.0,0.0,0.0,0.0,0.0,0.0,0.0,0.0,0.0,0.0,0.0,0.0,0.0,0.0,0.0,0.0,0.0,0.0,0.0,0.0,0.0,0.0,0.0,0.0,0.0,0.0,0.0,0.0,0.0,0.0,0.0,0.0,0.0,0.0,0.0,0.0,0.0,0.0,0.0,0.0,0.0,0.0,0.0,0.0,0.0,0.0,0.0,0.0,0.0,0.0,0.0,0.0,0.0,0.0,0.0,0.0,0.0,0.0,0.0,0.0,0.0,0.0,0.0,0.0,0.0,0.0,0.0,0.0,0.0,0.0,0.0,0.0,0.0,0.0,0.0,0.0,0.0,0.0,0.0,0.0,0.0,0.0,0.0,0.0,0.0,0.0,0.0,0.0,0.0,0.0,0.0,0.0,0.0,0.0,0.0,0.0,0.0,0.0,0.0,0.0,0.0,0.9807,0.9807,0.9807,0.9807,0.9807,0.9807,0.9807,0.9807,0.9807,0.0,0.0,0.0,0.0,0.0,0.0,0.0,0.0,0.0,0.0,0.0,0.0,0.0,0.0,0.0,0.0,0.0,0.0,0.0,0.0,0.0,0.0,0.0,0.0,0.0,0.0,0.0,0.0,0.0,0.0,0.0,0.0,0.0,0.0,0.0,0.0,0.0,0.0,0.0,0.0,0.0,0.0,0.0,0.0,0.0,0.0,0.0,0.0,0.0,0.0,0.0,0.0,0.0,0.0,0.0,0.0,0.0,0.0,0.0,0.0,0.0,0.0,0.0,0.0,0.0,0.0,0.0,0.0,0.0,0.0,0.0,0.0,0.0,0.0,0.0,0.0,0.0,0.0,0.0,0.0,0.0,0.0,0.0,0.0,0.0,0.0,0.0,0.0,0.0,0.0,0.0,0.0,0.0,0.0,0.0,0.0,0.0,0.0,0.0,0.0,0.0,0.0,0.0,0.9807,0.9807,0.9807,0.9807,0.9807,0.9807,0.9807,0.9807,0.9807,0.9807,0.0,0.0,0.0,0.0,0.0,0.0,0.0,0.0,0.0,0.0,0.0,0.0,0.0,0.0,0.0,0.0,0.0,0.0,0.0,0.0,0.0,0.0,0.0,0.0,0.0,0.0,0.0,0.0,0.0,0.0,0.0,0.0,0.0,0.0,0.0,0.0,0.0,0.0,0.0,0.0,0.0,0.0,0.0,0.0,0.0,0.0,0.0,0.0,0.0,0.0,0.0,0.0,0.0,0.0,0.0,0.0,0.0,0.0,0.0,0.0,0.0,0.0,0.0,0.0,0.0,0.0,0.0,0.0,0.0,0.0,0.0,0.0,0.0,0.0,0.0,0.0,0.0,0.0,0.0,0.0,0.0,0.0,0.0,0.0,0.0,0.0,0.0,0.0,0.0,0.0,0.0,0.0,0.0,0.0,0.0,0.0,0.0,0.0,0.0,0.0,0.0,0.0,0.9807,0.9807,0.9807,0.9807,0.9807,0.9807,0.9807,0.9807,0.9807,0.9807,0.0,0.0,0.0,0.0,0.0,0.0,0.0,0.0,0.0,0.0,0.0,0.0,0.0,0.0,0.0,0.0,0.0,0.0,0.0,0.0,0.0,0.0,0.0,0.0,0.0,0.0,0.0,0.0,0.0,0.0,0.0,0.0,0.0,0.0,0.0,0.0,0.0,0.0,0.0,0.0,0.0,0.0,0.0,0.0,0.0,0.0,0.0,0.0,0.0,0.0,0.0,0.0,0.0,0.0,0.0,0.0,0.0,0.0,0.0,0.0,0.0,0.0,0.0,0.0,0.0,0.0,0.0,0.0,0.0,0.0,0.0,0.0,0.0,0.0,0.0,0.0,0.0,0.0,0.0,0.0,0.0,0.0,0.0,0.0,0.0,0.0,0.0,0.0,0.0,0.0,0.0,0.0,0.0,0.0,0.0,0.0,0.0,0.0,0.0,0.0,0.0,0.0,0.9847,0.9847,0.9847,0.9847,0.9847,0.9847,0.9847,0.9834,0.9812,0.9812,0.0,0.0,0.0,0.0,0.0,0.0,0.0,0.0,0.0,0.0,0.0,0.0,0.0,0.0,0.0,0.0,0.0,0.0,0.0,0.0,0.0,0.0,0.0,0.0,0.0,0.0,0.0,0.0,0.0,0.0,0.0,0.0,0.0,0.0,0.0,0.0,0.0,0.0,0.0,0.0,0.0,0.0,0.0,0.0,0.0,0.0,0.0,0.0,0.0,0.0,0.0,0.0,0.0,0.0,0.0,0.0,0.0,0.0,0.0,0.0,0.9379,0.0,0.0,0.0,0.0,0.0,0.0,0.0,0.0,0.0,0.0,0.0,0.0,0.0,0.0,0.0,0.0,0.0,0.0,0.0,0.0,0.0,0.0,0.0,0.0,0.0,0.0,0.0,0.0,0.0,0.0,0.0,0.0,0.0,0.0,0.0,0.0,0.0,0.0,0.0,0.0,0.0,1.0168,1.0181,1.0181,1.0181,1.0181,1.0181,1.0181,1.0054,0.9952,0.9952,0.9856,0.0,0.0,0.0,0.0,0.0,0.0,0.0,0.0,0.0,0.0,0.0,0.0,0.0,0.0,0.0,0.0,0.0,0.0,0.0,0.0,0.0,0.0,0.0,0.0,0.0,0.0,0.0,0.0,0.0,0.0,0.0,0.0,0.0,0.0,0.0,0.0,0.0,0.0,0.0,0.0,0.0,0.0,0.0,0.0,0.0,0.0,0.0,0.0,0.0,0.0,0.0,0.0,0.0,0.0,0.0,0.0,0.0,0.0,0.0,0.0,0.9737,0.0,0.0,0.0,0.0,0.0,0.0,0.0,0.0,0.0,0.0,0.0,0.0,0.0,0.0,0.0,0.0,0.0,0.0,0.0,0.0,0.0,0.0,0.0,0.0,0.0,0.0,0.0,0.0,0.0,0.0,0.0,0.0,0.0,0.0,0.0,0.0,0.0,0.0,0.0,0.0,1.0286,1.0296,1.0296,1.0296,1.0296,1.0296,1.0296,1.0205,1.0142,1.0142,0.9984,0.0,0.0,0.0,0.0,0.0,0.0,0.0,0.0,0.0,0.0,0.0,0.0,0.0,0.0,0.0,0.0,0.0,0.0,0.0,0.0,0.0,0.0,0.0,0.0,0.0,0.0,0.0,0.0,0.0,0.0,0.0,0.0,0.0,0.0,0.0,0.0,0.0,0.0,0.0,0.0,0.0,0.0,0.0,0.0,0.0,0.0,0.0,0.0,0.0,0.0,0.0,0.0,0.0,1.4223,1.4351,1.4563,1.4346,1.3705,1.2694,1.1285,1.0501,1.0206,1.0105,0.0,0.0,0.0,0.0,0.0,0.0,0.0,0.0,0.0,0.0,0.0,0.0,0.0,0.0,0.0,0.0,0.0,0.0,0.0,0.0,0.0,0.0,0.0,0.0,1.0816,1.0786,1.0386,0.0,0.0,0.0,0.0,0.0,0.0,0.0,0.0,0.0,0.0,0.0,1.045,1.0518,1.0566,1.0566,1.0502,1.0454,1.0454,1.0382,1.0333,1.0333,1.0159,1.0045,0.0,0.0,0.0,0.0,0.0,0.0,0.0,0.0,0.0,0.0,0.0,0.0,0.0,0.0,0.0,0.0,0.0,0.0,0.0,0.0,0.0,0.0,0.0,0.0,0.0,0.0,0.0,0.0,0.0,0.0,0.0,0.0,1.3882,1.3882,0.0,0.0,0.0,0.0,0.0,0.0,0.0,0.0,0.0,0.0,0.0,0.0,0.0,1.4375,1.4485,1.5688,1.6301,1.6303,1.6303,1.6354,1.6404,1.5364,1.4206,1.3036,1.2995,0.0,1.0717,1.0683,0.0,0.0,0.0,0.0,0.0,0.0,0.0,0.0,0.0,0.0,0.0,0.0,0.0,0.0,0.0,0.0,0.0,0.0,0.0,0.0,0.0,0.0,1.0789,1.1136,1.1227,1.1224,0.0,1.0955,1.0672,1.0361,1.0678,0.0,0.0,0.0,0.0,0.0,0.0,0.0,1.107,1.1384,1.1602,1.1602,1.1289,1.1072,1.1072,1.0701,1.0463,1.0463,1.0347,1.0172,1.0009,0.9982,0.0,0.0,0.0,0.0,0.0,0.0,0.0,0.0,0.0,0.0,0.0,0.0,0.0,0.0,0.0,0.0,0.0,0.0,0.0,0.0,0.0,0.0,0.0,0.0,0.0,0.0,0.0,0.0,0.0,1.2833,1.3139,1.3139,1.2698,1.2146,0.0,0.0,0.0,0.0,0.0,0.0,0.0,0.0,0.0,1.552,1.5704,1.6115,1.6785,1.7401,1.779,1.7944,1.8133,1.8307,1.8468,1.8092,1.6816,1.4904,1.4987,1.3745,1.1665,1.2018,1.1984,1.1734,0.0,0.0,0.0,0.0,1.028,1.0413,1.0413,1.0473,1.0576,1.0576,0.0,0.0,0.0,0.0,0.0,0.0,0.0,0.0,0.0,0.0,1.1171,1.1492,1.1644,1.1631,1.1451,1.1529,1.1507,0.0,1.1099,1.1105,1.0729,0.0,0.0,0.0,0.0,1.1383,1.1224,1.1347,1.1383,1.1201,1.1019,1.092,1.092,1.0903,1.0898,1.0898,1.0982,1.0897,1.0587,1.0487,1.0279,0.0,0.0,0.0,0.0,0.0,0.0,0.0,0.0,0.0,0.0,0.0,0.0,0.0,0.0,0.0,0.0,0.0,0.0,0.0,0.0,0.0,0.0,0.0,0.0,0.0,0.0,0.0,0.0,1.3104,1.3396,1.3693,1.3464,1.2955,0.0,0.0,0.0,0.0,0.0,0.0,1.5132,1.5152,1.5775,1.7117,1.7316,1.782,1.8718,1.8879,1.9045,1.9236,1.9486,1.97,1.9905,2.0104,1.8961,1.682,1.682,1.5489,1.3336,1.3017,1.2841,1.2746,1.2453,1.2296,1.2101,1.1148,1.0849,1.0925,1.0925,1.0986,1.1065,1.1065,1.0838,1.0562,1.0562,0.0,0.0,0.0,0.0,1.0955,1.1332,1.1424,1.1516,1.1849,1.1992,1.2008,1.1759,1.1976,1.2095,0.0,1.1602,1.1515,1.1176,0.0,0.0,0.0,0.0,1.1797,1.14,1.1495,1.1512,1.1264,1.1085,1.0986,1.0986,1.1032,1.1115,1.1181,1.1383,1.1344,1.1012,1.0902,1.0612,1.0095,0.0,0.0,0.0,0.0,0.0,0.0,0.0,0.0,0.0,0.0,0.0,0.0,0.0,0.0,0.0,0.0,0.0,0.0,0.0,0.0,0.0,0.0,0.0,0.0,0.0,0.0,0.0,0.0,0.0,1.7219,1.6386,0.0,0.0,0.0,0.0,1.4485,1.4779,1.5468,1.663,1.6686,1.7215,1.8373,1.8974,1.9296,1.9354,1.9858,2.0124,2.0137,2.015,2.0164,2.0184,2.0197,1.9464,1.8203,1.8203,1.7436,1.5974,1.3194,1.1873,1.1564,1.1426,1.1182,1.0895,1.0819,1.1001,1.1273,1.1273,1.1477,1.1746,1.1746,1.1526,1.1258,1.1258,1.1031,0.0,0.0,1.1078,1.1193,1.165,1.1775,1.1854,1.2201,1.2288,1.2276,1.226,1.2123,1.1965,0.0,1.2195,1.2403,1.2016,0.0,1.2013,1.1303,1.1806,1.2144,1.1813,1.2325,1.2704,1.2704,1.2127,1.1747,1.1747,1.1118,1.0853,1.1181,1.1207,1.1153,1.1016,1.0986,1.0766,1.0289,1.0092,0.0,0.0,0.0,0.0,0.0,0.0,0.0,0.0,0.0,0.0,0.0,0.0,0.0,0.0,0.0,0.0,0.0,0.0,0.0,0.0,0.0,0.0,0.0,0.0,0.0,0.0,0.0,0.0,1.5383,1.5831,0.0,1.5127,1.5641,1.6005,1.5944,1.6763,1.7616,1.8433,1.8466,1.8815,1.957,1.9798,1.9905,1.9905,2.0321,2.0514,2.0537,2.0918,2.1098,2.1105,2.1276,2.0622,1.9324,1.9324,1.8573,1.7271,1.6087,1.5702,1.5873,1.5819,1.5726,1.5416,1.3738,1.3192,1.3161,1.226,1.202,1.2086,1.1868,1.1724,1.158,1.1378,1.1378,1.1452,1.1533,1.1705,1.1909,1.2083,1.2119,1.215,1.2277,1.2393,1.2487,1.2487,1.2499,1.2506,1.2446,1.2421,1.2362,1.2215,1.243,1.2457,1.1978,1.2325,1.2507,1.216,1.2325,1.2408,1.2177,1.1945,1.1797,1.1797,1.1565,1.1549,1.1896,1.1714,1.1655,1.1822,1.1375,1.1009,1.0757,1.0473,1.0223,0.0,0.0,0.0,0.0,0.0,0.0,0.0,0.0,0.0,0.0,0.0,0.0,0.0,0.0,0.0,0.0,0.0,0.0,0.0,0.0,0.0,0.0,0.0,0.0,0.0,0.0,1.5881,1.547,1.6385,1.6742,1.5993,1.6983,1.7664,1.7615,1.8517,1.9245,1.9654,1.9674,1.988,2.0352,2.0466,2.0559,2.0675,2.0984,2.1132,2.1138,2.1549,2.1729,2.1736,2.1914,2.1499,2.0603,2.0603,2.0099,1.9265,1.9134,1.9275,1.9428,1.8273,1.7532,1.69,1.5078,1.4403,1.4262,1.3335,1.2694,1.2261,1.2036,1.1976,1.1925,1.1704,1.1783,1.1984,1.2059,1.2234,1.2406,1.2455,1.2471,1.2471,1.2471,1.2572,1.2674,1.2674,1.2734,1.2803,1.2803,1.2622,1.2474,1.2474,1.2655,1.2688,1.2358,1.2589,1.2688,1.2342,1.2408,1.2375,1.216,1.2045,1.1962,1.1962,1.1747,1.1797,1.2276,1.1995,1.1945,1.2292,1.1714,1.13,1.1074,1.0696,1.0392,1.0205,0.0,0.0,0.0,0.0,0.0,0.0,0.0,0.0,0.0,0.0,0.0,0.0,0.0,0.0,0.0,0.0,0.0,0.0,0.0,0.0,0.0,0.0,0.0,1.6003,1.6197,1.6782,1.788,1.8316,1.8531,1.8531,1.9066,1.9421,1.9421,1.992,2.0224,2.023,2.0237,2.0392,2.0724,2.0989,2.1276,2.1612,2.1874,2.2014,2.2014,2.2021,2.2027,2.2027,2.2027,2.2027,2.2027,2.2027,2.2027,2.2027,2.2027,2.2027,2.171,1.8365,1.6234,1.4983,1.4685,1.4503,1.4441,1.4431,1.3499,1.2313,1.2324,1.2324,1.2324,1.2324,1.2324,1.2357,1.2556,1.2604,1.2645,1.2775,1.2803,1.2803,1.2803,1.2803,1.2803,1.2803,1.2803,1.2803,1.2803,1.2803,1.2803,1.2803,1.2803,1.2688,1.2358,1.2589,0.0,1.2358,1.2605,1.2803,1.2803,1.2507,1.2325,1.2325,1.1648,1.1545,1.2276,1.1995,1.1962,1.2292,1.1978,1.1615,1.1214,1.0764,1.0559,1.0611,0.0,0.0,0.0,0.0,0.0,0.0,0.0,0.0,0.0,0.0,0.0,0.0,0.0,0.0,0.0,0.0,0.0,0.0,0.0,0.0,0.0,1.7155,1.7784,1.7464,1.77,1.8013,1.8329,1.8832,1.9154,1.9154,1.9653,1.9978,1.9978,2.0341,2.0648,2.084,2.1085,2.1355,2.1633,2.172,2.18,2.188,2.2158,2.2281,2.2288,2.2535,2.2653,2.2653,2.2653,2.2653,2.2653,2.2653,2.2653,2.2653,2.2653,2.2653,2.2518,2.1148,2.0362,1.9893,1.8796,1.7062,1.5255,1.5098,1.41,1.2856,1.2714,1.2657,1.2657,1.2657,1.2657,1.2669,1.273,1.2747,1.2759,1.2791,1.2803,1.2803,1.2803,1.2803,1.2803,1.2803,1.2803,1.2803,1.2803,1.2803,1.2803,1.2803,1.2803,1.277,1.2688,1.2737,0.0,1.2671,1.2737,1.2803,1.2803,1.2721,1.2655,1.2655,1.2243,1.2193,1.2638,1.2127,1.2061,1.2638,1.2111,1.1615,1.1214,1.1254,1.116,0.0,0.0,0.0,0.0,0.0,0.0,0.0,0.0,0.0,0.0,0.0,0.0,0.0,0.0,0.0,0.0,0.0,0.0,0.0,0.0,0.0,0.0,1.8034,1.8657,1.8597,1.8751,1.8872,1.8872,1.9372,1.9748,1.9748,2.0261,2.0586,2.0586,2.0989,2.1312,2.147,2.166,2.188,2.2158,2.2164,2.2225,2.2385,2.2535,2.2605,2.2605,2.2813,2.2893,2.2893,2.2893,2.2893,2.2893,2.2893,2.2893,2.2893,2.2893,2.2893,0.0,0.0,0.0,0.0,0.0,1.8485,1.6624,1.7073,1.5879,1.4131,1.4006,1.3557,1.3043,1.3043,1.3043,1.3026,1.2949,1.2929,1.2913,1.2823,1.2803,1.2803,1.2803,1.2803,1.2803,1.2803,1.2803,1.2803,1.2803,1.2803,0.0,1.2803,1.2803,1.2803,1.2803,1.2803,1.2803,1.2803,1.2803,1.2803,1.2803,1.2803,1.2803,1.2803,1.249,0.0,0.0,0.0,1.2177,1.2572,1.2226,0.0,0.0,0.0,1.1435,1.1462,0.0,0.0,0.0,0.9913,0.9807,0.0,0.0,0.0,0.0,0.0,0.0,0.0,0.0,0.0,0.0,0.0,0.0,0.0,0.0,0.0,0.0,1.8797,1.9112,1.9408,1.9502,1.9528,1.9495,1.998,2.0304,2.0304,2.0846,2.1209,2.1209,2.1724,2.2054,2.2054,0.0,0.0,0.0,0.0,2.2599,2.2893,2.2893,2.2893,2.2893,2.2893,2.2893,2.2893,2.2893,2.2893,2.2893,2.2893,2.2893,2.2893,2.2893,2.2893,2.2873,2.2572,2.1727,2.0656,2.0343,1.9376,1.8367,1.9547,0.0,0.0,1.5863,1.4979,1.3878,1.3694,1.3642,1.3575,1.3237,1.3124,1.3088,1.2904,1.2864,1.2864,1.2864,1.2864,1.2864,1.2864,1.2864,1.2864,1.2864,1.2864,1.2864,1.2864,1.2831,1.2803,1.2803,1.2803,1.2803,1.2803,1.2803,1.2803,1.2803,0.0,0.0,1.2803,1.2523,1.2474,1.2787,1.2523,1.2358,1.2358,1.2358,1.2342,1.2292,1.1694,1.1607,1.2059,1.1392,1.0914,1.0627,1.0127,0.9854,0.0,0.0,0.0,0.0,0.0,0.0,0.0,0.0,0.0,0.0,0.0,0.0,0.0,0.0,0.0,1.8824,1.9271,1.9653,1.9706,2.0142,2.0349,2.0079,2.0566,2.0926,2.0926,2.147,2.1833,2.1833,2.2121,2.2321,2.2321,2.2575,2.2753,2.2806,2.2796,2.284,2.2893,2.2893,2.2893,2.2893,0.0,0.0,2.2893,2.2893,2.2893,2.2893,2.2893,2.2893,2.2893,2.2893,2.2893,2.2887,2.2833,2.2636,2.2407,2.2348,2.1376,2.0099,2.0242,1.9112,1.7602,1.7491,1.7264,1.6809,1.5553,1.5166,0.0,1.3682,1.3336,1.3324,1.3296,1.3284,1.3284,1.3284,1.3284,1.3284,1.3284,1.3284,1.3284,1.3284,1.3284,1.3284,1.3284,1.301,1.2803,1.2803,1.2803,1.2803,1.2803,1.2803,1.2803,1.2803,1.2803,1.2803,1.2803,1.2737,1.2737,1.2803,1.2737,1.2704,1.2704,1.2704,1.2572,1.2309,1.2424,1.2277,1.1863,1.161,1.1287,1.0913,1.0585,1.0217,0.0,0.0,0.0,0.0,0.0,0.0,0.0,0.0,0.0,0.0,0.0,1.869,1.869,0.0,1.9344,1.9344,1.9711,2.0105,2.0414,2.0708,2.0835,2.0673,2.1062,2.1406,2.1537,2.1944,2.2205,2.2205,2.2478,2.2656,2.2656,2.2813,2.2893,2.2893,2.2893,2.2893,2.2893,2.2893,2.2893,2.2893,2.2893,2.2893,2.29,2.3043,2.3023,2.2907,2.3043,2.3023,2.2893,2.2893,2.2893,2.2893,2.2893,2.2893,2.2893,2.2893,2.2407,2.1745,2.1667,2.0636,1.9341,1.9278,1.8754,1.8012,1.7227,1.7008,1.6833,1.599,1.5756,1.5561,1.4716,1.4506,1.4301,1.3574,1.3406,1.3406,1.3406,1.3406,1.3406,1.3406,1.3406,1.3406,1.3406,1.3222,1.3072,1.2966,1.2949,1.2949,1.2949,1.3047,1.3104,1.3104,1.3002,1.2949,1.2949,1.2852,1.2803,1.2803,1.2803,1.2803,1.2803,1.2803,1.2721,1.2556,1.2556,1.2474,1.2292,1.1891,1.156,1.1297,1.0964,1.0477,0.0,0.0,0.0,0.0,0.0,0.0,0.0,0.0,1.8577,1.8577,1.8804,1.9011,1.9071,1.9464,1.982,1.9873,2.0159,2.0537,2.1026,2.1209,2.128,2.1356,2.1593,2.1843,2.2061,2.2331,2.2505,2.2505,2.2743,2.2893,2.2893,2.2893,2.2893,2.2893,2.2893,2.2927,2.2987,2.2987,2.3014,2.3074,2.3074,2.3074,2.3081,2.33,2.3273,2.3087,2.3307,2.3267,2.3067,2.2997,2.2987,2.2963,2.292,2.2893,2.2893,2.2893,2.2893,2.2893,2.2893,2.2097,2.1044,2.1044,2.0236,1.9222,1.8926,1.8839,1.8673,1.7917,1.7714,1.7327,1.5684,1.5265,1.4973,1.378,1.3491,1.3491,1.3491,1.3491,1.3491,1.3491,1.3491,1.3491,1.3491,1.3462,1.3381,1.319,1.3166,1.3166,1.3166,1.3296,1.3406,1.3406,1.3255,1.3133,1.3096,1.2949,1.284,1.2807,1.2803,1.2803,1.2803,1.2803,1.2803,1.2803,1.2523,1.2507,1.2704,1.216,1.1808,1.1628,1.1201,1.0668,1.8317,1.8404,1.8411,1.8444,1.8444,1.845,0.0,0.0,1.8864,1.8864,1.9112,1.9421,1.9653,1.9753,1.9887,2.011,2.0633,2.1013,2.108,2.1557,2.1984,2.2221,2.2288,2.2321,2.2348,2.2656,2.2847,2.2847,2.288,2.2893,2.2893,2.2893,2.2893,2.2893,2.2893,2.301,2.3256,2.3256,2.3407,2.3703,2.3703,2.3703,2.3703,2.3725,2.3736,2.371,2.3725,2.3736,2.3683,2.3387,2.3256,2.3229,2.2983,2.2893,2.2893,2.2893,2.2893,2.2893,2.2893,2.2791,2.2636,2.2636,2.2527,2.2143,2.0768,2.0346,1.9785,1.7085,1.6329,1.5971,1.4478,1.4088,1.4052,1.3879,1.3843,1.3843,1.3843,1.3843,1.3843,1.3843,1.3843,1.3843,1.3843,1.37,1.3533,1.3385,1.3374,1.3374,1.3374,1.3394,1.3406,1.3406,1.3386,1.3292,1.3125,1.3076,1.2982,1.2815,1.2803,1.2803,1.2803,1.2803,1.2803,1.2803,1.2754,1.2622,1.2358,1.2276,1.2083,1.1767,1.1239,1.0743,1.8457,1.8504,1.8544,0.0,1.873,1.877,1.8979,1.9113,1.9246,1.9384,1.9547,1.9706,1.9985,2.0194,2.0408,0.0,2.1096,2.1506,2.1807,2.2061,2.2345,2.2656,2.2696,2.2696,2.2696,2.282,2.2893,2.2893,2.2893,2.2893,2.2893,2.2893,2.2963,2.3126,2.3133,2.328,2.3581,2.3587,2.3665,2.381,2.381,2.381,2.3817,2.3959,2.4022,2.4015,2.3859,2.381,2.3797,2.3658,2.3587,2.3554,2.3253,2.3133,2.3113,2.2967,2.2893,2.2893,2.2893,2.2893,2.2893,2.2893,2.2893,2.2774,2.2125,2.1936,2.1672,2.0409,2.0063,1.9501,1.7122,1.6529,1.6075,1.4324,1.39,1.39,1.39,1.39,1.39,1.39,1.39,1.39,1.39,1.3825,1.3766,1.371,1.3595,1.3513,1.3513,1.362,1.3644,1.3525,1.3513,1.3396,1.312,1.3092,1.3002,1.2815,1.2803,1.2803,1.2803,1.2803,1.2803,1.2803,1.2803,1.2737,1.2589,1.2408,1.2226,1.2074,1.166,1.1246,1.8745,1.8745,0.0,1.8998,1.9045,1.9098,1.9333,1.9461,1.9561,1.976,1.9867,1.9992,2.0286,2.0595,2.0904,2.1182,2.1559,2.1954,2.2341,2.2475,2.2619,2.2873,2.2893,2.2893,2.2893,2.2893,2.2893,2.2893,2.2893,2.2893,2.2893,2.2963,2.3093,2.3285,2.3389,2.3594,2.3906,2.3906,2.3946,2.4026,2.4026,2.4026,2.4033,2.4229,2.4304,2.4291,2.4102,2.4026,2.4001,2.3939,2.3906,2.3879,2.3567,2.3383,2.3283,2.3073,2.2957,2.2893,2.2893,2.2893,2.2893,2.2893,2.2893,2.2893,2.2893,2.2893,2.2808,2.239,2.2269,2.1672,1.9066,1.8397,1.786,1.5655,1.5146,1.5146,1.5146,1.5146,1.5146,1.5146,1.5146,1.5146,1.5146,1.5146,1.5146,1.5146,1.5013,1.4614,1.3784,1.3805,1.3838,1.3694,1.3678,1.3552,1.3254,1.3202,1.3096,1.2901,1.2827,1.2803,1.2803,1.2803,1.2803,1.2803,1.2803,1.2803,1.2803,1.2556,1.2441,1.2424,1.2094,1.178,1.9368,1.9368,1.9368,1.9381,1.9381,1.9388,1.9395,1.9601,1.9786,1.98,2.0012,2.0292,2.0623,2.0918,2.1196,2.1522,2.2034,2.2381,2.2395,2.2682,2.2887,2.2893,2.2893,2.2893,0.0,2.2893,2.2893,2.2893,2.2893,2.2893,2.2893,2.3146,2.3296,2.3292,2.3625,2.3912,2.4189,2.4189,2.4317,2.4572,2.4572,2.4572,2.4572,2.4579,2.4586,2.4586,2.4579,2.4572,2.4552,2.4309,2.4189,2.4162,2.3892,2.3581,2.3292,2.3296,2.312,2.2893,2.2893,2.2893,2.2893,2.2893,2.2893,2.2893,2.2893,2.2893,2.2595,2.1085,2.0664,2.0311,1.8804,1.8397,1.8385,1.8292,1.8257,1.8257,1.8257,1.8257,1.8257,1.8257,1.8257,1.8257,1.8257,1.8257,1.8257,1.8257,1.8252,1.72,1.428,1.3896,1.39,1.3896,1.3892,1.3805,1.3605,1.3465,1.3317,1.3096,1.2913,1.2803,1.2803,1.2803,1.2803,1.2803,1.2803,1.2803,1.2803,1.2787,1.2787,1.2787,1.2441,1.2276,1.9395,1.9395,1.9395,1.9395,1.9527,1.9674,1.9674,1.9865,2.0132,2.0356,2.0615,2.0909,2.1234,2.1529,2.179,2.2078,2.2275,2.2475,2.2702,2.2833,2.2893,2.2893,2.2893,0.0,0.0,0.0,0.0,2.2893,2.2893,2.2987,2.316,2.3249,2.349,2.3877,2.4008,2.4195,2.4452,2.4471,2.4499,2.4599,2.4599,2.4599,2.4599,2.4599,2.4599,2.4599,2.4599,2.4599,2.4592,2.4492,2.4471,2.4444,2.4168,2.3995,2.3843,2.3449,2.3243,2.314,2.2967,2.2893,2.2893,2.2893,2.2893,2.2893,2.2893,2.2893,2.2791,2.2269,2.2132,2.1781,2.0242,1.9854,1.9611,1.8629,1.8397,1.8397,1.8397,1.8397,1.8397,1.8397,1.8397,1.8397,1.8397,1.8397,1.8397,1.8397,1.8397,1.8035,1.7017,1.6899,1.6899,1.6899,1.6899,1.6792,1.6602,1.5656,1.4927,1.4575,1.3586,1.2941,1.2807,1.2803,1.2803,1.2803,1.2803,1.2803,1.2803,1.2803,1.2803,1.2803,1.2688,1.2507,1.9395,1.9475,1.9534,1.9534,1.974,1.9938,1.9938,2.0165,2.0448,2.0666,2.1011,2.1345,2.1565,2.191,2.2205,2.2375,2.2505,2.2645,2.2873,2.2893,2.2893,2.2893,2.2893,2.2893,0.0,0.0,0.0,2.2893,2.2983,2.3113,2.3296,2.3492,2.3797,2.4195,2.4284,2.4431,2.4599,2.4599,2.4599,2.4599,2.4599,2.4599,2.4599,2.4599,2.4599,2.4599,2.4599,2.4599,2.4599,2.4599,2.4599,2.4579,2.4411,2.4277,2.4155,2.3763,2.349,2.3269,2.2983,2.2893,2.2893,2.2893,2.2893,2.2893,2.2893,2.2893,2.2893,2.2893,2.2893,2.2671,2.1672,2.1413,2.1189,2.0236,2.0011,2.0011,2.0011,2.0011,2.0011,2.0011,2.0011,2.0011,2.0011,2.0011,2.0011,2.0011,2.0011,1.9623,1.8537,1.8397,1.8397,1.8397,1.8397,1.8355,1.8227,1.7274,1.6321,1.5469,1.4443,1.379,1.3555,1.3062,1.3046,1.3535,1.3062,1.2803,1.2803,1.2803,1.2803,1.2803,1.2803,1.2688,1.9415,1.9607,1.9806,1.982,2.0025,2.0224,2.0224,2.0481,2.0717,2.0717,2.1194,2.1625,0.0,0.0,2.2422,2.2422,2.2696,2.2893,2.2893,2.2893,2.2893,0.0,0.0,0.0,0.0,0.0,0.0,2.292,2.316,2.3316,2.3312,2.3877,2.4209,2.4222,2.4471,2.4599,2.4599,2.4599,2.4599,2.4599,2.4599,2.4599,2.4599,2.4599,2.4599,2.4599,2.4599,2.4599,2.4599,2.4599,2.4599,2.4599,2.4599,2.4451,2.4222,2.4209,2.3823,2.3289,2.301,2.2914,2.2893,2.2893,2.2893,2.2893,2.2893,2.2893,2.2893,2.2893,2.2893,2.2893,2.2893,2.2893,2.2893,2.2893,2.2893,2.2893,2.2893,2.2893,2.2893,2.2893,2.2893,2.2893,2.2893,2.2893,2.2893,2.2893,2.2893,2.1861,1.8996,1.8624,1.8624,1.8624,1.8624,1.8624,1.8624,1.8376,1.7549,1.5955,1.5582,1.5305,1.5045,1.3732,1.3617,1.488,1.3596,1.2869,1.2803,1.2803,1.2803,1.2803,1.2803,1.2803,1.9647,1.974,1.9853,2.0052,2.0347,2.0577,2.0577,2.0788,2.0995,2.0995,2.1479,2.191,2.191,2.2385,2.2763,2.2763,2.2847,0.0,2.2893,2.2893,0.0,2.2893,0.0,2.2893,2.2893,2.2893,0.0,0.0,2.3263,2.3403,2.3665,2.4001,2.4284,2.4486,2.4559,2.4599,2.4599,2.4599,2.4599,2.4599,2.4599,2.4599,2.4599,2.4599,2.4599,2.4599,2.4599,2.4599,2.4599,2.4599,2.4599,2.4599,2.4599,2.4552,2.4459,2.4264,2.3975,2.3632,2.3313,2.307,2.2893,2.2893,2.2893,2.2893,2.2893,2.2893,2.2893,2.2893,2.2893,2.2893,2.2893,2.2893,2.2893,2.2893,2.2893,2.2893,2.2893,2.2893,2.2893,2.2893,2.2893,2.2893,2.2893,2.2893,2.2893,2.2893,2.2893,2.2613,2.1844,2.1758,2.1758,2.1758,2.1758,2.1758,2.1758,2.0649,1.9743,1.9203,1.7863,1.6991,1.6773,1.6225,1.5603,1.4907,1.4553,1.3858,1.2803,1.2803,1.2803,1.2803,1.2803,1.2803,1.976,1.9987,2.0221,2.0388,2.0648,2.0884,2.0884,2.0995,2.1093,2.1093,2.1493,2.187,2.1981,2.2375,2.2729,0.0,0.0,0.0,2.2893,2.2893,2.2893,0.0,2.2893,0.0,2.2893,2.2893,2.301,0.0,2.3429,2.3647,2.3959,2.4235,2.4451,2.4599,2.4599,2.4599,2.4599,2.4599,2.4599,2.4599,2.4599,2.4599,2.4599,2.4599,2.4599,2.4599,0.0,2.4599,2.4599,2.4599,2.4599,2.4599,2.4599,2.4599,2.4579,2.4431,2.4128,2.3765,2.3581,2.3251,2.2893,2.2893,2.2893,2.2893,2.2893,2.2893,2.2893,2.2893,2.2893,2.2893,2.2893,2.2893,2.2893,2.2893,2.2893,2.2893,2.2893,2.2893,2.2893,2.2893,2.2893,2.2893,2.2893,2.2893,2.2893,2.2893,2.2893,2.2893,2.2893,2.2893,2.2893,2.2893,2.2893,2.2893,2.2893,2.2108,2.126,2.0447,1.9306,1.8567,1.8322,1.7472,1.691,1.67,1.6122,1.5136,1.3711,1.3711,1.3403,1.2803,1.2803,1.2803,1.9846,2.0276,2.0704,2.0737,2.0938,2.1093,2.1093,2.1093,2.1093,2.1093,2.1365,2.1676,2.1947,2.2225,2.2512,2.2847,0.0,2.2893,2.2893,2.2893,2.2893,2.2893,2.2893,2.2893,2.2893,2.2893,2.3023,2.3343,2.3645,2.3912,2.4189,2.4457,2.4599,2.4599,2.4599,2.4599,2.4599,2.4599,2.4599,2.4599,2.4599,2.4599,2.4599,2.4599,2.4599,2.4599,2.4599,2.4599,2.4599,2.4599,2.4599,2.4599,2.4599,2.4599,2.4599,2.4599,2.4269,2.381,2.381,2.3409,2.2893,2.2893,2.2893,2.2893,2.2893,2.2893,2.2893,2.2893,2.2893,2.2893,2.2893,2.2893,2.2893,2.2893,2.2893,2.2893,2.2893,2.2893,2.2893,2.2893,2.2893,2.2893,2.2893,2.2893,2.2893,2.2893,2.2893,2.2893,2.2893,2.2893,2.2893,2.2893,2.2893,2.2893,2.2893,2.2893,2.2278,2.0825,2.0381,2.0077,1.9844,1.8353,1.8005,1.8972,1.786,1.6576,1.5184,1.4989,1.4263,1.3062,1.2885,1.2803,2.0079,2.0414,2.075,2.0975,2.1076,2.1093,2.1093,2.1093,0.0,2.1093,2.1365,2.1676,2.1947,2.2225,2.2512,2.2847,2.2893,2.2893,2.2893,2.2893,2.2893,0.0,2.2893,2.2893,2.2893,2.2893,0.0,0.0,2.3777,2.3912,2.4189,2.4457,2.4599,2.4599,2.4599,2.4599,2.4599,2.4599,2.4599,2.4599,2.4599,2.4599,2.4599,2.4599,2.4599,2.4599,2.4599,0.0,2.4599,2.4599,2.4599,2.4599,2.4599,2.4599,2.4599,2.4599,2.4269,2.381,2.381,2.3409,2.2893,2.2893,2.2893,2.2893,2.2893,2.2893,2.2893,2.2893,2.2893,2.2893,2.2893,2.2893,2.2893,2.2893,2.2893,2.2893,2.2893,2.2893,2.2893,2.2893,2.2893,2.2893,2.2893,2.2893,2.2893,2.2893,2.2893,2.2893,2.2893,2.2893,2.2893,2.2893,2.2893,2.2893,2.2893,2.2893,2.2788,2.2472,2.1937,2.1605,2.1575,2.0805,1.9941,1.902,1.8764,1.7989,1.6635,1.5477,1.4765,1.4504,1.3342,1.2803,2.0388,2.0675,2.0935,2.1076,2.1093,2.1093,2.1093,2.1093,2.1093,2.1093,2.1223,2.1426,2.1743,2.2014,2.2291,2.2579,2.28,2.2893,2.2893,2.2893,2.2893,2.2893,2.2893,2.2893,2.2893,2.3023,2.3304,2.3777,2.3933,2.4122,2.4391,2.4526,2.4599,2.4599,2.4599,2.4599,2.4599,2.4599,2.4599,2.4599,2.4599,2.4599,2.4599,2.4599,2.4599,2.4599,2.4599,2.4599,2.4599,2.4599,2.4599,2.4599,2.4599,2.4599,2.4599,2.4599,2.4269,2.381,2.381,2.3409,2.2893,2.2893,2.2893,2.2893,2.2893,2.2893,2.2893,2.2893,2.2893,2.2893,2.2893,2.2893,2.2893,2.2893,2.2893,2.2893,2.2893,2.2893,2.2893,2.2893,2.2893,2.2893,2.2893,2.2893,2.2893,2.2893,2.2893,2.2893,2.2893,2.2893,2.2893,2.2893,2.2893,2.2893,2.2893,2.2893,2.2893,2.2893,2.2328,2.2001,2.2001,2.1423,2.0786,2.0106,2.009,1.9425,1.8037,1.7361,1.6667,1.5976,1.5298,1.4586,2.061,2.0904,2.1093,2.1093,2.1093,2.1093,2.1093,2.1093,2.1093,2.1093,2.1093,2.1203,2.1545,2.1823,2.2094,2.2355,2.2689,2.2893,2.2893,2.2893,2.2893,2.2893,2.2893,2.2893,2.2893,2.3146,0.0,2.3765,2.4102,2.4377,2.4586,2.4599,2.4599,2.4599,2.4599,2.4599,2.4599,2.4599,2.4599,2.4599,2.4599,2.4599,2.4599,2.4599,2.4599,2.4599,2.4599,2.4599,2.4599,2.4599,2.4599,2.4599,2.4599,2.4599,2.4599,2.4599,2.4269,2.381,2.381,2.3409,2.2893,2.2893,2.2893,2.2893,2.2893,2.2893,2.2893,2.2893,2.2893,2.2893,2.2893,2.2893,2.2893,2.2893,2.2893,2.2893,2.2893,2.2893,2.2893,2.2893,2.2893,2.2893,2.2893,2.2893,2.2893,2.2893,2.2893,2.2893,2.2893,2.2893,2.2893,2.2893,2.2893,2.2893,2.2893,2.2893,2.2893,2.2893,2.2328,2.2001,2.2001,2.1423,2.1093,2.1093,2.1093,2.0557,1.9457,1.9154,1.8454,1.7426,1.7136,1.6414,2.061,2.0904,2.1093,2.1093,2.1093,2.1093,2.1093,2.1093,2.1093,2.1093,2.1093,2.1203,2.1545,2.1823,2.2094,2.2355,2.2689,2.2893,2.2893,2.2893,2.2893,2.2893,2.2893,2.2893,2.2893,2.3146,2.3429,2.3765,2.4264,2.4572,2.4599,2.4599,2.4599,2.4599,2.4599,2.4599,2.4599,2.4599,2.4599,2.4599,2.4599,2.4599,2.4599,2.4599,2.4599,2.4599,2.4599,2.4599,0.0,2.4599,2.4599,2.4599,2.4599,2.4599,2.4599,2.4599,2.4269,2.381,2.381,2.3409,2.2893,2.2893,2.2893,2.2893,2.2893,2.2893,2.2893,2.2893,2.2893,2.2893,2.2893,2.2893,2.2893,2.2893,2.2893,2.2893,2.2893,2.2893,2.2893,2.2893,2.2893,2.2893,2.2893,2.2893,2.2893,2.2893,2.2893,2.2893,2.2893,2.2893,2.2893,2.2893,2.2893,2.2893,2.2893,2.2893,2.2893,2.2893,2.2328,2.2001,2.2001,2.1423,2.1093,2.1093,2.1093,2.1046,2.0897,1.9616,1.894,1.8796,1.7571,1.6931,2.0855,2.1022,2.1093,2.1093,2.1093,2.1093,2.1093,2.1093,2.1093,2.1093,2.1093,2.1203,2.1545,2.1823,2.2094,2.2355,2.2689,2.2893,2.2893,2.2893,2.2893,2.2893,2.2893,2.2893,2.2893,2.3324,2.3788,2.4255,2.4491,2.4599,2.4599,2.4599,2.4599,2.4599,2.4599,2.4599,2.4599,2.4599,2.4599,2.4599,2.4599,2.4599,2.4599,2.4599,2.4599,2.4599,2.4599,2.4599,0.0,2.4599,2.4599,2.4599,2.4599,2.4599,2.4579,2.4424,2.4122,2.3765,2.3567,2.3244,2.2893,2.2893,2.2893,2.2893,2.2893,2.2893,2.2893,2.2893,2.2893,2.2893,2.2893,2.2893,2.2893,2.2893,2.2893,2.2893,2.2893,2.2893,2.2893,2.2893,2.2893,2.2893,2.2893,2.2893,2.2893,2.2893,2.2893,2.2893,2.2893,2.2893,2.2893,2.2893,2.2893,2.2893,2.2893,2.2893,2.2893,2.2893,2.2328,2.2001,2.2001,2.1423,2.1093,2.1093,2.1093,2.1093,2.1093,2.0541,2.0265,2.0249,1.9718,1.901,2.1029,2.1093,2.1093,2.1093,2.1093,2.1093,2.1093,2.1093,2.1093,2.1093,2.1093,2.1203,2.1545,2.1823,2.2094,2.2355,2.2689,2.2893,2.2893,2.2893,2.2893,2.2893,2.2893,2.2893,2.2893,2.3449,2.4015,2.4559,2.4599,2.4599,2.4599,2.4599,2.4599,2.4599,2.4599,2.4599,2.4599,2.4599,2.4599,2.4599,2.4599,2.4599,2.4599,2.4599,2.4599,2.4599,2.4599,2.4599,0.0,2.4599,2.4599,2.4599,2.4599,2.4546,2.4464,2.4264,2.3961,2.3625,2.3383,2.312,2.2893,2.2893,2.2893,2.2893,2.2893,2.2893,2.2893,2.2893,2.2893,2.2893,2.2893,2.2893,2.2893,2.2893,2.2893,2.2893,2.2893,2.2893,2.2893,2.2893,2.2893,2.2893,2.2893,2.2893,2.2893,2.2893,2.2893,2.2893,2.2893,2.2893,2.2893,2.2893,2.2893,2.2893,2.2893,2.2893,2.2893,2.2893,2.2328,2.2001,2.2001,2.1423,2.1093,2.1093,2.1093,2.1093,2.1093,2.1093,2.1093,2.1093,2.1093,2.0351,2.1029,2.1093,2.1093,2.1093,2.1093,2.1093,2.1093,2.1093,2.1093,2.1093,2.1093,2.1203,2.1545,2.1823,2.2094,2.2355,2.2689,2.2893,2.2893,2.2893,2.2893,2.2893,2.2893,2.2893,2.2893,2.3449,2.4015,2.4559,2.4599,0.0,2.4599,2.4599,2.4599,2.4599,2.4599,2.4599,2.4599,2.4599,2.4599,2.4599,2.4599,2.4599,2.4599,2.4599,2.4599,2.4599,2.4599,2.4599,0.0,2.4599,2.4599,2.4599,2.4599,2.4444,2.4209,2.4202,2.3817,2.3292,2.3292,2.312,2.2893,2.2893,2.2893,2.2893,2.2893,2.2893,2.2893,2.2893,2.2893,2.2893,2.2893,2.2893,2.2893,2.2893,2.2893,2.2893,2.2893,2.2893,2.2893,2.2893,2.2893,2.2893,2.2893,2.2893,2.2893,2.2893,2.2893,2.2893,2.2893,2.2893,2.2893,2.2893,2.2893,2.2893,2.2893,2.2893,2.2893,2.2893,2.2328,2.2001,2.2001,2.1423,2.1093,2.1093,2.1093,2.1093,2.1093,2.1093,2.1093,2.1093,2.1093,2.0351,2.1082,2.1093,2.1093,2.1093,2.1093,2.1093,2.1093,2.1093,2.1093,2.1093,2.1093,2.1263,2.1773,2.194,2.2161,2.2656,2.2833,2.2893,2.2893,2.2893,2.2893,2.2893,2.2893,2.3061,2.3482,2.3696,2.4015,2.4559,2.4599,2.4599,2.4599,2.4599,2.4599,2.4599,2.4599,2.4599,2.4599,2.4599,2.4599,2.4599,2.4599,2.4599,2.4599,2.4599,2.4599,2.4599,2.4599,2.4599,2.4599,2.4599,2.4599,2.4579,2.4397,2.4264,2.4155,2.3737,2.3452,2.3276,2.3086,2.2963,2.2893,2.2893,2.2893,2.2893,2.2893,2.2893,2.2893,2.2893,2.2893,2.2893,2.2893,2.2893,2.2893,2.2893,2.2893,2.2893,2.2893,2.2893,2.2893,2.2893,2.2893,2.2893,2.2893,2.2893,2.2893,2.2893,2.2893,2.2893,2.2893,2.2893,2.2893,2.2893,2.2893,2.2893,2.2893,2.2893,2.2893,2.2893,2.2515,2.2191,2.2007,2.1633,2.1332,2.1093,2.1093,2.1093,2.1093,2.1093,2.1093,2.1093,2.1093,2.0865,2.1093,2.1093,2.1093,2.1093,2.1093,2.1093,2.1093,2.1093,2.1093,2.1093,2.1093,2.1289,2.1894,2.2001,2.2194,2.28,2.2893,2.2893,2.2893,2.2893,2.2893,2.2893,2.2893,2.3134,0.0,2.381,2.4015,2.4559,2.4599,2.4599,2.4599,2.4599,2.4599,2.4599,2.4599,2.4599,2.4599,2.4599,2.4599,2.4599,2.4599,2.4599,2.4599,2.4599,2.4599,2.4599,2.4599,2.4599,0.0,2.4599,2.4532,2.4437,2.4275,2.4068,2.381,2.3443,2.3236,2.3126,2.2967,2.2893,2.2893,2.2893,2.2893,2.2893,2.2893,2.2893,2.2893,2.2893,2.2893,2.2893,2.2893,2.2893,2.2893,2.2893,2.2893,2.2893,2.2893,2.2893,2.2893,2.2893,2.2893,2.2893,2.2893,2.2893,2.2893,2.2893,2.2893,2.2893,2.2893,2.2893,2.2893,2.2893,2.2893,2.2893,2.2893,2.2893,2.2893,2.2893,2.2579,2.2275,2.2014,2.1743,2.1442,2.1116,2.1093,2.1093,2.1093,2.1093,2.1093,2.1093,2.1093,2.1093,0.0,2.1093,2.1093,2.1093,2.1093,2.1093,2.1093,2.1093,0.0,2.1093,2.1093,2.1289,2.1894,2.2001,2.2194,2.28,2.2893,2.2893,2.2893,2.2893,0.0,0.0,2.2893,2.3128,2.3699,2.3797,2.4001,2.4526,2.4586,2.4599,2.4599,2.4599,2.4599,2.4599,2.4599,2.4599,2.4599,2.4599,2.4599,2.4599,2.4599,2.4599,2.4599,2.4599,2.4599,0.0,2.4599,2.4586,2.4566,2.4566,2.4417,2.4168,2.4148,2.379,2.3309,2.3283,2.3113,2.2893,2.2893,2.2893,2.2893,2.2893,2.2893,2.2893,2.2893,2.2893,2.2893,2.2893,2.2893,2.2893,2.2893,2.2893,2.2893,2.2893,2.2893,2.2893,2.2893,2.2893,2.2893,2.2893,2.2893,2.2893,2.2893,2.2893,2.2893,2.2893,2.2893,2.2893,2.2893,2.2893,2.2893,2.2893,2.2893,2.2893,2.2893,2.2893,2.2893,2.2893,2.2605,2.2318,2.2047,2.177,2.1475,2.1149,2.1107,2.1093,2.1093,2.1093,2.1093,2.1093,2.1093,2.1093,2.1093,0.0,2.1093,2.1093,2.1093,2.1093,0.0,2.1093,0.0,0.0,0.0,2.1289,2.1894,2.2001,2.2194,2.28,2.2893,2.2893,2.2893,2.2893,0.0,2.2893,2.2893,2.3047,2.3376,2.3658,2.3939,2.4264,2.4472,2.4599,2.4599,2.4599,2.4599,2.4599,2.4599,2.4599,2.4599,2.4599,2.4599,2.4599,2.4599,2.4599,2.4599,2.4599,2.4599,2.4599,2.4599,2.4472,2.4284,2.4284,2.4135,2.3866,2.3603,2.3412,2.3283,2.3077,2.2943,2.2893,2.2893,2.2893,2.2893,2.2893,2.2893,2.2893,2.2893,2.2893,2.2893,2.2893,2.2893,2.2893,2.2893,2.2893,2.2893,2.2893,2.2893,2.2893,2.2893,2.2893,2.2893,2.2893,2.2893,2.2893,2.2893,2.2893,2.2893,2.2893,2.2893,2.2893,2.2893,2.2893,2.2893,2.2893,2.2893,2.2893,2.2893,2.2893,2.2893,2.2893,2.2833,2.2642,2.2315,2.2054,2.176,2.1489,2.1223,2.1093,2.1093,2.1093,2.1093,2.1093,2.1093,2.1093,2.1093,2.1093,2.1093,2.1093,2.1093,2.1093,2.1093,0.0,0.0,0.0,0.0,2.1289,2.1894,2.2001,2.2194,2.28,2.2893,0.0,0.0,2.2893,2.2893,2.2893,2.2893,2.3003,0.0,2.3594,2.3906,2.4182,2.4457,2.4599,2.4599,2.4599,2.4599,2.4599,2.4599,2.4599,2.4599,2.4599,2.4599,2.4599,2.4599,2.4599,2.4599,2.4459,2.4417,2.4411,2.4295,2.4148,2.4026,2.4026,2.3834,2.3554,2.3369,2.3223,2.3093,2.296,2.2893,2.2893,2.2893,2.2893,2.2893,2.2893,2.2893,2.2893,2.2893,2.2893,2.2893,2.2893,2.2893,2.2893,2.2893,2.2893,2.2893,2.2893,2.2893,2.2893,2.2893,2.2893,2.2893,2.2893,2.2893,2.2893,2.2893,2.2893,2.2893,2.2893,2.2893,2.2893,2.2893,2.2893,2.2893,2.2893,2.2893,2.2893,2.2893,2.2893,2.2893,2.2893,2.2893,2.2749,2.2415,2.2138,2.18,2.1372,2.1189,2.1093,2.1093,2.1093,2.1093,2.1093,2.1093,2.1093,2.1093,2.1093,2.1093,2.1093,2.1093,2.1093,2.1093,0.0,0.0,0.0,0.0,0.0,2.1894,2.2001,0.0,0.0,0.0,0.0,2.2893,2.2893,2.2893,2.2893,2.2893,0.0,2.3216,2.3527,2.3839,2.4115,2.4391,2.4552,2.4599,2.4599,2.4599,2.4599,2.4559,2.4532,2.4532,2.4579,2.4579,2.4532,2.4532,2.4531,2.4477,2.423,2.4142,2.4122,0.0,0.0,2.3719,2.3719,2.3527,2.3236,2.3236,2.3093,2.2893,2.2893,2.2893,2.2893,2.2893,2.2893,2.2893,2.2893,2.2893,2.2893,2.2893,2.2893,2.2893,2.2893,2.2893,2.2893,2.2893,2.2893,2.2893,2.2893,2.2893,2.2893,2.2893,2.2893,2.2893,2.2893,2.2893,2.2893,2.2893,2.2893,2.2893,2.2893,2.2893,2.2893,2.2893,2.2893,2.2893,2.2893,2.2893,2.2893,2.2893,2.2893,2.2893,2.2893,2.2893,2.2723,2.2348,2.2118,2.1726,2.1107,2.1093,2.1093,2.1093,2.1093,2.1093,2.1093,2.1093,2.1093,2.1093,2.1093,2.1093,2.1093,2.1093,2.1093,2.1093,2.1093,0.0,0.0,0.0,0.0,0.0,2.2001,2.2194,0.0,0.0,2.2893,0.0,0.0,2.2893,2.2893,0.0,2.2914,2.2967,2.3213,2.3521,2.3832,2.4108,2.4357,2.4586,2.4599,2.4599,2.4599,2.4377,2.4269,2.4269,2.4497,2.4497,2.4269,2.4269,2.4142,2.3919,2.3872,2.3852,2.3852,0.0,2.3645,2.3376,2.3376,2.3213,2.2967,2.2967,2.294,2.2893,2.2893,2.2893,2.2893,2.2893,2.2893,2.2893,2.2893,2.2893,2.2893,2.2893,2.2893,2.2893,2.2893,2.2893,2.2893,2.2893,2.2893,2.2893,2.2893,2.2893,2.2893,2.2893,2.2893,2.2893,2.2893,2.2893,2.2893,2.2893,2.2893,2.2893,2.2893,2.2893,2.2893,2.2893,2.2893,2.2893,2.2893,2.2893,2.2893,2.2893,2.2893,2.2893,2.2893,2.2893,2.2653,2.2078,2.2027,2.1726,2.1107,2.1093,2.1093,2.1093,2.1093,2.1093,2.1093,2.1093,2.1093,2.1093,2.1093,2.1093,2.1093,2.1093,2.1093,2.1093,0.0,0.0,0.0,0.0,0.0,0.0,0.0,2.2375,2.2827,0.0,2.2893,2.2893,2.2893,2.2893,0.0,0.0,2.2893,2.2893,2.3146,2.3363,2.3521,2.3801,2.4046,2.4162,2.4168,2.4168,2.4168,2.4215,2.4255,2.4255,2.439,2.4282,2.3986,2.3986,2.3919,2.3785,2.3607,2.3534,2.3521,0.0,2.3235,2.3073,2.3073,2.301,2.2893,2.2893,2.2893,2.2893,2.2893,2.2893,2.2893,2.2893,2.2893,2.2893,2.2893,2.2893,2.2893,2.2893,2.2893,2.2893,2.2893,2.2893,2.2893,2.2893,2.2893,2.2893,2.2893,2.2893,2.2893,2.2893,2.2893,2.2893,2.2893,2.2893,2.2893,2.2893,2.2893,2.2893,2.2893,2.2893,2.2893,2.2893,2.2893,2.2893,2.2893,2.2893,2.2893,2.2893,2.2893,2.2893,2.2893,2.2893,2.2682,2.2238,2.2087,2.18,2.1372,2.1189,2.1093,2.1093,2.1093,2.1093,2.1093,2.1093,2.1093,2.1093,2.1093,2.1093,2.1093,2.1093,2.1093,2.1093,0.0,0.0,0.0,0.0,0.0,0.0,2.2325,0.0,2.286,2.2893,2.2893,2.2893,2.2893,2.2893,2.2893,2.2962,2.2986,2.2917,2.3166,2.3316,2.3303,2.3541,2.3712,2.3803,2.3874,2.391,2.391,2.4173,2.4326,2.4326,2.4258,2.4081,2.382,2.3738,2.3645,2.3583,2.332,2.3203,2.3189,2.2983,2.2893,2.2893,2.2893,2.2893,2.2893,2.2893,2.2893,2.2893,2.2893,2.2893,2.2893,2.2893,2.2893,2.2893,2.2893,2.2893,2.2893,2.2893,2.2893,2.2893,2.2893,2.2893,2.2893,2.2893,2.2893,2.2893,2.2893,2.2893,2.2893,2.2893,2.2893,2.2893,2.2893,2.2893,2.2893,2.2893,2.2893,2.2893,2.2893,2.2893,2.2893,2.2893,2.2893,2.2893,2.2893,2.2893,2.2893,2.2893,2.2893,2.2893,2.2893,2.2893,2.2749,2.2415,2.2138,2.1867,2.1612,2.1279,2.1093,2.1093,2.1093,2.1093,2.1093,2.1093,2.0912,2.1093,2.1093,2.1093,2.1093,2.1093,0.0,2.1093,2.1339,0.0,2.156,0.0,0.0,0.0,2.2649,2.2873,2.2893,2.2893,2.2893,2.2893,0.0,2.2893,2.2893,2.3167,2.3236,2.2934,2.3205,2.3375,2.3307,2.3329,2.348,2.3772,2.4088,2.4266,2.4266,2.4347,2.4397,2.4397,2.4152,2.398,2.3892,2.3511,2.3207,2.296,2.294,2.2927,2.2927,2.2907,2.2893,2.2893,2.2893,2.2893,2.2893,2.2893,2.2893,2.2893,2.2893,2.2893,2.2893,2.2893,2.2893,2.2893,2.2893,2.2893,2.2893,2.2893,2.2893,2.2893,2.2893,2.2893,2.2893,2.2893,2.2893,2.2893,2.2893,2.2893,2.2893,2.2893,2.2893,2.2893,2.2893,2.2893,2.2893,2.2893,2.2893,2.2893,2.2893,2.2893,2.2893,2.2893,2.2893,2.2893,2.2893,2.2893,2.2893,2.2893,2.2893,2.2893,2.2893,2.2893,2.2749,2.2415,2.2138,2.1867,2.1612,2.1279,2.1093,2.1093,2.1093,2.1093,2.1093,2.1093,2.0399,2.1093,2.1093,2.1093,2.1093,2.1093,0.0,0.0,2.1346,2.1411,2.1828,2.1989,0.0,0.0,0.0,2.2893,2.2893,2.2893,2.2893,2.2893,2.2893,2.2893,2.2893,2.3201,2.3355,2.3218,2.3543,2.3769,2.3732,2.3498,2.3535,2.3894,2.3814,2.3842,2.4108,2.4351,2.4452,2.4452,2.4356,2.4185,2.3962,2.355,2.3196,2.2893,2.2893,2.2893,2.2893,2.2893,2.2893,2.2893,2.2893,2.2893,2.2893,2.2893,2.2893,2.2893,2.2893,2.2893,2.2893,2.2893,2.2893,2.2893,2.2893,2.2893,2.2893,2.2893,2.2893,2.2893,2.2893,2.2893,2.2893,2.2893,2.2893,2.2893,2.2893,2.2893,2.2893,2.2893,2.2893,2.2893,2.2893,2.2893,2.2893,2.2893,2.2893,2.2893,2.2893,2.2893,2.2893,2.2893,2.2893,2.2893,2.2893,2.2893,2.2893,2.2893,2.2893,2.2893,2.2893,2.2893,2.2847,2.2716,2.2255,2.1954,2.1856,2.1365,2.1093,2.1093,2.1093,2.1093,2.1093,2.1093,2.0817,2.1093,2.1093,2.1125,2.1235,0.0,0.0,2.1655,2.1572,2.1537,2.1986,2.2172,0.0,0.0,0.0,0.0,0.0,2.2893,2.2893,2.2893,2.2893,2.2945,2.3047,2.3372,2.3594,2.3594,2.3925,2.4112,2.401,2.3737,2.372,2.3993,2.384,2.3867,2.4146,2.4503,2.4696,2.4696,2.4696,2.4503,2.4146,2.3884,2.3441,2.2893,2.2893,2.2893,2.2893,2.2893,2.2893,2.2893,2.2893,2.2893,2.2893,2.2893,2.2893,2.2893,2.2893,2.2893,2.2893,2.2893,2.2893,2.2893,2.2893,2.2893,2.2893,2.2893,2.2893,2.2893,2.2893,2.2893,2.2893,2.2893,2.2893,2.2893,2.2893,2.2893,2.2893,2.2893,2.2893,2.2893,2.2893,2.2893,2.2893,2.2893,2.2893,2.2893,2.2893,2.2893,2.2893,2.2893,2.2893,2.2893,2.2893,2.2893,2.2893,2.2893,2.2893,2.2893,2.2893,2.2893,2.2893,2.2893,2.2315,2.2001,2.2001,2.141,2.1093,2.1093,2.1093,2.1093,2.1093,2.1093,2.0865,2.1093,2.1093,2.1188,0.0,0.0,0.0,2.1954,2.2102,2.2083,2.2013,0.0,2.3013,2.3338,2.3133,0.0,2.2893,2.2893,2.2893,2.2893,2.2893,2.303,2.3372,2.3765,2.3993,2.3993,2.4316,2.4367,2.4044,2.401,2.401,2.401,2.4316,2.4503,2.4503,2.4883,2.511,2.511,2.511,2.4899,2.4503,2.4503,2.3935,2.2893,2.2893,2.2893,2.2893,2.2893,2.2893,2.2893,2.2893,2.2893,2.2893,2.2893,2.2893,2.2893,2.2893,2.2893,2.2893,2.2893,2.2893,2.2893,2.2893,2.2893,2.2893,2.2893,2.2893,2.2893,2.2893,2.2893,2.2893,2.2893,2.2893,2.2893,2.2893,2.2893,2.2893,2.2893,2.2893,2.2893,2.2893,2.2893,2.2893,2.2893,2.2893,2.2893,2.2893,2.2893,2.2893,2.2893,2.2893,2.2893,2.2893,2.2893,2.2893,2.2893,2.2893,2.2893,2.2893,2.2893,2.2893,2.2893,2.2315,2.2007,2.2001,2.141,2.1093,2.1093,2.1093,2.1093,2.1093,2.1093,2.0351,2.1093,2.1267,0.0,2.1576,0.0,0.0,0.0,2.1917,0.0,0.0,2.2795,2.3201,2.3065,2.315,0.0,2.2945,2.3099,2.3253,2.3253,2.3253,2.3389,2.3789,2.4146,2.435,2.435,2.4696,2.4883,2.4781,2.4503,2.4486,2.4764,2.4604,2.4621,2.4916,2.5035,2.511,2.511,2.511,2.4899,2.4503,2.4503,2.4054,2.3253,2.3253,2.3116,2.2893,2.2893,2.2893,2.2893,2.2893,2.2893,2.2893,2.2893,2.2893,2.2893,2.2893,2.2893,2.2893,2.2893,2.2893,2.2893,2.2893,2.2893,2.2893,2.2893,2.2893,2.2893,2.2893,2.2893,2.2893,2.2893,2.2893,2.2893,2.2893,2.2893,2.2893,2.2893,2.2893,2.2893,2.2893,2.2893,2.2893,2.2893,2.2893,2.2893,2.2893,2.2893,2.2893,2.2893,2.2893,2.2893,2.2893,2.2893,2.2893,2.2893,2.2893,2.2893,2.2893,2.2893,2.2893,2.2893,2.2492,2.2191,2.2007,2.1633,2.1339,2.1093,2.1093,2.1093,2.1093,2.1093,2.0351,2.1093,2.1339,0.0,2.1592,2.1702,2.1875,2.2189,0.0,0.0,0.0,2.3225,2.3389,2.3345,2.3499,0.0,2.315,2.3406,2.3577,2.3423,2.3543,2.3782,2.4146,2.4384,2.4553,2.473,2.495,2.511,2.511,2.4883,2.4832,2.5086,2.4866,2.4849,2.5086,2.511,2.511,2.511,2.511,2.4984,2.4747,2.4747,2.4418,2.3833,2.3526,2.3218,2.2893,2.2893,2.2893,2.2893,2.2893,2.2893,2.2911,2.3047,2.3099,2.3099,2.3099,2.3099,2.3082,2.2945,2.2893,2.2893,2.2893,2.2893,2.2893,2.2893,2.2893,2.2893,2.2893,2.2893,2.2893,2.2893,2.2893,2.2893,2.2893,2.2893,2.2893,2.2893,2.2893,2.2893,2.2893,2.2893,2.2893,2.2893,2.2893,2.2893,2.2893,2.2893,2.2893,2.2893,2.2893,2.2893,2.2893,2.2893,2.2893,2.2893,2.2893,2.2893,2.2893,2.2893,2.2893,2.2893,2.2579,2.2321,2.2164,2.191,2.1653,2.1456,2.1456,2.1456,2.144,2.0854,2.013,2.1141,2.1387,2.1655,2.1655,2.1917,0.0,2.2495,2.2547,2.2802,2.375,0.0,2.3577,2.3925,2.3993,2.3874,2.3509,2.3765,2.3874,2.3543,2.3799,2.4163,2.4503,2.4553,2.4706,2.5052,2.511,2.511,2.511,2.511,2.511,2.511,2.511,2.511,2.511,2.511,2.511,2.511,2.511,2.511,2.511,2.511,2.4883,2.4486,2.3765,2.3253,2.2893,2.2934,2.2945,2.2945,2.2986,2.2996,2.303,2.3304,2.3406,2.3406,2.3372,2.3355,2.3304,2.3013,2.2893,2.2893,2.2893,2.2893,2.2893,2.2893,2.2893,2.2893,2.2893,2.2893,2.2893,2.2893,2.2893,2.2893,2.2893,2.2893,2.2893,2.2893,2.2893,2.2893,2.2893,2.2893,2.2893,2.2893,2.2893,2.2893,2.2893,2.2893,2.2893,2.2893,2.2893,2.2893,2.2893,2.2893,2.2893,2.2893,2.2893,2.2893,2.2893,2.2893,2.2893,2.2893,2.2605,2.2428,2.2402,2.2158,2.2027,2.2001,2.2001,2.1935,2.177,2.0416,1.9661,2.1418,2.1734,0.0,2.1985,2.2395,2.2818,2.2885,2.3295,2.3637,2.3546,2.372,2.3908,2.3976,2.3993,2.3976,2.3891,2.3942,2.4061,2.4248,2.435,2.4536,2.4916,2.4967,2.5001,2.5086,2.511,2.511,2.511,2.511,2.511,2.511,2.511,2.511,2.511,2.511,2.511,2.511,2.511,2.511,2.511,2.511,2.4883,2.4486,2.4061,2.3509,2.2911,2.3184,2.3287,2.3321,2.3635,2.3754,2.3737,2.3492,2.3406,2.3372,2.3099,2.3013,2.2996,2.2934,2.2893,2.2893,2.2893,2.2893,2.2893,2.2893,2.2893,2.2893,2.2893,2.2893,2.2893,2.2893,2.2893,2.2893,2.2893,2.2893,2.2893,2.2893,2.2893,2.2893,2.2893,2.2893,2.2893,2.2893,2.2893,2.2893,2.2893,2.2893,2.2893,2.2893,2.2893,2.2893,2.2893,2.2893,2.2893,2.2893,2.2893,2.2893,2.2893,2.2893,2.2893,2.2893,2.2833,2.2669,2.2408,2.2341,2.2211,2.2001,2.2001,2.14,2.0267,1.9945,1.8563,2.152,2.1844,2.2225,2.2704,0.0,2.3316,2.3448,2.3867,2.418,2.3969,2.4088,2.4248,2.4248,2.4401,2.4452,2.4265,2.4401,2.4527,2.4503,2.4672,2.4866,2.5076,2.511,2.511,2.511,2.511,2.511,2.511,2.511,2.511,2.511,2.511,2.511,2.511,2.511,2.511,2.511,2.511,2.511,2.511,2.511,2.4883,2.4486,2.4146,2.3789,2.3441,2.3611,2.3696,2.3696,2.3908,2.3993,2.3993,2.3959,2.3833,2.3662,2.3492,2.3304,2.3116,2.2969,2.2893,2.2893,2.2893,2.2893,2.2893,2.2893,2.2893,2.2893,2.2893,2.2893,2.2893,2.2893,2.2893,2.2893,2.2893,2.2893,2.2893,2.2893,2.2893,2.2893,2.2893,2.2893,2.2893,2.2893,2.2893,2.2893,2.2893,2.2893,2.2893,2.2893,2.2893,2.2893,2.2893,2.2893,2.2893,2.2893,2.2893,2.2893,2.2893,2.2893,2.2893,2.2893,2.2893,2.282,2.2632,2.2649,2.2575,2.2422,2.1685,2.0936,2.0157,1.8697,1.7205,2.152,2.1894,2.2409,2.3355,2.3639,2.3741,2.3949,2.4307,2.4587,2.4503,2.4503,2.452,2.4587,2.4815,2.4916,2.4655,2.4815,2.4899,2.4638,2.4883,2.511,2.511,2.511,2.511,2.511,2.511,2.511,2.511,2.511,2.511,2.511,2.511,2.511,2.511,2.511,2.511,2.511,2.511,2.511,2.511,2.511,2.4933,2.4587,2.4316,2.4112,2.3993,2.4061,2.4095,2.4095,2.4163,2.4197,2.4197,2.4367,2.4248,2.3976,2.3857,2.3594,2.327,2.2996,2.2893,2.2893,2.2893,2.2893,2.2893,2.2893,2.2893,2.2893,2.2893,2.2893,2.2893,2.2893,2.2893,2.2893,2.2893,2.2893,2.2893,2.2893,2.2893,2.2893,2.2893,2.2893,2.2893,2.2893,2.2893,2.2893,2.2893,2.2893,2.2893,2.2893,2.2893,2.2893,2.2893,2.2893,2.2893,2.2893,2.2893,2.2893,2.2893,2.2893,2.2893,2.2893,2.2893,2.2893,2.2893,2.2893,2.2774,2.2493,2.1223,2.0335,1.9756,1.7256,1.596,2.152,2.2053,2.27,2.3422,2.3829,2.4037,2.3999,2.4525,2.4916,2.457,2.4503,2.4604,2.495,2.4781,2.4672,2.4967,2.4781,2.4672,2.4984,2.5076,2.511,2.511,2.511,2.511,2.511,2.511,2.511,2.511,2.511,2.511,2.511,2.511,2.511,2.511,2.511,2.511,2.511,2.511,2.511,2.511,2.511,2.5076,2.5025,2.4974,2.4595,2.4027,2.4316,2.4435,2.4452,2.4815,2.495,2.4883,2.4299,2.4044,2.3925,2.327,2.3013,2.2969,2.2911,2.2893,2.2893,2.2893,2.2893,2.2893,2.2893,2.2893,2.2893,2.2893,2.2893,2.2893,2.2893,2.2893,2.2893,2.2893,2.2893,2.2893,2.2893,2.2893,2.2893,2.2893,2.2893,2.2893,2.2893,2.2893,2.2893,2.2893,2.2893,2.2893,2.2893,2.2893,2.2893,2.2893,2.2893,2.2893,2.2893,2.2893,2.2893,2.2893,2.2893,2.2893,2.2893,2.2893,2.2893,2.2893,2.2893,2.2235,2.0912,2.0698,1.9269,1.6697,1.6296,1.5416,2.2194,2.2736,2.3272,2.3979,2.4274,2.4421,2.4578,2.4865,2.5059,2.4866,2.4832,2.4883,2.5076,2.495,2.4883,2.5076,2.495,2.4899,2.5076,2.511,2.511,2.511,2.511,2.511,2.511,2.511,2.511,2.511,2.511,2.511,2.511,2.511,2.511,2.511,2.511,2.511,2.511,2.511,2.511,2.511,2.511,2.511,2.511,2.511,2.4916,2.4628,2.4781,2.4832,2.4849,2.5035,2.4967,2.4723,2.4418,2.4027,2.3611,2.3304,2.3065,2.2893,2.2893,2.2893,2.2893,2.2893,2.2893,2.2893,2.2893,2.2893,2.2893,2.2893,2.2893,2.2893,2.2893,2.2893,2.2893,2.2893,2.2893,2.2893,2.2893,2.2893,2.2893,2.2893,2.2893,2.2893,2.2893,2.2893,2.2893,2.2893,2.2893,2.2893,2.2893,2.2893,2.2893,2.2893,2.2893,2.2893,2.2893,2.2893,2.2893,2.2893,2.2893,2.2893,2.2893,2.2893,2.2893,2.2893,2.2039,2.1275,2.0595,1.8897,1.7396,1.6084,1.5257,1.4519,2.2907,2.3313,2.368,2.442,2.4661,2.4793,2.5034,2.511,2.511,2.511,2.511,2.511,2.511,2.511,2.511,2.511,2.511,2.511,2.511,2.511,2.511,2.511,2.511,2.511,2.511,2.511,2.511,2.511,2.511,2.511,2.511,2.511,2.511,2.511,2.511,2.511,2.511,2.511,2.511,2.511,2.511,2.511,2.511,2.511,2.511,2.511,2.511,2.511,2.511,2.511,2.4866,2.4486,2.4418,2.3969,2.3389,2.3304,2.3116,2.2893,2.2893,2.2893,2.2893,2.2893,2.2893,2.2893,2.2893,2.2893,2.2893,2.2893,2.2893,2.2893,2.2893,2.2893,2.2893,2.2893,2.2893,2.2893,2.2893,2.2893,2.2893,2.2893,2.2893,2.2893,2.2893,2.2893,2.2893,2.2893,2.2893,2.2893,2.2893,2.2893,2.2893,2.2893,2.2893,2.2893,2.2893,2.2893,2.2893,2.2893,2.2893,2.2893,2.2893,2.2893,2.2722,2.2321,2.082,2.0034,2.0028,1.7391,1.5907,1.55,1.4413,1.39,2.3378,2.3542,2.3676,2.4412,2.4836,2.5088,2.5102,2.511,2.511,2.511,2.511,2.511,2.511,2.511,2.511,2.511,2.511,2.511,2.511,2.511,2.511,2.511,2.511,2.511,2.511,2.511,2.511,2.511,2.511,2.511,2.511,2.511,2.511,2.511,2.511,2.511,2.511,2.511,2.511,2.511,2.511,2.511,2.511,2.511,2.511,2.511,2.511,2.511,2.511,2.511,2.4866,2.4469,2.4146,2.3771,2.3355,2.3047,2.2911,2.2893,2.2893,2.2893,2.2893,2.2893,2.2893,2.2893,2.2893,2.2893,2.2893,2.2893,2.2893,2.2893,2.2893,2.2893,2.2893,2.2893,2.2893,2.2893,2.2893,2.2893,2.2893,2.2893,2.2893,2.2893,2.2893,2.2893,2.2893,2.2893,2.2893,2.2893,2.2893,2.2893,2.2893,2.2893,2.2893,2.2893,2.2893,2.2893,2.2893,2.2893,2.2893,2.2893,2.2893,2.2893,2.2218,2.075,1.9275,1.8507,1.8507,1.6886,1.5381,1.4007,1.3936,1.39,2.3674,2.3842,2.3943,2.4415,2.4812,2.511,2.511,2.511,2.511,2.511,2.511,2.511,2.511,2.511,2.511,2.511,2.511,2.511,2.511,2.511,2.511,2.511,2.511,2.511,2.511,2.511,2.511,2.511,2.511,2.511,2.511,2.511,2.511,2.511,2.511,2.511,2.511,2.511,2.511,2.511,2.511,2.511,2.511,2.511,2.511,2.511,2.511,2.511,2.511,2.511,2.4866,2.4486,2.4367,2.4105,2.3771,2.3652,2.3441,2.3218,2.3218,2.3082,2.2893,2.2893,2.2893,2.2893,2.2893,2.2893,2.2893,2.2893,2.2893,2.2893,2.2893,2.2893,2.2893,2.2893,2.2893,2.2893,2.2893,2.2893,2.2893,2.2893,2.2893,2.2893,2.2893,2.2893,2.2893,2.2893,2.2893,2.2893,2.2893,2.2893,2.2893,2.2893,2.2893,2.2893,2.2893,2.2893,2.2893,2.2893,2.2893,2.2893,2.2893,2.2893,2.216,2.0629,1.9153,1.7912,1.6921,1.5412,1.4413,1.39,1.39,1.3757,2.4174,0.0,2.4112,2.457,2.4899,2.511,2.511,2.511,2.511,2.511,2.511,2.511,2.511,2.511,2.511,2.511,2.511,2.511,2.511,2.511,2.511,2.511,2.511,2.511,2.511,2.511,2.511,2.511,2.511,2.511,2.511,2.511,2.511,2.511,2.511,2.511,2.511,2.511,2.511,2.511,2.511,2.511,2.511,2.511,2.511,2.511,2.511,2.511,2.511,2.511,2.4866,2.4503,2.4503,2.4299,2.3976,2.3857,2.3628,2.3389,2.327,2.3082,2.2893,2.2893,2.2893,2.2893,2.2893,2.2893,2.2893,2.2893,2.2893,2.2893,2.2893,2.2893,2.2893,2.2893,2.2893,2.2893,2.2893,2.2893,2.2893,2.2893,2.2893,2.2893,2.2893,2.2893,2.2893,2.2893,2.2893,2.2893,2.2893,2.2893,2.2893,2.2893,2.2893,2.2893,2.2893,2.2893,2.2893,2.2893,2.2893,2.2893,2.2893,2.2893,2.193,1.9889,1.8909,1.7409,1.5363,1.4377,1.39,1.39,1.39,1.3615,0.0,0.0,0.0,2.4899,2.5086,2.511,2.511,2.511,2.511,2.511,2.511,2.511,2.511,2.511,2.511,2.511,2.511,2.511,2.511,2.511,2.5102,2.5153,2.5153,2.517,2.5221,2.5221,2.5221,2.5221,2.517,2.5153,2.5153,2.5127,2.511,2.511,2.511,2.511,2.511,2.511,2.511,2.511,2.511,2.511,2.511,2.511,2.511,2.511,2.511,2.511,2.511,2.511,2.4866,2.452,2.4503,2.4299,2.3976,2.3577,2.3406,2.3355,2.303,2.2917,2.2893,2.2893,2.2893,2.2893,2.2893,2.2893,2.2893,2.2893,2.2893,2.2893,2.2893,2.2893,2.2893,2.2893,2.2893,2.2893,2.2893,2.2893,2.2893,2.2893,2.2893,2.2893,2.2893,2.2893,2.2893,2.2893,2.2893,2.2893,2.2893,2.2893,2.2893,2.2893,2.2893,2.2893,2.2893,2.2893,2.2893,2.2893,2.2893,2.2893,2.2893,2.2859,2.1424,1.8467,1.8362,1.6876,1.39,1.39,1.39,1.39,1.3882,1.3472,2.4604,0.0,0.0,0.0,0.0,0.0,2.511,2.511,2.511,2.511,2.511,2.511,2.511,2.511,2.511,2.511,2.511,2.511,2.511,2.511,2.5466,2.6427,2.6544,2.6961,2.7974,2.8073,2.8073,2.8073,2.712,2.6544,2.6544,2.5635,2.511,2.511,2.511,2.511,2.511,2.511,2.511,2.511,2.511,2.511,2.511,2.511,2.511,2.511,2.511,2.511,2.511,2.511,2.5035,2.4916,2.4604,2.4435,2.4316,2.3959,2.3645,2.3389,2.3287,2.3099,2.2893,2.2893,2.2893,2.2893,2.2893,2.2893,2.2893,2.2893,2.2893,2.2893,2.2893,2.2893,2.2893,2.2893,2.2893,2.2893,2.2893,2.2893,2.2893,2.2893,2.2893,2.2893,2.2893,2.2893,2.2893,2.2893,2.2893,2.2893,2.2893,2.2893,2.2893,2.2893,2.2893,2.2893,2.2893,2.2893,2.2893,2.2893,2.2893,2.2893,2.2893,2.1833,2.0346,1.8437,1.7303,1.5797,1.39,1.39,1.39,1.3882,1.3347,1.2985,0.0,0.0,0.0,0.0,0.0,0.0,2.5813,2.5923,2.5923,2.5923,2.6401,2.6635,2.604,2.6418,2.6819,2.6819,2.6819,2.6618,2.6023,2.545,2.5813,2.7742,2.7485,2.7684,2.9076,2.9198,2.9198,2.9198,2.7908,2.6853,2.6301,2.5517,2.511,2.511,2.511,2.511,2.511,2.511,2.511,2.511,2.511,2.511,2.511,2.511,2.511,2.511,2.511,2.511,2.5086,2.4916,2.495,2.5052,2.4655,2.4503,2.4435,2.3935,2.3594,2.3389,2.3236,2.3065,2.2893,2.2893,2.2893,2.2893,2.2893,2.2893,2.2893,2.2893,2.2893,2.2893,2.2893,2.2893,2.2893,2.2893,2.2893,2.2893,2.2893,2.2893,2.2893,2.2893,2.2893,2.2893,2.2893,2.2893,2.2893,2.2893,2.2893,2.2893,2.2893,2.2893,2.2893,2.2893,2.2893,2.2893,2.2893,2.2893,2.2893,2.2893,2.2893,2.2893,2.2893,2.1413,1.9912,1.8432,1.6886,1.5363,1.39,1.39,1.39,1.3882,1.3146,1.2807,0.0,0.0,0.0,0.0,0.0,0.0,2.6611,2.6886,2.6886,2.6886,2.7874,2.8361,2.712,2.7908,2.874,2.874,2.8879,2.8575,2.7494,2.6301,2.6518,2.9117,2.8386,2.8172,2.9542,2.9681,2.9681,2.9681,2.8213,2.6744,2.5382,2.517,2.511,2.511,2.511,2.511,2.511,2.511,2.511,2.511,2.511,2.511,2.511,2.511,2.511,2.511,2.511,2.5076,2.5001,2.4655,2.4706,2.4984,2.4553,2.4377,2.4299,2.3594,2.3338,2.3304,2.2996,2.2893,2.2893,2.2893,2.2893,2.2893,2.2893,2.2893,2.2893,2.2893,2.2893,2.2893,2.2893,2.2893,2.2893,2.2893,2.2893,2.2893,2.2893,2.2893,2.2893,2.2893,2.2893,2.2893,2.2893,2.2893,2.2893,2.2893,2.2893,2.2893,2.2893,2.2893,2.2893,2.2893,2.2893,2.2893,2.2893,2.2893,2.2893,2.2893,2.2893,2.2825,2.2654,2.1165,1.9663,1.8175,1.6639,1.5203,1.39,1.39,1.3882,1.3829,1.3111,1.2771,0.0,0.0,0.0,0.0,0.0,0.0,2.5433,2.55,2.55,2.55,2.5712,2.5813,2.5534,2.5712,2.5897,2.5897,2.6811,2.7808,2.8674,2.8567,2.9018,3.0685,3.0669,3.1049,3.2454,3.2575,3.2575,3.2575,3.0225,2.8188,2.677,2.5695,2.511,2.511,2.511,2.511,2.511,2.511,2.511,2.511,2.511,2.511,2.511,2.511,2.511,2.511,2.511,2.4916,2.4604,2.4536,2.4553,2.4553,2.3884,2.3611,2.356,2.315,2.2996,2.2996,2.2911,2.2893,2.2893,2.2893,2.2893,2.2893,2.2893,2.2893,2.2893,2.2893,2.2893,2.2893,2.2893,2.2893,2.2893,2.2893,2.2893,2.2893,2.2893,2.2893,2.2893,2.2893,2.2893,2.2893,2.2893,2.2893,2.2893,2.2893,2.2893,2.2893,2.2893,2.2893,2.2893,2.2893,2.2893,2.2893,2.2893,2.2893,2.2893,2.2893,2.2893,2.2338,2.1102,1.9628,1.8105,1.6587,1.5097,1.4181,1.39,1.39,1.3722,1.3414,1.2985,1.2631,0.0,0.0,0.0,2.511,0.0,0.0,0.0,2.6107,2.6107,2.6107,2.6669,2.6928,2.6234,2.6661,2.7136,2.7136,2.8295,2.9451,3.0151,2.9639,2.9981,3.2094,3.1723,3.1861,3.326,3.3402,3.3108,3.2413,3.1049,2.9631,2.8213,2.7518,2.6811,2.6124,2.6107,2.5779,2.511,2.511,2.511,2.511,2.511,2.511,2.511,2.511,2.511,2.5086,2.4883,2.4696,2.4469,2.4105,2.3952,2.3918,2.3543,2.3406,2.3355,2.3013,2.2893,2.2893,2.2893,2.2893,2.2893,2.2893,2.2893,2.2893,2.2893,2.2893,2.2893,2.2893,2.2893,2.2893,2.2893,2.2893,2.2893,2.2893,2.2893,2.2893,2.2893,2.2893,2.2893,2.2893,2.2893,2.2893,2.2893,2.2893,2.2893,2.2893,2.2893,2.2893,2.2893,2.2893,2.2893,2.2893,2.2893,2.2893,2.2893,2.2893,2.2893,2.2893,2.2893,2.2218,2.0664,1.917,1.7338,1.5048,1.427,1.39,1.39,1.3704,1.3507,1.3289,1.276,1.2388,0.0,0.0,0.0,0.0,0.0,2.5382,0.0,0.0,0.0,2.6703,2.7626,2.8056,2.692,2.7643,2.8403,2.8403,2.9582,3.0482,3.0482,2.9753,3.0241,3.307,3.2406,3.2148,3.3292,3.314,3.2645,3.1771,3.1201,3.0524,2.9656,2.9346,2.8542,2.7128,2.7103,2.646,2.5102,2.511,2.511,2.511,2.511,2.511,2.511,2.511,2.5052,2.4967,2.4638,2.4418,2.4241,2.3645,2.3355,2.3304,2.3304,2.3304,2.327,2.2996,2.2893,2.2893,2.2893,2.2893,2.2893,2.2893,2.2893,2.2893,2.2893,2.2893,2.2893,2.2893,2.2893,2.2893,2.2893,2.2893,2.2893,2.2893,2.2893,2.2893,2.2893,2.2893,2.2893,2.2893,2.2893,2.2893,2.2893,2.2893,2.2893,2.2893,2.2893,2.2893,2.2893,2.2893,2.2893,2.2893,2.2893,2.2893,2.2893,2.2893,2.2893,2.2893,2.2893,2.2074,2.0242,1.8472,1.6388,1.3953,1.39,1.3864,1.3775,1.3396,1.32,1.3182,1.2513,1.2162,0.0,0.0,0.0,0.0,2.511,0.0,0.0,0.0,2.5339,2.5339,0.0,2.5517,2.5356,0.0,0.0,2.5568,2.6711,2.7585,2.7585,2.8509,3.0241,3.307,3.326,3.3219,3.3371,3.2269,3.1989,3.3076,3.0849,2.9916,3.0992,2.9875,2.8542,2.7128,2.7103,2.646,2.5102,2.511,2.511,2.511,2.511,2.511,2.511,2.511,2.4916,2.457,2.452,2.4122,2.3526,2.3423,2.3218,2.2969,2.2969,2.2969,2.2945,2.2911,2.2893,2.2893,2.2893,2.2893,2.2893,2.2893,2.2893,2.2893,2.2893,2.2893,2.2893,2.2893,2.2893,2.2893,2.2893,2.2893,2.2893,2.2893,2.2893,2.2893,2.2893,2.2893,2.2893,2.2893,2.2893,2.2893,2.2893,2.2893,2.2893,2.2893,2.2893,2.2893,2.2893,2.2893,2.2893,2.2893,2.2893,2.2893,2.2893,2.2893,2.2893,2.2893,2.2893,2.1614,1.8769,1.5916,1.4252,1.39,1.39,1.3722,1.3361,1.3021,1.286,1.2842,1.2406,1.2015,0.0,0.0,0.0,0.0,0.0,0.0,2.5288,0.0,2.511,0.0,0.0,0.0,0.0,0.0,0.0,0.0,2.6234,2.7103,2.7103,2.8312,2.9639,3.0816,3.0961,3.1283,3.21,3.1659,3.1883,3.3292,3.1556,3.1033,3.2438,3.1966,3.0985,2.9573,2.8731,2.7659,2.6267,2.5483,2.511,2.511,2.511,2.511,2.5086,2.4866,2.4655,2.4486,2.4054,2.3696,2.3389,2.3184,2.303,2.2893,2.2893,2.2893,2.2893,2.2893,2.2893,2.2893,2.2893,2.2893,2.2893,2.2893,2.2893,2.2893,2.2893,2.2893,2.2893,2.2893,2.2893,2.2893,2.2893,2.2893,2.2893,2.2893,2.2893,2.2893,2.2893,2.2893,2.2893,2.2893,2.2893,2.2893,2.2893,2.2893,2.2893,2.2893,2.2893,2.2893,2.2893,2.2729,2.2689,2.288,2.2723,2.2689,2.288,2.2893,2.2893,2.2893,2.1263,1.9327,1.7145,1.5026,1.39,1.39,1.3668,1.3468,1.3307,1.2725,1.2459,1.2442,1.2047,1.1763,2.6342,0.0,0.0,0.0,0.0,0.0,0.0,0.0,0.0,0.0,0.0,0.0,0.0,0.0,0.0,0.0,0.0,2.712,2.7103,2.7659,2.8353,2.91,2.9198,2.9607,3.0637,3.0394,3.0911,3.2702,3.1515,3.1499,3.3307,3.3019,3.2349,3.1329,2.9565,2.8139,2.712,2.5779,2.511,2.511,2.4984,2.4933,2.4916,2.4536,2.4292,2.4173,2.3628,2.3355,2.3236,2.2996,2.2893,2.2893,2.2893,2.2893,2.2893,2.2893,2.2893,2.2893,2.2893,2.2893,2.2893,2.2893,2.2893,2.2893,2.2893,2.2893,2.2893,2.2893,2.2893,2.2893,2.2893,2.2893,2.2893,2.2893,2.2893,2.2893,2.2893,2.2893,2.2893,2.2893,2.2893,2.2893,2.2893,2.2893,2.2893,2.2893,2.2827,2.2756,2.2756,2.2485,2.2412,2.2729,2.2545,2.2539,2.2873,2.2893,2.2722,2.2304,1.9831,1.7702,1.615,1.4675,1.39,1.39,1.3507,1.3253,1.3164,1.2513,1.214,1.2033,1.1745,1.1602,0.0,0.0,0.0,2.7394,0.0,0.0,0.0,0.0,2.511,0.0,0.0,0.0,0.0,0.0,0.0,0.0,0.0,0.0,0.0,2.6023,2.6225,2.8871,2.9198,2.9215,2.9264,2.8097,2.8452,3.1169,3.0054,3.0468,3.326,3.211,3.1345,3.1297,2.8608,2.7153,2.7103,2.5779,2.511,2.511,2.4706,2.452,2.4503,2.4163,2.3799,2.3423,2.3406,2.3218,2.2911,2.2893,2.2893,2.2893,2.2893,2.2893,2.2893,2.2893,2.2893,2.2893,2.2893,2.2893,2.2893,2.2893,2.2893,2.2893,2.2893,2.2893,2.2893,2.2893,2.2893,2.2893,2.2893,2.2893,2.2893,2.2893,2.2893,2.2893,2.2893,2.2893,2.2893,2.2893,2.2893,2.2893,2.2893,2.2893,2.2893,2.2893,2.2619,2.2415,2.2415,2.2178,2.2111,2.2381,2.2408,2.2539,2.2873,2.2893,2.2269,2.0768,1.924,1.7702,1.615,1.4675,1.39,1.39,1.3507,1.3146,1.2824,1.2406,1.1997,1.1619,1.1602,1.1602,0.0,0.0,3.0248,2.8838,0.0,0.0,0.0,0.0,0.0,0.0,0.0,0.0,0.0,0.0,0.0,0.0,0.0,0.0,0.0,2.8106,2.7833,2.7866,2.8666,2.9198,2.9198,2.8797,2.9297,3.1169,3.0863,3.1403,3.3307,3.2949,3.2702,3.2702,2.9956,2.8493,2.8493,2.6241,2.4967,2.4706,2.4832,2.4757,2.4503,2.4384,2.4265,2.4105,2.3611,2.3338,2.3218,2.2996,2.2893,2.2893,2.2893,2.2893,2.2893,2.2893,2.2893,2.2893,2.2893,2.2893,2.2893,2.2893,2.2893,2.2893,2.2893,2.2893,2.2893,2.2893,2.2893,2.2893,2.2893,2.2893,2.2893,2.2893,2.2893,2.2893,2.2893,2.2893,2.2893,2.2893,2.2723,2.2572,2.2572,2.2422,2.2362,2.2539,2.2462,2.2335,2.2158,2.2061,2.2098,2.2368,2.2402,2.2539,2.2873,2.1953,2.0744,1.924,1.7725,1.6221,1.4711,1.4167,1.3775,1.3507,1.3146,1.2774,1.2406,1.1997,1.1727,1.1602,1.1602,1.1602,3.0694,3.1364,0.0,3.0297,3.0637,0.0,2.9525,0.0,0.0,0.0,0.0,0.0,0.0,0.0,0.0,0.0,0.0,0.0,0.0,2.9639,2.9639,2.8756,2.8986,2.9002,2.8493,2.8904,2.9777,3.1185,3.1297,3.1909,3.3323,3.2934,3.2876,3.3371,3.0671,2.9444,2.994,2.7203,2.567,2.541,2.5061,2.4747,2.4486,2.4231,2.4105,2.4071,2.3475,2.3218,2.3201,2.2996,2.2893,2.2893,2.2893,2.2893,2.2893,2.2893,2.2893,2.2893,2.2893,2.2893,2.2893,2.2893,2.2893,2.2893,2.2893,2.2893,2.2893,2.2893,2.2893,2.2893,2.2893,2.2893,2.2893,2.2893,2.2893,2.2893,2.2893,2.2813,2.2723,2.2723,2.2465,2.2265,2.2265,2.2111,2.2067,2.2238,2.2178,2.2044,2.1874,2.1863,2.196,2.2231,2.2341,2.2312,2.2106,2.1171,1.9733,1.7702,1.6657,1.5434,1.3953,1.3757,1.3561,1.3307,1.2828,1.2456,1.2194,1.1799,1.1602,1.1602,1.1602,1.1602]}]]